<?xml version="1.0" encoding="UTF-8" standalone="no" ?>
<gpx xmlns="http://www.topografix.com/GPX/1/1" xmlns:xsi="http://www.w3.org/2001/XMLSchema-instance" xsi:schemaLocation="http://www.topografix.com/GPX/1/1 http://www.topografix.com/GPX/1/1/gpx.xsd" version="1.1" creator="VisuGPX - https://www.visugpx.com">
  <metadata>
    <name>Jard sur mer</name>
  </metadata>
  <trk>
    <name><![CDATA[Enregistré le 14 mai 2022 17:33:05]]></name>
    <trkseg>
      <trkpt lat="46.4069" lon="-1.54626">
        <ele>56.38062</ele>
        <time>2022-05-14T15:33:10.000Z</time>
      </trkpt>
      <trkpt lat="46.40689" lon="-1.54628">
        <ele>56.5368</ele>
        <time>2022-05-14T15:33:12.000Z</time>
      </trkpt>
      <trkpt lat="46.40687" lon="-1.5463">
        <ele>56.34993</ele>
        <time>2022-05-14T15:33:14.000Z</time>
      </trkpt>
      <trkpt lat="46.40686" lon="-1.54633">
        <ele>56.36295</ele>
        <time>2022-05-14T15:33:16.000Z</time>
      </trkpt>
      <trkpt lat="46.40684" lon="-1.54635">
        <ele>56.347</ele>
        <time>2022-05-14T15:33:18.000Z</time>
      </trkpt>
      <trkpt lat="46.40683" lon="-1.54637">
        <ele>56.16331</ele>
        <time>2022-05-14T15:33:20.000Z</time>
      </trkpt>
      <trkpt lat="46.40682" lon="-1.5464">
        <ele>55.76968</ele>
        <time>2022-05-14T15:33:22.000Z</time>
      </trkpt>
      <trkpt lat="46.4068" lon="-1.54643">
        <ele>55.43518</ele>
        <time>2022-05-14T15:33:24.000Z</time>
      </trkpt>
      <trkpt lat="46.40679" lon="-1.54646">
        <ele>55.08383</ele>
        <time>2022-05-14T15:33:26.000Z</time>
      </trkpt>
      <trkpt lat="46.40677" lon="-1.54648">
        <ele>54.87923</ele>
        <time>2022-05-14T15:33:28.000Z</time>
      </trkpt>
      <trkpt lat="46.40676" lon="-1.5465">
        <ele>54.70353</ele>
        <time>2022-05-14T15:33:31.000Z</time>
      </trkpt>
      <trkpt lat="46.40674" lon="-1.54652">
        <ele>54.58926</ele>
        <time>2022-05-14T15:33:33.000Z</time>
      </trkpt>
      <trkpt lat="46.40673" lon="-1.54653">
        <ele>54.47682</ele>
        <time>2022-05-14T15:33:35.000Z</time>
      </trkpt>
      <trkpt lat="46.40671" lon="-1.54655">
        <ele>54.36308</ele>
        <time>2022-05-14T15:33:37.000Z</time>
      </trkpt>
      <trkpt lat="46.4067" lon="-1.54657">
        <ele>54.23535</ele>
        <time>2022-05-14T15:33:39.000Z</time>
      </trkpt>
      <trkpt lat="46.40669" lon="-1.54659">
        <ele>54.07191</ele>
        <time>2022-05-14T15:33:41.000Z</time>
      </trkpt>
      <trkpt lat="46.40667" lon="-1.54661">
        <ele>53.97455</ele>
        <time>2022-05-14T15:33:43.000Z</time>
      </trkpt>
      <trkpt lat="46.40665" lon="-1.54664">
        <ele>53.85402</ele>
        <time>2022-05-14T15:33:46.000Z</time>
      </trkpt>
      <trkpt lat="46.40664" lon="-1.54666">
        <ele>53.76896</ele>
        <time>2022-05-14T15:33:48.000Z</time>
      </trkpt>
      <trkpt lat="46.40663" lon="-1.54669">
        <ele>53.69898</ele>
        <time>2022-05-14T15:33:50.000Z</time>
      </trkpt>
      <trkpt lat="46.40661" lon="-1.54671">
        <ele>53.5332</ele>
        <time>2022-05-14T15:33:52.000Z</time>
      </trkpt>
      <trkpt lat="46.4066" lon="-1.54673">
        <ele>53.32295</ele>
        <time>2022-05-14T15:33:54.000Z</time>
      </trkpt>
      <trkpt lat="46.40658" lon="-1.54673">
        <ele>53.16779</ele>
        <time>2022-05-14T15:33:56.000Z</time>
      </trkpt>
      <trkpt lat="46.40656" lon="-1.54675">
        <ele>52.97573</ele>
        <time>2022-05-14T15:33:58.000Z</time>
      </trkpt>
      <trkpt lat="46.40655" lon="-1.54676">
        <ele>52.78594</ele>
        <time>2022-05-14T15:34:00.000Z</time>
      </trkpt>
      <trkpt lat="46.40652" lon="-1.54676">
        <ele>52.67292</ele>
        <time>2022-05-14T15:34:05.000Z</time>
      </trkpt>
      <trkpt lat="46.4065" lon="-1.54675">
        <ele>52.76627</ele>
        <time>2022-05-14T15:34:09.000Z</time>
      </trkpt>
      <trkpt lat="46.40648" lon="-1.54674">
        <ele>52.94124</ele>
        <time>2022-05-14T15:34:11.000Z</time>
      </trkpt>
      <trkpt lat="46.40646" lon="-1.54674">
        <ele>53.15805</ele>
        <time>2022-05-14T15:34:13.000Z</time>
      </trkpt>
      <trkpt lat="46.40644" lon="-1.54673">
        <ele>53.32699</ele>
        <time>2022-05-14T15:34:15.000Z</time>
      </trkpt>
      <trkpt lat="46.40641" lon="-1.54673">
        <ele>53.5092</ele>
        <time>2022-05-14T15:34:17.000Z</time>
      </trkpt>
      <trkpt lat="46.40639" lon="-1.54673">
        <ele>53.67495</ele>
        <time>2022-05-14T15:34:19.000Z</time>
      </trkpt>
      <trkpt lat="46.40637" lon="-1.54675">
        <ele>53.85069</ele>
        <time>2022-05-14T15:34:21.000Z</time>
      </trkpt>
      <trkpt lat="46.40636" lon="-1.54677">
        <ele>54.0197</ele>
        <time>2022-05-14T15:34:23.000Z</time>
      </trkpt>
      <trkpt lat="46.40634" lon="-1.5468">
        <ele>54.1975</ele>
        <time>2022-05-14T15:34:25.000Z</time>
      </trkpt>
      <trkpt lat="46.40633" lon="-1.54683">
        <ele>54.39534</ele>
        <time>2022-05-14T15:34:27.000Z</time>
      </trkpt>
      <trkpt lat="46.40632" lon="-1.54686">
        <ele>54.53142</ele>
        <time>2022-05-14T15:34:29.000Z</time>
      </trkpt>
      <trkpt lat="46.40631" lon="-1.5469">
        <ele>54.66138</ele>
        <time>2022-05-14T15:34:31.000Z</time>
      </trkpt>
      <trkpt lat="46.4063" lon="-1.54693">
        <ele>54.79142</ele>
        <time>2022-05-14T15:34:33.000Z</time>
      </trkpt>
      <trkpt lat="46.40629" lon="-1.54696">
        <ele>54.89187</ele>
        <time>2022-05-14T15:34:35.000Z</time>
      </trkpt>
      <trkpt lat="46.40628" lon="-1.54699">
        <ele>54.93445</ele>
        <time>2022-05-14T15:34:37.000Z</time>
      </trkpt>
      <trkpt lat="46.40626" lon="-1.54702">
        <ele>55.0097</ele>
        <time>2022-05-14T15:34:39.000Z</time>
      </trkpt>
      <trkpt lat="46.40625" lon="-1.54705">
        <ele>55.04755</ele>
        <time>2022-05-14T15:34:41.000Z</time>
      </trkpt>
      <trkpt lat="46.40624" lon="-1.54708">
        <ele>55.09327</ele>
        <time>2022-05-14T15:34:43.000Z</time>
      </trkpt>
      <trkpt lat="46.40623" lon="-1.5471">
        <ele>55.15083</ele>
        <time>2022-05-14T15:34:45.000Z</time>
      </trkpt>
      <trkpt lat="46.40621" lon="-1.54712">
        <ele>55.15047</ele>
        <time>2022-05-14T15:34:47.000Z</time>
      </trkpt>
      <trkpt lat="46.4062" lon="-1.54715">
        <ele>55.05489</ele>
        <time>2022-05-14T15:34:49.000Z</time>
      </trkpt>
      <trkpt lat="46.40619" lon="-1.54717">
        <ele>54.87732</ele>
        <time>2022-05-14T15:34:51.000Z</time>
      </trkpt>
      <trkpt lat="46.40617" lon="-1.54719">
        <ele>54.68197</ele>
        <time>2022-05-14T15:34:53.000Z</time>
      </trkpt>
      <trkpt lat="46.40616" lon="-1.54722">
        <ele>54.46363</ele>
        <time>2022-05-14T15:34:55.000Z</time>
      </trkpt>
      <trkpt lat="46.40615" lon="-1.54724">
        <ele>54.23732</ele>
        <time>2022-05-14T15:34:57.000Z</time>
      </trkpt>
      <trkpt lat="46.40613" lon="-1.54726">
        <ele>53.98464</ele>
        <time>2022-05-14T15:34:59.000Z</time>
      </trkpt>
      <trkpt lat="46.40612" lon="-1.54728">
        <ele>53.71699</ele>
        <time>2022-05-14T15:35:01.000Z</time>
      </trkpt>
      <trkpt lat="46.4061" lon="-1.54731">
        <ele>53.45462</ele>
        <time>2022-05-14T15:35:03.000Z</time>
      </trkpt>
      <trkpt lat="46.40609" lon="-1.54733">
        <ele>53.20689</ele>
        <time>2022-05-14T15:35:05.000Z</time>
      </trkpt>
      <trkpt lat="46.40607" lon="-1.54735">
        <ele>53.00458</ele>
        <time>2022-05-14T15:35:07.000Z</time>
      </trkpt>
      <trkpt lat="46.40606" lon="-1.54737">
        <ele>52.83472</ele>
        <time>2022-05-14T15:35:09.000Z</time>
      </trkpt>
      <trkpt lat="46.40604" lon="-1.54739">
        <ele>52.69612</ele>
        <time>2022-05-14T15:35:11.000Z</time>
      </trkpt>
      <trkpt lat="46.40603" lon="-1.54737">
        <ele>52.50194</ele>
        <time>2022-05-14T15:35:24.000Z</time>
      </trkpt>
      <trkpt lat="46.40602" lon="-1.5474">
        <ele>52.34373</ele>
        <time>2022-05-14T15:35:26.000Z</time>
      </trkpt>
      <trkpt lat="46.40602" lon="-1.54744">
        <ele>52.1844</ele>
        <time>2022-05-14T15:35:28.000Z</time>
      </trkpt>
      <trkpt lat="46.40602" lon="-1.54746">
        <ele>51.96266</ele>
        <time>2022-05-14T15:35:30.000Z</time>
      </trkpt>
      <trkpt lat="46.40603" lon="-1.54749">
        <ele>51.83724</ele>
        <time>2022-05-14T15:35:55.000Z</time>
      </trkpt>
      <trkpt lat="46.40603" lon="-1.54752">
        <ele>51.69375</ele>
        <time>2022-05-14T15:35:58.000Z</time>
      </trkpt>
      <trkpt lat="46.40601" lon="-1.54755">
        <ele>51.60004</ele>
        <time>2022-05-14T15:36:01.000Z</time>
      </trkpt>
      <trkpt lat="46.40601" lon="-1.54758">
        <ele>51.54744</ele>
        <time>2022-05-14T15:36:05.000Z</time>
      </trkpt>
      <trkpt lat="46.406" lon="-1.54759">
        <ele>51.50371</ele>
        <time>2022-05-14T15:36:12.000Z</time>
      </trkpt>
      <trkpt lat="46.40599" lon="-1.54762">
        <ele>51.4412</ele>
        <time>2022-05-14T15:36:15.000Z</time>
      </trkpt>
      <trkpt lat="46.40599" lon="-1.54765">
        <ele>51.32624</ele>
        <time>2022-05-14T15:36:23.000Z</time>
      </trkpt>
      <trkpt lat="46.40598" lon="-1.54767">
        <ele>51.22815</ele>
        <time>2022-05-14T15:36:29.000Z</time>
      </trkpt>
      <trkpt lat="46.40597" lon="-1.5477">
        <ele>51.23101</ele>
        <time>2022-05-14T15:36:32.000Z</time>
      </trkpt>
      <trkpt lat="46.40596" lon="-1.54772">
        <ele>51.20858</ele>
        <time>2022-05-14T15:36:36.000Z</time>
      </trkpt>
      <trkpt lat="46.40595" lon="-1.54775">
        <ele>51.20763</ele>
        <time>2022-05-14T15:36:39.000Z</time>
      </trkpt>
      <trkpt lat="46.40593" lon="-1.54778">
        <ele>51.24038</ele>
        <time>2022-05-14T15:36:42.000Z</time>
      </trkpt>
      <trkpt lat="46.40592" lon="-1.54781">
        <ele>51.27055</ele>
        <time>2022-05-14T15:36:45.000Z</time>
      </trkpt>
      <trkpt lat="46.40591" lon="-1.54783">
        <ele>51.28002</ele>
        <time>2022-05-14T15:36:48.000Z</time>
      </trkpt>
      <trkpt lat="46.4059" lon="-1.54786">
        <ele>51.33829</ele>
        <time>2022-05-14T15:36:51.000Z</time>
      </trkpt>
      <trkpt lat="46.40588" lon="-1.54788">
        <ele>51.40455</ele>
        <time>2022-05-14T15:36:53.000Z</time>
      </trkpt>
      <trkpt lat="46.40587" lon="-1.5479">
        <ele>51.55056</ele>
        <time>2022-05-14T15:36:56.000Z</time>
      </trkpt>
      <trkpt lat="46.40587" lon="-1.54793">
        <ele>51.66973</ele>
        <time>2022-05-14T15:37:00.000Z</time>
      </trkpt>
      <trkpt lat="46.40585" lon="-1.54796">
        <ele>51.78079</ele>
        <time>2022-05-14T15:37:06.000Z</time>
      </trkpt>
      <trkpt lat="46.40583" lon="-1.54798">
        <ele>51.93819</ele>
        <time>2022-05-14T15:37:08.000Z</time>
      </trkpt>
      <trkpt lat="46.40582" lon="-1.54802">
        <ele>52.01728</ele>
        <time>2022-05-14T15:37:10.000Z</time>
      </trkpt>
      <trkpt lat="46.40582" lon="-1.54805">
        <ele>52.09263</ele>
        <time>2022-05-14T15:37:12.000Z</time>
      </trkpt>
      <trkpt lat="46.40582" lon="-1.54809">
        <ele>52.06319</ele>
        <time>2022-05-14T15:37:14.000Z</time>
      </trkpt>
      <trkpt lat="46.40581" lon="-1.54812">
        <ele>52.00264</ele>
        <time>2022-05-14T15:37:16.000Z</time>
      </trkpt>
      <trkpt lat="46.40581" lon="-1.54814">
        <ele>51.91235</ele>
        <time>2022-05-14T15:37:18.000Z</time>
      </trkpt>
      <trkpt lat="46.4058" lon="-1.54818">
        <ele>51.8827</ele>
        <time>2022-05-14T15:37:20.000Z</time>
      </trkpt>
      <trkpt lat="46.40579" lon="-1.5482">
        <ele>51.92466</ele>
        <time>2022-05-14T15:37:25.000Z</time>
      </trkpt>
      <trkpt lat="46.40576" lon="-1.54821">
        <ele>51.9449</ele>
        <time>2022-05-14T15:37:29.000Z</time>
      </trkpt>
      <trkpt lat="46.40577" lon="-1.54825">
        <ele>51.86835</ele>
        <time>2022-05-14T15:37:32.000Z</time>
      </trkpt>
      <trkpt lat="46.40578" lon="-1.54827">
        <ele>51.83259</ele>
        <time>2022-05-14T15:37:35.000Z</time>
      </trkpt>
      <trkpt lat="46.40579" lon="-1.5483">
        <ele>51.83663</ele>
        <time>2022-05-14T15:37:39.000Z</time>
      </trkpt>
      <trkpt lat="46.40579" lon="-1.54833">
        <ele>51.81201</ele>
        <time>2022-05-14T15:37:41.000Z</time>
      </trkpt>
      <trkpt lat="46.40578" lon="-1.54837">
        <ele>51.74535</ele>
        <time>2022-05-14T15:37:44.000Z</time>
      </trkpt>
      <trkpt lat="46.40578" lon="-1.5484">
        <ele>51.69625</ele>
        <time>2022-05-14T15:37:46.000Z</time>
      </trkpt>
      <trkpt lat="46.40578" lon="-1.54843">
        <ele>51.59536</ele>
        <time>2022-05-14T15:37:48.000Z</time>
      </trkpt>
      <trkpt lat="46.40579" lon="-1.54846">
        <ele>51.52698</ele>
        <time>2022-05-14T15:37:50.000Z</time>
      </trkpt>
      <trkpt lat="46.40579" lon="-1.54849">
        <ele>51.41689</ele>
        <time>2022-05-14T15:37:52.000Z</time>
      </trkpt>
      <trkpt lat="46.4058" lon="-1.54852">
        <ele>51.35574</ele>
        <time>2022-05-14T15:37:54.000Z</time>
      </trkpt>
      <trkpt lat="46.4058" lon="-1.54855">
        <ele>51.37435</ele>
        <time>2022-05-14T15:37:56.000Z</time>
      </trkpt>
      <trkpt lat="46.4058" lon="-1.54858">
        <ele>51.43823</ele>
        <time>2022-05-14T15:37:58.000Z</time>
      </trkpt>
      <trkpt lat="46.4058" lon="-1.54861">
        <ele>51.57927</ele>
        <time>2022-05-14T15:38:00.000Z</time>
      </trkpt>
      <trkpt lat="46.4058" lon="-1.54863">
        <ele>51.80733</ele>
        <time>2022-05-14T15:38:02.000Z</time>
      </trkpt>
      <trkpt lat="46.40581" lon="-1.54866">
        <ele>52.09895</ele>
        <time>2022-05-14T15:38:04.000Z</time>
      </trkpt>
      <trkpt lat="46.40582" lon="-1.54869">
        <ele>52.43661</ele>
        <time>2022-05-14T15:38:06.000Z</time>
      </trkpt>
      <trkpt lat="46.40582" lon="-1.54873">
        <ele>52.76624</ele>
        <time>2022-05-14T15:38:08.000Z</time>
      </trkpt>
      <trkpt lat="46.40582" lon="-1.54877">
        <ele>53.05603</ele>
        <time>2022-05-14T15:38:10.000Z</time>
      </trkpt>
      <trkpt lat="46.40582" lon="-1.54879">
        <ele>53.31786</ele>
        <time>2022-05-14T15:38:13.000Z</time>
      </trkpt>
      <trkpt lat="46.40583" lon="-1.54883">
        <ele>53.66046</ele>
        <time>2022-05-14T15:38:24.000Z</time>
      </trkpt>
      <trkpt lat="46.40582" lon="-1.54887">
        <ele>53.93325</ele>
        <time>2022-05-14T15:38:26.000Z</time>
      </trkpt>
      <trkpt lat="46.40582" lon="-1.5489">
        <ele>54.18944</ele>
        <time>2022-05-14T15:38:28.000Z</time>
      </trkpt>
      <trkpt lat="46.40582" lon="-1.54893">
        <ele>54.43623</ele>
        <time>2022-05-14T15:38:30.000Z</time>
      </trkpt>
      <trkpt lat="46.40581" lon="-1.54897">
        <ele>54.72516</ele>
        <time>2022-05-14T15:38:35.000Z</time>
      </trkpt>
      <trkpt lat="46.40581" lon="-1.54899">
        <ele>54.99317</ele>
        <time>2022-05-14T15:38:38.000Z</time>
      </trkpt>
      <trkpt lat="46.40581" lon="-1.54903">
        <ele>55.26823</ele>
        <time>2022-05-14T15:38:41.000Z</time>
      </trkpt>
      <trkpt lat="46.4058" lon="-1.54906">
        <ele>55.49818</ele>
        <time>2022-05-14T15:38:44.000Z</time>
      </trkpt>
      <trkpt lat="46.4058" lon="-1.54909">
        <ele>55.65923</ele>
        <time>2022-05-14T15:38:47.000Z</time>
      </trkpt>
      <trkpt lat="46.40579" lon="-1.54911">
        <ele>55.80607</ele>
        <time>2022-05-14T15:38:49.000Z</time>
      </trkpt>
      <trkpt lat="46.40579" lon="-1.54915">
        <ele>55.8941</ele>
        <time>2022-05-14T15:38:52.000Z</time>
      </trkpt>
      <trkpt lat="46.40579" lon="-1.54919">
        <ele>55.97675</ele>
        <time>2022-05-14T15:38:54.000Z</time>
      </trkpt>
      <trkpt lat="46.40578" lon="-1.54922">
        <ele>56.00341</ele>
        <time>2022-05-14T15:38:56.000Z</time>
      </trkpt>
      <trkpt lat="46.40578" lon="-1.54925">
        <ele>55.94427</ele>
        <time>2022-05-14T15:38:58.000Z</time>
      </trkpt>
      <trkpt lat="46.40577" lon="-1.54928">
        <ele>55.78202</ele>
        <time>2022-05-14T15:39:00.000Z</time>
      </trkpt>
      <trkpt lat="46.40576" lon="-1.54931">
        <ele>55.6039</ele>
        <time>2022-05-14T15:39:02.000Z</time>
      </trkpt>
      <trkpt lat="46.40576" lon="-1.54934">
        <ele>55.41561</ele>
        <time>2022-05-14T15:39:04.000Z</time>
      </trkpt>
      <trkpt lat="46.40575" lon="-1.54937">
        <ele>55.16943</ele>
        <time>2022-05-14T15:39:06.000Z</time>
      </trkpt>
      <trkpt lat="46.40574" lon="-1.5494">
        <ele>54.93945</ele>
        <time>2022-05-14T15:39:08.000Z</time>
      </trkpt>
      <trkpt lat="46.40574" lon="-1.54944">
        <ele>54.76807</ele>
        <time>2022-05-14T15:39:10.000Z</time>
      </trkpt>
      <trkpt lat="46.40574" lon="-1.54947">
        <ele>54.59167</ele>
        <time>2022-05-14T15:39:12.000Z</time>
      </trkpt>
      <trkpt lat="46.40574" lon="-1.5495">
        <ele>54.51354</ele>
        <time>2022-05-14T15:39:14.000Z</time>
      </trkpt>
      <trkpt lat="46.40574" lon="-1.54953">
        <ele>54.47456</ele>
        <time>2022-05-14T15:39:16.000Z</time>
      </trkpt>
      <trkpt lat="46.40574" lon="-1.54956">
        <ele>54.4093</ele>
        <time>2022-05-14T15:39:18.000Z</time>
      </trkpt>
      <trkpt lat="46.40573" lon="-1.54959">
        <ele>54.3442</ele>
        <time>2022-05-14T15:39:20.000Z</time>
      </trkpt>
      <trkpt lat="46.40573" lon="-1.54962">
        <ele>54.3456</ele>
        <time>2022-05-14T15:39:22.000Z</time>
      </trkpt>
      <trkpt lat="46.40575" lon="-1.54963">
        <ele>54.30863</ele>
        <time>2022-05-14T15:39:27.000Z</time>
      </trkpt>
      <trkpt lat="46.40575" lon="-1.54959">
        <ele>54.3156</ele>
        <time>2022-05-14T15:39:29.000Z</time>
      </trkpt>
      <trkpt lat="46.40575" lon="-1.54962">
        <ele>54.32056</ele>
        <time>2022-05-14T15:40:00.000Z</time>
      </trkpt>
      <trkpt lat="46.40575" lon="-1.54966">
        <ele>54.29494</ele>
        <time>2022-05-14T15:40:03.000Z</time>
      </trkpt>
      <trkpt lat="46.40575" lon="-1.5497">
        <ele>54.29971</ele>
        <time>2022-05-14T15:40:06.000Z</time>
      </trkpt>
      <trkpt lat="46.40575" lon="-1.54973">
        <ele>54.25171</ele>
        <time>2022-05-14T15:40:10.000Z</time>
      </trkpt>
      <trkpt lat="46.40576" lon="-1.54976">
        <ele>54.2116</ele>
        <time>2022-05-14T15:40:15.000Z</time>
      </trkpt>
      <trkpt lat="46.40575" lon="-1.54979">
        <ele>54.19011</ele>
        <time>2022-05-14T15:40:21.000Z</time>
      </trkpt>
      <trkpt lat="46.40574" lon="-1.54982">
        <ele>54.28321</ele>
        <time>2022-05-14T15:40:23.000Z</time>
      </trkpt>
      <trkpt lat="46.40573" lon="-1.54985">
        <ele>54.37605</ele>
        <time>2022-05-14T15:40:26.000Z</time>
      </trkpt>
      <trkpt lat="46.40573" lon="-1.54989">
        <ele>54.41961</ele>
        <time>2022-05-14T15:40:29.000Z</time>
      </trkpt>
      <trkpt lat="46.40572" lon="-1.54991">
        <ele>54.5301</ele>
        <time>2022-05-14T15:40:31.000Z</time>
      </trkpt>
      <trkpt lat="46.40571" lon="-1.54994">
        <ele>54.66108</ele>
        <time>2022-05-14T15:40:33.000Z</time>
      </trkpt>
      <trkpt lat="46.40571" lon="-1.54997">
        <ele>54.77981</ele>
        <time>2022-05-14T15:40:35.000Z</time>
      </trkpt>
      <trkpt lat="46.40571" lon="-1.55001">
        <ele>54.92831</ele>
        <time>2022-05-14T15:40:38.000Z</time>
      </trkpt>
      <trkpt lat="46.4057" lon="-1.55004">
        <ele>55.03677</ele>
        <time>2022-05-14T15:40:40.000Z</time>
      </trkpt>
      <trkpt lat="46.4057" lon="-1.55007">
        <ele>55.13148</ele>
        <time>2022-05-14T15:40:42.000Z</time>
      </trkpt>
      <trkpt lat="46.4057" lon="-1.5501">
        <ele>55.2182</ele>
        <time>2022-05-14T15:40:44.000Z</time>
      </trkpt>
      <trkpt lat="46.4057" lon="-1.55013">
        <ele>55.27734</ele>
        <time>2022-05-14T15:40:46.000Z</time>
      </trkpt>
      <trkpt lat="46.4057" lon="-1.55016">
        <ele>55.3959</ele>
        <time>2022-05-14T15:40:50.000Z</time>
      </trkpt>
      <trkpt lat="46.40571" lon="-1.5502">
        <ele>55.52358</ele>
        <time>2022-05-14T15:40:53.000Z</time>
      </trkpt>
      <trkpt lat="46.4057" lon="-1.55022">
        <ele>55.64681</ele>
        <time>2022-05-14T15:40:55.000Z</time>
      </trkpt>
      <trkpt lat="46.4057" lon="-1.55025">
        <ele>55.76326</ele>
        <time>2022-05-14T15:40:57.000Z</time>
      </trkpt>
      <trkpt lat="46.4057" lon="-1.55029">
        <ele>55.92368</ele>
        <time>2022-05-14T15:40:59.000Z</time>
      </trkpt>
      <trkpt lat="46.4057" lon="-1.55032">
        <ele>56.12244</ele>
        <time>2022-05-14T15:41:01.000Z</time>
      </trkpt>
      <trkpt lat="46.4057" lon="-1.55035">
        <ele>56.32064</ele>
        <time>2022-05-14T15:41:03.000Z</time>
      </trkpt>
      <trkpt lat="46.4057" lon="-1.55038">
        <ele>56.49932</ele>
        <time>2022-05-14T15:41:05.000Z</time>
      </trkpt>
      <trkpt lat="46.40571" lon="-1.55041">
        <ele>56.63411</ele>
        <time>2022-05-14T15:41:07.000Z</time>
      </trkpt>
      <trkpt lat="46.40571" lon="-1.55045">
        <ele>56.68499</ele>
        <time>2022-05-14T15:41:09.000Z</time>
      </trkpt>
      <trkpt lat="46.40571" lon="-1.55048">
        <ele>56.72406</ele>
        <time>2022-05-14T15:41:11.000Z</time>
      </trkpt>
      <trkpt lat="46.40572" lon="-1.55051">
        <ele>56.82882</ele>
        <time>2022-05-14T15:41:13.000Z</time>
      </trkpt>
      <trkpt lat="46.40572" lon="-1.55053">
        <ele>56.96411</ele>
        <time>2022-05-14T15:41:15.000Z</time>
      </trkpt>
      <trkpt lat="46.40573" lon="-1.55057">
        <ele>57.04385</ele>
        <time>2022-05-14T15:41:18.000Z</time>
      </trkpt>
      <trkpt lat="46.40573" lon="-1.5506">
        <ele>57.09446</ele>
        <time>2022-05-14T15:41:21.000Z</time>
      </trkpt>
      <trkpt lat="46.40574" lon="-1.55063">
        <ele>57.06945</ele>
        <time>2022-05-14T15:41:23.000Z</time>
      </trkpt>
      <trkpt lat="46.40574" lon="-1.55066">
        <ele>57.04931</ele>
        <time>2022-05-14T15:41:25.000Z</time>
      </trkpt>
      <trkpt lat="46.40575" lon="-1.55068">
        <ele>57.06038</ele>
        <time>2022-05-14T15:41:27.000Z</time>
      </trkpt>
      <trkpt lat="46.40575" lon="-1.55071">
        <ele>57.09921</ele>
        <time>2022-05-14T15:41:29.000Z</time>
      </trkpt>
      <trkpt lat="46.40575" lon="-1.55075">
        <ele>57.12043</ele>
        <time>2022-05-14T15:41:32.000Z</time>
      </trkpt>
      <trkpt lat="46.40576" lon="-1.55078">
        <ele>57.08569</ele>
        <time>2022-05-14T15:41:35.000Z</time>
      </trkpt>
      <trkpt lat="46.40577" lon="-1.55081">
        <ele>57.09605</ele>
        <time>2022-05-14T15:41:38.000Z</time>
      </trkpt>
      <trkpt lat="46.40578" lon="-1.55084">
        <ele>57.07351</ele>
        <time>2022-05-14T15:41:41.000Z</time>
      </trkpt>
      <trkpt lat="46.40578" lon="-1.55088">
        <ele>57.07809</ele>
        <time>2022-05-14T15:41:43.000Z</time>
      </trkpt>
      <trkpt lat="46.40578" lon="-1.5509">
        <ele>57.07938</ele>
        <time>2022-05-14T15:41:45.000Z</time>
      </trkpt>
      <trkpt lat="46.40579" lon="-1.55093">
        <ele>57.10393</ele>
        <time>2022-05-14T15:41:48.000Z</time>
      </trkpt>
      <trkpt lat="46.4058" lon="-1.55097">
        <ele>57.11909</ele>
        <time>2022-05-14T15:41:51.000Z</time>
      </trkpt>
      <trkpt lat="46.40581" lon="-1.551">
        <ele>57.14177</ele>
        <time>2022-05-14T15:41:54.000Z</time>
      </trkpt>
      <trkpt lat="46.40581" lon="-1.55104">
        <ele>57.1955</ele>
        <time>2022-05-14T15:41:57.000Z</time>
      </trkpt>
      <trkpt lat="46.40582" lon="-1.55107">
        <ele>57.26049</ele>
        <time>2022-05-14T15:42:00.000Z</time>
      </trkpt>
      <trkpt lat="46.40583" lon="-1.5511">
        <ele>57.44255</ele>
        <time>2022-05-14T15:42:04.000Z</time>
      </trkpt>
      <trkpt lat="46.40584" lon="-1.55114">
        <ele>57.57378</ele>
        <time>2022-05-14T15:42:07.000Z</time>
      </trkpt>
      <trkpt lat="46.40584" lon="-1.55117">
        <ele>57.66448</ele>
        <time>2022-05-14T15:42:09.000Z</time>
      </trkpt>
      <trkpt lat="46.40585" lon="-1.5512">
        <ele>57.80291</ele>
        <time>2022-05-14T15:42:11.000Z</time>
      </trkpt>
      <trkpt lat="46.40586" lon="-1.55123">
        <ele>57.93256</ele>
        <time>2022-05-14T15:42:14.000Z</time>
      </trkpt>
      <trkpt lat="46.40586" lon="-1.55126">
        <ele>58.06052</ele>
        <time>2022-05-14T15:42:17.000Z</time>
      </trkpt>
      <trkpt lat="46.40586" lon="-1.55129">
        <ele>58.1597</ele>
        <time>2022-05-14T15:42:21.000Z</time>
      </trkpt>
      <trkpt lat="46.40585" lon="-1.55132">
        <ele>58.23222</ele>
        <time>2022-05-14T15:42:24.000Z</time>
      </trkpt>
      <trkpt lat="46.40586" lon="-1.55135">
        <ele>58.30377</ele>
        <time>2022-05-14T15:42:27.000Z</time>
      </trkpt>
      <trkpt lat="46.40588" lon="-1.55138">
        <ele>58.1834</ele>
        <time>2022-05-14T15:42:51.000Z</time>
      </trkpt>
      <trkpt lat="46.40589" lon="-1.55142">
        <ele>58.13586</ele>
        <time>2022-05-14T15:42:53.000Z</time>
      </trkpt>
      <trkpt lat="46.40588" lon="-1.55146">
        <ele>58.0522</ele>
        <time>2022-05-14T15:42:55.000Z</time>
      </trkpt>
      <trkpt lat="46.40587" lon="-1.5515">
        <ele>58.02739</ele>
        <time>2022-05-14T15:42:57.000Z</time>
      </trkpt>
      <trkpt lat="46.40587" lon="-1.55153">
        <ele>57.99584</ele>
        <time>2022-05-14T15:42:58.000Z</time>
      </trkpt>
      <trkpt lat="46.40586" lon="-1.55155">
        <ele>57.92182</ele>
        <time>2022-05-14T15:42:59.000Z</time>
      </trkpt>
      <trkpt lat="46.40585" lon="-1.55158">
        <ele>57.83167</ele>
        <time>2022-05-14T15:43:01.000Z</time>
      </trkpt>
      <trkpt lat="46.40585" lon="-1.55161">
        <ele>57.71639</ele>
        <time>2022-05-14T15:43:03.000Z</time>
      </trkpt>
      <trkpt lat="46.40585" lon="-1.55164">
        <ele>57.62086</ele>
        <time>2022-05-14T15:43:04.000Z</time>
      </trkpt>
      <trkpt lat="46.40586" lon="-1.55167">
        <ele>57.55214</ele>
        <time>2022-05-14T15:43:05.000Z</time>
      </trkpt>
      <trkpt lat="46.40586" lon="-1.5517">
        <ele>57.47935</ele>
        <time>2022-05-14T15:43:06.000Z</time>
      </trkpt>
      <trkpt lat="46.40587" lon="-1.55173">
        <ele>57.28087</ele>
        <time>2022-05-14T15:43:07.000Z</time>
      </trkpt>
      <trkpt lat="46.40588" lon="-1.55177">
        <ele>57.07504</ele>
        <time>2022-05-14T15:43:09.000Z</time>
      </trkpt>
      <trkpt lat="46.40588" lon="-1.55182">
        <ele>56.92149</ele>
        <time>2022-05-14T15:43:11.000Z</time>
      </trkpt>
      <trkpt lat="46.40589" lon="-1.55186">
        <ele>56.77987</ele>
        <time>2022-05-14T15:43:13.000Z</time>
      </trkpt>
      <trkpt lat="46.4059" lon="-1.5519">
        <ele>56.65901</ele>
        <time>2022-05-14T15:43:15.000Z</time>
      </trkpt>
      <trkpt lat="46.4059" lon="-1.55194">
        <ele>56.55773</ele>
        <time>2022-05-14T15:43:17.000Z</time>
      </trkpt>
      <trkpt lat="46.40591" lon="-1.55197">
        <ele>56.45662</ele>
        <time>2022-05-14T15:43:19.000Z</time>
      </trkpt>
      <trkpt lat="46.40592" lon="-1.55201">
        <ele>56.34393</ele>
        <time>2022-05-14T15:43:21.000Z</time>
      </trkpt>
      <trkpt lat="46.40595" lon="-1.55203">
        <ele>56.32856</ele>
        <time>2022-05-14T15:43:23.000Z</time>
      </trkpt>
      <trkpt lat="46.40596" lon="-1.55206">
        <ele>56.41698</ele>
        <time>2022-05-14T15:43:25.000Z</time>
      </trkpt>
      <trkpt lat="46.40596" lon="-1.55209">
        <ele>56.42361</ele>
        <time>2022-05-14T15:43:28.000Z</time>
      </trkpt>
      <trkpt lat="46.40596" lon="-1.55212">
        <ele>56.421</ele>
        <time>2022-05-14T15:43:30.000Z</time>
      </trkpt>
      <trkpt lat="46.40597" lon="-1.55215">
        <ele>56.35167</ele>
        <time>2022-05-14T15:43:32.000Z</time>
      </trkpt>
      <trkpt lat="46.40598" lon="-1.55218">
        <ele>56.25393</ele>
        <time>2022-05-14T15:43:35.000Z</time>
      </trkpt>
      <trkpt lat="46.40598" lon="-1.55222">
        <ele>56.21886</ele>
        <time>2022-05-14T15:43:38.000Z</time>
      </trkpt>
      <trkpt lat="46.40599" lon="-1.55224">
        <ele>56.0899</ele>
        <time>2022-05-14T15:43:40.000Z</time>
      </trkpt>
      <trkpt lat="46.406" lon="-1.55227">
        <ele>56.05559</ele>
        <time>2022-05-14T15:43:42.000Z</time>
      </trkpt>
      <trkpt lat="46.406" lon="-1.5523">
        <ele>56.01604</ele>
        <time>2022-05-14T15:43:44.000Z</time>
      </trkpt>
      <trkpt lat="46.40601" lon="-1.55232">
        <ele>55.98391</ele>
        <time>2022-05-14T15:43:46.000Z</time>
      </trkpt>
      <trkpt lat="46.40601" lon="-1.55236">
        <ele>55.97539</ele>
        <time>2022-05-14T15:43:48.000Z</time>
      </trkpt>
      <trkpt lat="46.40602" lon="-1.5524">
        <ele>55.96213</ele>
        <time>2022-05-14T15:43:50.000Z</time>
      </trkpt>
      <trkpt lat="46.40602" lon="-1.55242">
        <ele>55.96765</ele>
        <time>2022-05-14T15:43:51.000Z</time>
      </trkpt>
      <trkpt lat="46.40602" lon="-1.55245">
        <ele>55.94038</ele>
        <time>2022-05-14T15:43:53.000Z</time>
      </trkpt>
      <trkpt lat="46.40603" lon="-1.55248">
        <ele>55.87706</ele>
        <time>2022-05-14T15:43:55.000Z</time>
      </trkpt>
      <trkpt lat="46.40603" lon="-1.55251">
        <ele>55.83448</ele>
        <time>2022-05-14T15:43:58.000Z</time>
      </trkpt>
      <trkpt lat="46.40604" lon="-1.55254">
        <ele>55.77634</ele>
        <time>2022-05-14T15:44:01.000Z</time>
      </trkpt>
      <trkpt lat="46.40605" lon="-1.55257">
        <ele>55.75105</ele>
        <time>2022-05-14T15:44:04.000Z</time>
      </trkpt>
      <trkpt lat="46.40605" lon="-1.5526">
        <ele>55.73519</ele>
        <time>2022-05-14T15:44:06.000Z</time>
      </trkpt>
      <trkpt lat="46.40606" lon="-1.55264">
        <ele>55.57549</ele>
        <time>2022-05-14T15:44:09.000Z</time>
      </trkpt>
      <trkpt lat="46.40607" lon="-1.55267">
        <ele>55.51928</ele>
        <time>2022-05-14T15:44:11.000Z</time>
      </trkpt>
      <trkpt lat="46.40608" lon="-1.55269">
        <ele>55.42888</ele>
        <time>2022-05-14T15:44:13.000Z</time>
      </trkpt>
      <trkpt lat="46.40608" lon="-1.55273">
        <ele>55.35468</ele>
        <time>2022-05-14T15:44:15.000Z</time>
      </trkpt>
      <trkpt lat="46.40609" lon="-1.55276">
        <ele>55.31997</ele>
        <time>2022-05-14T15:44:18.000Z</time>
      </trkpt>
      <trkpt lat="46.4061" lon="-1.55279">
        <ele>55.31675</ele>
        <time>2022-05-14T15:44:20.000Z</time>
      </trkpt>
      <trkpt lat="46.40611" lon="-1.55283">
        <ele>55.2926</ele>
        <time>2022-05-14T15:44:23.000Z</time>
      </trkpt>
      <trkpt lat="46.40612" lon="-1.55286">
        <ele>55.32386</ele>
        <time>2022-05-14T15:44:26.000Z</time>
      </trkpt>
      <trkpt lat="46.40612" lon="-1.55289">
        <ele>55.29398</ele>
        <time>2022-05-14T15:44:28.000Z</time>
      </trkpt>
      <trkpt lat="46.40613" lon="-1.55292">
        <ele>55.29766</ele>
        <time>2022-05-14T15:44:30.000Z</time>
      </trkpt>
      <trkpt lat="46.40614" lon="-1.55296">
        <ele>55.24658</ele>
        <time>2022-05-14T15:44:33.000Z</time>
      </trkpt>
      <trkpt lat="46.40615" lon="-1.55298">
        <ele>55.19836</ele>
        <time>2022-05-14T15:44:35.000Z</time>
      </trkpt>
      <trkpt lat="46.40616" lon="-1.55301">
        <ele>55.19373</ele>
        <time>2022-05-14T15:44:37.000Z</time>
      </trkpt>
      <trkpt lat="46.40618" lon="-1.55304">
        <ele>55.18694</ele>
        <time>2022-05-14T15:44:39.000Z</time>
      </trkpt>
      <trkpt lat="46.40619" lon="-1.55306">
        <ele>55.15841</ele>
        <time>2022-05-14T15:44:41.000Z</time>
      </trkpt>
      <trkpt lat="46.4062" lon="-1.55309">
        <ele>55.11904</ele>
        <time>2022-05-14T15:44:43.000Z</time>
      </trkpt>
      <trkpt lat="46.40622" lon="-1.55312">
        <ele>54.9637</ele>
        <time>2022-05-14T15:44:47.000Z</time>
      </trkpt>
      <trkpt lat="46.40623" lon="-1.55315">
        <ele>54.75813</ele>
        <time>2022-05-14T15:44:50.000Z</time>
      </trkpt>
      <trkpt lat="46.40623" lon="-1.55318">
        <ele>54.57249</ele>
        <time>2022-05-14T15:44:53.000Z</time>
      </trkpt>
      <trkpt lat="46.40624" lon="-1.55321">
        <ele>54.42277</ele>
        <time>2022-05-14T15:44:56.000Z</time>
      </trkpt>
      <trkpt lat="46.40624" lon="-1.55324">
        <ele>54.26905</ele>
        <time>2022-05-14T15:44:59.000Z</time>
      </trkpt>
      <trkpt lat="46.40624" lon="-1.55328">
        <ele>54.14668</ele>
        <time>2022-05-14T15:45:02.000Z</time>
      </trkpt>
      <trkpt lat="46.40624" lon="-1.55331">
        <ele>54.05029</ele>
        <time>2022-05-14T15:45:05.000Z</time>
      </trkpt>
      <trkpt lat="46.40624" lon="-1.55335">
        <ele>53.92827</ele>
        <time>2022-05-14T15:45:08.000Z</time>
      </trkpt>
      <trkpt lat="46.40625" lon="-1.55338">
        <ele>53.76735</ele>
        <time>2022-05-14T15:45:10.000Z</time>
      </trkpt>
      <trkpt lat="46.40625" lon="-1.55341">
        <ele>53.64097</ele>
        <time>2022-05-14T15:45:12.000Z</time>
      </trkpt>
      <trkpt lat="46.40626" lon="-1.55344">
        <ele>53.52256</ele>
        <time>2022-05-14T15:45:14.000Z</time>
      </trkpt>
      <trkpt lat="46.40626" lon="-1.55347">
        <ele>53.38892</ele>
        <time>2022-05-14T15:45:17.000Z</time>
      </trkpt>
      <trkpt lat="46.40627" lon="-1.5535">
        <ele>53.17578</ele>
        <time>2022-05-14T15:45:21.000Z</time>
      </trkpt>
      <trkpt lat="46.40628" lon="-1.55353">
        <ele>52.97157</ele>
        <time>2022-05-14T15:45:25.000Z</time>
      </trkpt>
      <trkpt lat="46.40628" lon="-1.55355">
        <ele>52.81672</ele>
        <time>2022-05-14T15:45:28.000Z</time>
      </trkpt>
      <trkpt lat="46.40627" lon="-1.55359">
        <ele>52.68076</ele>
        <time>2022-05-14T15:45:31.000Z</time>
      </trkpt>
      <trkpt lat="46.40626" lon="-1.55361">
        <ele>52.44668</ele>
        <time>2022-05-14T15:45:33.000Z</time>
      </trkpt>
      <trkpt lat="46.40625" lon="-1.55364">
        <ele>52.21347</ele>
        <time>2022-05-14T15:45:36.000Z</time>
      </trkpt>
      <trkpt lat="46.40624" lon="-1.55366">
        <ele>52.01385</ele>
        <time>2022-05-14T15:45:39.000Z</time>
      </trkpt>
      <trkpt lat="46.40622" lon="-1.55368">
        <ele>51.81997</ele>
        <time>2022-05-14T15:45:42.000Z</time>
      </trkpt>
      <trkpt lat="46.40621" lon="-1.55371">
        <ele>51.74602</ele>
        <time>2022-05-14T15:45:45.000Z</time>
      </trkpt>
      <trkpt lat="46.4062" lon="-1.55375">
        <ele>51.71508</ele>
        <time>2022-05-14T15:45:48.000Z</time>
      </trkpt>
      <trkpt lat="46.4062" lon="-1.55378">
        <ele>51.65261</ele>
        <time>2022-05-14T15:45:50.000Z</time>
      </trkpt>
      <trkpt lat="46.40619" lon="-1.55381">
        <ele>51.54806</ele>
        <time>2022-05-14T15:45:52.000Z</time>
      </trkpt>
      <trkpt lat="46.40619" lon="-1.55384">
        <ele>51.45466</ele>
        <time>2022-05-14T15:45:54.000Z</time>
      </trkpt>
      <trkpt lat="46.40619" lon="-1.55387">
        <ele>51.36611</ele>
        <time>2022-05-14T15:45:56.000Z</time>
      </trkpt>
      <trkpt lat="46.40619" lon="-1.5539">
        <ele>51.33033</ele>
        <time>2022-05-14T15:45:58.000Z</time>
      </trkpt>
      <trkpt lat="46.40619" lon="-1.55394">
        <ele>51.32296</ele>
        <time>2022-05-14T15:46:00.000Z</time>
      </trkpt>
      <trkpt lat="46.40619" lon="-1.55397">
        <ele>51.35431</ele>
        <time>2022-05-14T15:46:02.000Z</time>
      </trkpt>
      <trkpt lat="46.40619" lon="-1.55394">
        <ele>51.34892</ele>
        <time>2022-05-14T15:46:08.000Z</time>
      </trkpt>
      <trkpt lat="46.40621" lon="-1.55392">
        <ele>51.36381</ele>
        <time>2022-05-14T15:46:11.000Z</time>
      </trkpt>
      <trkpt lat="46.40624" lon="-1.5539">
        <ele>51.40389</ele>
        <time>2022-05-14T15:46:13.000Z</time>
      </trkpt>
      <trkpt lat="46.40625" lon="-1.55387">
        <ele>51.48502</ele>
        <time>2022-05-14T15:46:16.000Z</time>
      </trkpt>
      <trkpt lat="46.40626" lon="-1.55384">
        <ele>51.59145</ele>
        <time>2022-05-14T15:46:20.000Z</time>
      </trkpt>
      <trkpt lat="46.40628" lon="-1.55384">
        <ele>51.62736</ele>
        <time>2022-05-14T15:46:24.000Z</time>
      </trkpt>
      <trkpt lat="46.40628" lon="-1.55387">
        <ele>51.7505</ele>
        <time>2022-05-14T15:46:42.000Z</time>
      </trkpt>
      <trkpt lat="46.4063" lon="-1.55387">
        <ele>51.97639</ele>
        <time>2022-05-14T15:46:47.000Z</time>
      </trkpt>
      <trkpt lat="46.40627" lon="-1.55387">
        <ele>52.17078</ele>
        <time>2022-05-14T15:46:57.000Z</time>
      </trkpt>
      <trkpt lat="46.40625" lon="-1.55389">
        <ele>52.32859</ele>
        <time>2022-05-14T15:46:59.000Z</time>
      </trkpt>
      <trkpt lat="46.40623" lon="-1.55392">
        <ele>52.50009</ele>
        <time>2022-05-14T15:47:01.000Z</time>
      </trkpt>
      <trkpt lat="46.40622" lon="-1.55394">
        <ele>52.62456</ele>
        <time>2022-05-14T15:47:03.000Z</time>
      </trkpt>
      <trkpt lat="46.40622" lon="-1.55397">
        <ele>52.8155</ele>
        <time>2022-05-14T15:47:06.000Z</time>
      </trkpt>
      <trkpt lat="46.40622" lon="-1.55401">
        <ele>53.00646</ele>
        <time>2022-05-14T15:47:10.000Z</time>
      </trkpt>
      <trkpt lat="46.40622" lon="-1.55403">
        <ele>53.22863</ele>
        <time>2022-05-14T15:47:12.000Z</time>
      </trkpt>
      <trkpt lat="46.40622" lon="-1.55407">
        <ele>53.41549</ele>
        <time>2022-05-14T15:47:15.000Z</time>
      </trkpt>
      <trkpt lat="46.40622" lon="-1.55411">
        <ele>53.55031</ele>
        <time>2022-05-14T15:47:18.000Z</time>
      </trkpt>
      <trkpt lat="46.40622" lon="-1.55414">
        <ele>53.61283</ele>
        <time>2022-05-14T15:47:20.000Z</time>
      </trkpt>
      <trkpt lat="46.40623" lon="-1.55417">
        <ele>53.6395</ele>
        <time>2022-05-14T15:47:22.000Z</time>
      </trkpt>
      <trkpt lat="46.40623" lon="-1.55419">
        <ele>53.70342</ele>
        <time>2022-05-14T15:47:24.000Z</time>
      </trkpt>
      <trkpt lat="46.40624" lon="-1.55423">
        <ele>53.74191</ele>
        <time>2022-05-14T15:47:27.000Z</time>
      </trkpt>
      <trkpt lat="46.40626" lon="-1.55426">
        <ele>53.74821</ele>
        <time>2022-05-14T15:47:29.000Z</time>
      </trkpt>
      <trkpt lat="46.40627" lon="-1.55429">
        <ele>53.75139</ele>
        <time>2022-05-14T15:47:31.000Z</time>
      </trkpt>
      <trkpt lat="46.40628" lon="-1.55432">
        <ele>53.81556</ele>
        <time>2022-05-14T15:47:33.000Z</time>
      </trkpt>
      <trkpt lat="46.40629" lon="-1.55435">
        <ele>53.82278</ele>
        <time>2022-05-14T15:47:35.000Z</time>
      </trkpt>
      <trkpt lat="46.4063" lon="-1.55438">
        <ele>53.89082</ele>
        <time>2022-05-14T15:47:37.000Z</time>
      </trkpt>
      <trkpt lat="46.40631" lon="-1.55441">
        <ele>53.82153</ele>
        <time>2022-05-14T15:47:39.000Z</time>
      </trkpt>
      <trkpt lat="46.40632" lon="-1.55444">
        <ele>53.71045</ele>
        <time>2022-05-14T15:47:41.000Z</time>
      </trkpt>
      <trkpt lat="46.40633" lon="-1.55447">
        <ele>53.63068</ele>
        <time>2022-05-14T15:47:43.000Z</time>
      </trkpt>
      <trkpt lat="46.40633" lon="-1.55451">
        <ele>53.56041</ele>
        <time>2022-05-14T15:47:47.000Z</time>
      </trkpt>
      <trkpt lat="46.40634" lon="-1.55454">
        <ele>53.50124</ele>
        <time>2022-05-14T15:47:49.000Z</time>
      </trkpt>
      <trkpt lat="46.40635" lon="-1.55457">
        <ele>53.46572</ele>
        <time>2022-05-14T15:47:52.000Z</time>
      </trkpt>
      <trkpt lat="46.40636" lon="-1.5546">
        <ele>53.38835</ele>
        <time>2022-05-14T15:47:54.000Z</time>
      </trkpt>
      <trkpt lat="46.40636" lon="-1.55463">
        <ele>53.31847</ele>
        <time>2022-05-14T15:47:57.000Z</time>
      </trkpt>
      <trkpt lat="46.40637" lon="-1.55467">
        <ele>53.2224</ele>
        <time>2022-05-14T15:48:00.000Z</time>
      </trkpt>
      <trkpt lat="46.40637" lon="-1.55471">
        <ele>53.2083</ele>
        <time>2022-05-14T15:48:02.000Z</time>
      </trkpt>
      <trkpt lat="46.40638" lon="-1.55473">
        <ele>53.16437</ele>
        <time>2022-05-14T15:48:05.000Z</time>
      </trkpt>
      <trkpt lat="46.40639" lon="-1.55477">
        <ele>53.2394</ele>
        <time>2022-05-14T15:48:08.000Z</time>
      </trkpt>
      <trkpt lat="46.40639" lon="-1.5548">
        <ele>53.37888</ele>
        <time>2022-05-14T15:48:11.000Z</time>
      </trkpt>
      <trkpt lat="46.40639" lon="-1.55483">
        <ele>53.50502</ele>
        <time>2022-05-14T15:48:14.000Z</time>
      </trkpt>
      <trkpt lat="46.4064" lon="-1.55486">
        <ele>53.65717</ele>
        <time>2022-05-14T15:48:18.000Z</time>
      </trkpt>
      <trkpt lat="46.4064" lon="-1.55489">
        <ele>53.77666</ele>
        <time>2022-05-14T15:48:21.000Z</time>
      </trkpt>
      <trkpt lat="46.40641" lon="-1.55492">
        <ele>53.83927</ele>
        <time>2022-05-14T15:48:23.000Z</time>
      </trkpt>
      <trkpt lat="46.40641" lon="-1.55495">
        <ele>53.90948</ele>
        <time>2022-05-14T15:48:26.000Z</time>
      </trkpt>
      <trkpt lat="46.40641" lon="-1.55499">
        <ele>54.02354</ele>
        <time>2022-05-14T15:48:29.000Z</time>
      </trkpt>
      <trkpt lat="46.40641" lon="-1.55502">
        <ele>54.08993</ele>
        <time>2022-05-14T15:48:31.000Z</time>
      </trkpt>
      <trkpt lat="46.40641" lon="-1.55504">
        <ele>54.1585</ele>
        <time>2022-05-14T15:48:33.000Z</time>
      </trkpt>
      <trkpt lat="46.40641" lon="-1.55507">
        <ele>54.2555</ele>
        <time>2022-05-14T15:48:35.000Z</time>
      </trkpt>
      <trkpt lat="46.40642" lon="-1.55511">
        <ele>54.37588</ele>
        <time>2022-05-14T15:48:38.000Z</time>
      </trkpt>
      <trkpt lat="46.40643" lon="-1.55514">
        <ele>54.52166</ele>
        <time>2022-05-14T15:48:40.000Z</time>
      </trkpt>
      <trkpt lat="46.40643" lon="-1.55517">
        <ele>54.64748</ele>
        <time>2022-05-14T15:48:42.000Z</time>
      </trkpt>
      <trkpt lat="46.40644" lon="-1.5552">
        <ele>54.82113</ele>
        <time>2022-05-14T15:48:44.000Z</time>
      </trkpt>
      <trkpt lat="46.40645" lon="-1.55522">
        <ele>54.97459</ele>
        <time>2022-05-14T15:48:46.000Z</time>
      </trkpt>
      <trkpt lat="46.40646" lon="-1.55525">
        <ele>55.09564</ele>
        <time>2022-05-14T15:48:48.000Z</time>
      </trkpt>
      <trkpt lat="46.40647" lon="-1.55528">
        <ele>55.20383</ele>
        <time>2022-05-14T15:48:50.000Z</time>
      </trkpt>
      <trkpt lat="46.40648" lon="-1.55531">
        <ele>55.2833</ele>
        <time>2022-05-14T15:48:52.000Z</time>
      </trkpt>
      <trkpt lat="46.40648" lon="-1.55534">
        <ele>55.45518</ele>
        <time>2022-05-14T15:48:54.000Z</time>
      </trkpt>
      <trkpt lat="46.40648" lon="-1.55536">
        <ele>55.52717</ele>
        <time>2022-05-14T15:48:56.000Z</time>
      </trkpt>
      <trkpt lat="46.40649" lon="-1.5554">
        <ele>55.55892</ele>
        <time>2022-05-14T15:48:59.000Z</time>
      </trkpt>
      <trkpt lat="46.40649" lon="-1.55543">
        <ele>55.50956</ele>
        <time>2022-05-14T15:49:01.000Z</time>
      </trkpt>
      <trkpt lat="46.4065" lon="-1.55546">
        <ele>55.44154</ele>
        <time>2022-05-14T15:49:03.000Z</time>
      </trkpt>
      <trkpt lat="46.4065" lon="-1.55549">
        <ele>55.40553</ele>
        <time>2022-05-14T15:49:05.000Z</time>
      </trkpt>
      <trkpt lat="46.4065" lon="-1.55552">
        <ele>55.36437</ele>
        <time>2022-05-14T15:49:07.000Z</time>
      </trkpt>
      <trkpt lat="46.4065" lon="-1.55556">
        <ele>55.2819</ele>
        <time>2022-05-14T15:49:10.000Z</time>
      </trkpt>
      <trkpt lat="46.40651" lon="-1.55558">
        <ele>55.15507</ele>
        <time>2022-05-14T15:49:12.000Z</time>
      </trkpt>
      <trkpt lat="46.40651" lon="-1.55561">
        <ele>55.00571</ele>
        <time>2022-05-14T15:49:14.000Z</time>
      </trkpt>
      <trkpt lat="46.40652" lon="-1.55564">
        <ele>54.85407</ele>
        <time>2022-05-14T15:49:16.000Z</time>
      </trkpt>
      <trkpt lat="46.40652" lon="-1.55566">
        <ele>54.65445</ele>
        <time>2022-05-14T15:49:18.000Z</time>
      </trkpt>
      <trkpt lat="46.40652" lon="-1.5557">
        <ele>54.41987</ele>
        <time>2022-05-14T15:49:20.000Z</time>
      </trkpt>
      <trkpt lat="46.40652" lon="-1.55572">
        <ele>54.16664</ele>
        <time>2022-05-14T15:49:22.000Z</time>
      </trkpt>
      <trkpt lat="46.40653" lon="-1.55575">
        <ele>53.87501</ele>
        <time>2022-05-14T15:49:24.000Z</time>
      </trkpt>
      <trkpt lat="46.40653" lon="-1.55578">
        <ele>53.601</ele>
        <time>2022-05-14T15:49:26.000Z</time>
      </trkpt>
      <trkpt lat="46.40653" lon="-1.55581">
        <ele>53.31738</ele>
        <time>2022-05-14T15:49:28.000Z</time>
      </trkpt>
      <trkpt lat="46.40653" lon="-1.55584">
        <ele>53.06555</ele>
        <time>2022-05-14T15:49:30.000Z</time>
      </trkpt>
      <trkpt lat="46.40653" lon="-1.55587">
        <ele>52.84354</ele>
        <time>2022-05-14T15:49:32.000Z</time>
      </trkpt>
      <trkpt lat="46.40653" lon="-1.5559">
        <ele>52.61</ele>
        <time>2022-05-14T15:49:34.000Z</time>
      </trkpt>
      <trkpt lat="46.40653" lon="-1.55594">
        <ele>52.38203</ele>
        <time>2022-05-14T15:49:37.000Z</time>
      </trkpt>
      <trkpt lat="46.40654" lon="-1.55597">
        <ele>52.14348</ele>
        <time>2022-05-14T15:49:39.000Z</time>
      </trkpt>
      <trkpt lat="46.40654" lon="-1.55601">
        <ele>51.89513</ele>
        <time>2022-05-14T15:49:41.000Z</time>
      </trkpt>
      <trkpt lat="46.40655" lon="-1.55604">
        <ele>51.6623</ele>
        <time>2022-05-14T15:49:43.000Z</time>
      </trkpt>
      <trkpt lat="46.40655" lon="-1.55607">
        <ele>51.5402</ele>
        <time>2022-05-14T15:49:45.000Z</time>
      </trkpt>
      <trkpt lat="46.40655" lon="-1.55604">
        <ele>51.37037</ele>
        <time>2022-05-14T15:49:51.000Z</time>
      </trkpt>
      <trkpt lat="46.40656" lon="-1.55607">
        <ele>51.24405</ele>
        <time>2022-05-14T15:50:06.000Z</time>
      </trkpt>
      <trkpt lat="46.40657" lon="-1.5561">
        <ele>51.13971</ele>
        <time>2022-05-14T15:50:08.000Z</time>
      </trkpt>
      <trkpt lat="46.40658" lon="-1.55614">
        <ele>51.03522</ele>
        <time>2022-05-14T15:50:10.000Z</time>
      </trkpt>
      <trkpt lat="46.40658" lon="-1.55617">
        <ele>50.97018</ele>
        <time>2022-05-14T15:50:12.000Z</time>
      </trkpt>
      <trkpt lat="46.40659" lon="-1.5562">
        <ele>50.90673</ele>
        <time>2022-05-14T15:50:14.000Z</time>
      </trkpt>
      <trkpt lat="46.4066" lon="-1.55618">
        <ele>50.91578</ele>
        <time>2022-05-14T15:50:20.000Z</time>
      </trkpt>
      <trkpt lat="46.4066" lon="-1.55622">
        <ele>50.96056</ele>
        <time>2022-05-14T15:50:46.000Z</time>
      </trkpt>
      <trkpt lat="46.4066" lon="-1.55624">
        <ele>50.96803</ele>
        <time>2022-05-14T15:51:02.000Z</time>
      </trkpt>
      <trkpt lat="46.40659" lon="-1.55627">
        <ele>51.01226</ele>
        <time>2022-05-14T15:51:05.000Z</time>
      </trkpt>
      <trkpt lat="46.40659" lon="-1.5563">
        <ele>50.99441</ele>
        <time>2022-05-14T15:51:07.000Z</time>
      </trkpt>
      <trkpt lat="46.40659" lon="-1.55632">
        <ele>50.98503</ele>
        <time>2022-05-14T15:51:09.000Z</time>
      </trkpt>
      <trkpt lat="46.40659" lon="-1.55635">
        <ele>50.95757</ele>
        <time>2022-05-14T15:51:11.000Z</time>
      </trkpt>
      <trkpt lat="46.40659" lon="-1.55638">
        <ele>50.89318</ele>
        <time>2022-05-14T15:51:13.000Z</time>
      </trkpt>
      <trkpt lat="46.4066" lon="-1.55642">
        <ele>50.79115</ele>
        <time>2022-05-14T15:51:15.000Z</time>
      </trkpt>
      <trkpt lat="46.4066" lon="-1.55645">
        <ele>50.624</ele>
        <time>2022-05-14T15:51:17.000Z</time>
      </trkpt>
      <trkpt lat="46.4066" lon="-1.55649">
        <ele>50.45638</ele>
        <time>2022-05-14T15:51:19.000Z</time>
      </trkpt>
      <trkpt lat="46.4066" lon="-1.55652">
        <ele>50.32437</ele>
        <time>2022-05-14T15:51:21.000Z</time>
      </trkpt>
      <trkpt lat="46.40661" lon="-1.55654">
        <ele>50.23558</ele>
        <time>2022-05-14T15:51:23.000Z</time>
      </trkpt>
      <trkpt lat="46.40662" lon="-1.55657">
        <ele>50.18261</ele>
        <time>2022-05-14T15:51:25.000Z</time>
      </trkpt>
      <trkpt lat="46.40662" lon="-1.5566">
        <ele>50.17187</ele>
        <time>2022-05-14T15:51:27.000Z</time>
      </trkpt>
      <trkpt lat="46.40662" lon="-1.55663">
        <ele>50.13913</ele>
        <time>2022-05-14T15:51:29.000Z</time>
      </trkpt>
      <trkpt lat="46.40662" lon="-1.55666">
        <ele>50.11893</ele>
        <time>2022-05-14T15:51:31.000Z</time>
      </trkpt>
      <trkpt lat="46.40662" lon="-1.55669">
        <ele>50.07063</ele>
        <time>2022-05-14T15:51:33.000Z</time>
      </trkpt>
      <trkpt lat="46.40662" lon="-1.55672">
        <ele>50.05451</ele>
        <time>2022-05-14T15:51:35.000Z</time>
      </trkpt>
      <trkpt lat="46.40663" lon="-1.55674">
        <ele>50.10606</ele>
        <time>2022-05-14T15:51:37.000Z</time>
      </trkpt>
      <trkpt lat="46.40664" lon="-1.55678">
        <ele>50.12194</ele>
        <time>2022-05-14T15:51:40.000Z</time>
      </trkpt>
      <trkpt lat="46.40664" lon="-1.55681">
        <ele>50.13997</ele>
        <time>2022-05-14T15:51:42.000Z</time>
      </trkpt>
      <trkpt lat="46.40664" lon="-1.55685">
        <ele>50.19859</ele>
        <time>2022-05-14T15:51:44.000Z</time>
      </trkpt>
      <trkpt lat="46.40665" lon="-1.55688">
        <ele>50.28184</ele>
        <time>2022-05-14T15:51:46.000Z</time>
      </trkpt>
      <trkpt lat="46.40665" lon="-1.55691">
        <ele>50.36907</ele>
        <time>2022-05-14T15:51:48.000Z</time>
      </trkpt>
      <trkpt lat="46.40666" lon="-1.55694">
        <ele>50.50459</ele>
        <time>2022-05-14T15:51:50.000Z</time>
      </trkpt>
      <trkpt lat="46.40666" lon="-1.55696">
        <ele>50.67974</ele>
        <time>2022-05-14T15:51:52.000Z</time>
      </trkpt>
      <trkpt lat="46.40666" lon="-1.557">
        <ele>50.85249</ele>
        <time>2022-05-14T15:51:55.000Z</time>
      </trkpt>
      <trkpt lat="46.40667" lon="-1.55703">
        <ele>51.06087</ele>
        <time>2022-05-14T15:51:58.000Z</time>
      </trkpt>
      <trkpt lat="46.40667" lon="-1.55706">
        <ele>51.25683</ele>
        <time>2022-05-14T15:52:01.000Z</time>
      </trkpt>
      <trkpt lat="46.40667" lon="-1.55709">
        <ele>51.47737</ele>
        <time>2022-05-14T15:52:03.000Z</time>
      </trkpt>
      <trkpt lat="46.40667" lon="-1.55712">
        <ele>51.64327</ele>
        <time>2022-05-14T15:52:05.000Z</time>
      </trkpt>
      <trkpt lat="46.40668" lon="-1.55715">
        <ele>51.79125</ele>
        <time>2022-05-14T15:52:07.000Z</time>
      </trkpt>
      <trkpt lat="46.40668" lon="-1.55718">
        <ele>51.77916</ele>
        <time>2022-05-14T15:52:09.000Z</time>
      </trkpt>
      <trkpt lat="46.40669" lon="-1.55721">
        <ele>51.81656</ele>
        <time>2022-05-14T15:52:11.000Z</time>
      </trkpt>
      <trkpt lat="46.40669" lon="-1.55725">
        <ele>51.90105</ele>
        <time>2022-05-14T15:52:14.000Z</time>
      </trkpt>
      <trkpt lat="46.40669" lon="-1.55728">
        <ele>51.9769</ele>
        <time>2022-05-14T15:52:16.000Z</time>
      </trkpt>
      <trkpt lat="46.40669" lon="-1.55732">
        <ele>52.08569</ele>
        <time>2022-05-14T15:52:19.000Z</time>
      </trkpt>
      <trkpt lat="46.4067" lon="-1.55735">
        <ele>52.18837</ele>
        <time>2022-05-14T15:52:22.000Z</time>
      </trkpt>
      <trkpt lat="46.40671" lon="-1.55738">
        <ele>52.26169</ele>
        <time>2022-05-14T15:52:24.000Z</time>
      </trkpt>
      <trkpt lat="46.40671" lon="-1.5574">
        <ele>52.32444</ele>
        <time>2022-05-14T15:52:26.000Z</time>
      </trkpt>
      <trkpt lat="46.40671" lon="-1.55744">
        <ele>52.37276</ele>
        <time>2022-05-14T15:52:29.000Z</time>
      </trkpt>
      <trkpt lat="46.40672" lon="-1.55747">
        <ele>52.45382</ele>
        <time>2022-05-14T15:52:31.000Z</time>
      </trkpt>
      <trkpt lat="46.40672" lon="-1.5575">
        <ele>52.48561</ele>
        <time>2022-05-14T15:52:34.000Z</time>
      </trkpt>
      <trkpt lat="46.40673" lon="-1.55754">
        <ele>52.50343</ele>
        <time>2022-05-14T15:52:37.000Z</time>
      </trkpt>
      <trkpt lat="46.40673" lon="-1.55757">
        <ele>52.46627</ele>
        <time>2022-05-14T15:52:40.000Z</time>
      </trkpt>
      <trkpt lat="46.40673" lon="-1.5576">
        <ele>52.37693</ele>
        <time>2022-05-14T15:52:43.000Z</time>
      </trkpt>
      <trkpt lat="46.40674" lon="-1.55763">
        <ele>52.30274</ele>
        <time>2022-05-14T15:52:45.000Z</time>
      </trkpt>
      <trkpt lat="46.40674" lon="-1.55766">
        <ele>52.273</ele>
        <time>2022-05-14T15:52:47.000Z</time>
      </trkpt>
      <trkpt lat="46.40675" lon="-1.55769">
        <ele>52.26351</ele>
        <time>2022-05-14T15:52:50.000Z</time>
      </trkpt>
      <trkpt lat="46.40676" lon="-1.55773">
        <ele>52.25906</ele>
        <time>2022-05-14T15:52:53.000Z</time>
      </trkpt>
      <trkpt lat="46.40676" lon="-1.55776">
        <ele>52.33125</ele>
        <time>2022-05-14T15:52:55.000Z</time>
      </trkpt>
      <trkpt lat="46.40677" lon="-1.55779">
        <ele>52.42725</ele>
        <time>2022-05-14T15:52:58.000Z</time>
      </trkpt>
      <trkpt lat="46.40677" lon="-1.55782">
        <ele>52.57723</ele>
        <time>2022-05-14T15:53:00.000Z</time>
      </trkpt>
      <trkpt lat="46.40678" lon="-1.55784">
        <ele>52.71339</ele>
        <time>2022-05-14T15:53:02.000Z</time>
      </trkpt>
      <trkpt lat="46.40679" lon="-1.55787">
        <ele>52.81868</ele>
        <time>2022-05-14T15:53:04.000Z</time>
      </trkpt>
      <trkpt lat="46.40679" lon="-1.55789">
        <ele>52.9262</ele>
        <time>2022-05-14T15:53:06.000Z</time>
      </trkpt>
      <trkpt lat="46.40679" lon="-1.55792">
        <ele>53.03712</ele>
        <time>2022-05-14T15:53:08.000Z</time>
      </trkpt>
      <trkpt lat="46.4068" lon="-1.55795">
        <ele>53.14609</ele>
        <time>2022-05-14T15:53:10.000Z</time>
      </trkpt>
      <trkpt lat="46.40681" lon="-1.55798">
        <ele>53.21309</ele>
        <time>2022-05-14T15:53:13.000Z</time>
      </trkpt>
      <trkpt lat="46.40682" lon="-1.558">
        <ele>53.34285</ele>
        <time>2022-05-14T15:53:17.000Z</time>
      </trkpt>
      <trkpt lat="46.40683" lon="-1.55803">
        <ele>53.38593</ele>
        <time>2022-05-14T15:53:21.000Z</time>
      </trkpt>
      <trkpt lat="46.40684" lon="-1.55806">
        <ele>53.44706</ele>
        <time>2022-05-14T15:53:24.000Z</time>
      </trkpt>
      <trkpt lat="46.40685" lon="-1.55809">
        <ele>53.50771</ele>
        <time>2022-05-14T15:53:27.000Z</time>
      </trkpt>
      <trkpt lat="46.40686" lon="-1.55812">
        <ele>53.5779</ele>
        <time>2022-05-14T15:53:31.000Z</time>
      </trkpt>
      <trkpt lat="46.40686" lon="-1.55815">
        <ele>53.64634</ele>
        <time>2022-05-14T15:53:34.000Z</time>
      </trkpt>
      <trkpt lat="46.40687" lon="-1.55818">
        <ele>53.74315</ele>
        <time>2022-05-14T15:53:37.000Z</time>
      </trkpt>
      <trkpt lat="46.40688" lon="-1.55821">
        <ele>53.84544</ele>
        <time>2022-05-14T15:53:39.000Z</time>
      </trkpt>
      <trkpt lat="46.40689" lon="-1.55824">
        <ele>53.91623</ele>
        <time>2022-05-14T15:53:42.000Z</time>
      </trkpt>
      <trkpt lat="46.4069" lon="-1.55827">
        <ele>53.95087</ele>
        <time>2022-05-14T15:53:44.000Z</time>
      </trkpt>
      <trkpt lat="46.40691" lon="-1.5583">
        <ele>53.98534</ele>
        <time>2022-05-14T15:53:46.000Z</time>
      </trkpt>
      <trkpt lat="46.40692" lon="-1.55833">
        <ele>53.94878</ele>
        <time>2022-05-14T15:53:48.000Z</time>
      </trkpt>
      <trkpt lat="46.40693" lon="-1.55836">
        <ele>53.86924</ele>
        <time>2022-05-14T15:53:51.000Z</time>
      </trkpt>
      <trkpt lat="46.40694" lon="-1.55839">
        <ele>53.77838</ele>
        <time>2022-05-14T15:53:53.000Z</time>
      </trkpt>
      <trkpt lat="46.40695" lon="-1.55842">
        <ele>53.64376</ele>
        <time>2022-05-14T15:53:55.000Z</time>
      </trkpt>
      <trkpt lat="46.40696" lon="-1.55846">
        <ele>53.47878</ele>
        <time>2022-05-14T15:53:58.000Z</time>
      </trkpt>
      <trkpt lat="46.40697" lon="-1.55848">
        <ele>53.32389</ele>
        <time>2022-05-14T15:54:00.000Z</time>
      </trkpt>
      <trkpt lat="46.40698" lon="-1.55851">
        <ele>53.08026</ele>
        <time>2022-05-14T15:54:02.000Z</time>
      </trkpt>
      <trkpt lat="46.407" lon="-1.55852">
        <ele>52.75353</ele>
        <time>2022-05-14T15:54:05.000Z</time>
      </trkpt>
      <trkpt lat="46.40701" lon="-1.55855">
        <ele>52.44031</ele>
        <time>2022-05-14T15:54:09.000Z</time>
      </trkpt>
      <trkpt lat="46.40702" lon="-1.55857">
        <ele>52.03653</ele>
        <time>2022-05-14T15:54:11.000Z</time>
      </trkpt>
      <trkpt lat="46.40703" lon="-1.5586">
        <ele>51.70006</ele>
        <time>2022-05-14T15:54:13.000Z</time>
      </trkpt>
      <trkpt lat="46.40703" lon="-1.55863">
        <ele>51.31269</ele>
        <time>2022-05-14T15:54:15.000Z</time>
      </trkpt>
      <trkpt lat="46.40703" lon="-1.55866">
        <ele>50.94639</ele>
        <time>2022-05-14T15:54:17.000Z</time>
      </trkpt>
      <trkpt lat="46.40703" lon="-1.55869">
        <ele>50.55388</ele>
        <time>2022-05-14T15:54:19.000Z</time>
      </trkpt>
      <trkpt lat="46.40704" lon="-1.55872">
        <ele>50.18099</ele>
        <time>2022-05-14T15:54:21.000Z</time>
      </trkpt>
      <trkpt lat="46.40704" lon="-1.55875">
        <ele>49.849</ele>
        <time>2022-05-14T15:54:24.000Z</time>
      </trkpt>
      <trkpt lat="46.40704" lon="-1.55878">
        <ele>49.53942</ele>
        <time>2022-05-14T15:54:26.000Z</time>
      </trkpt>
      <trkpt lat="46.40704" lon="-1.55881">
        <ele>49.29848</ele>
        <time>2022-05-14T15:54:28.000Z</time>
      </trkpt>
      <trkpt lat="46.40703" lon="-1.55884">
        <ele>49.12682</ele>
        <time>2022-05-14T15:54:30.000Z</time>
      </trkpt>
      <trkpt lat="46.40703" lon="-1.55887">
        <ele>48.9535</ele>
        <time>2022-05-14T15:54:32.000Z</time>
      </trkpt>
      <trkpt lat="46.40702" lon="-1.55891">
        <ele>48.77738</ele>
        <time>2022-05-14T15:54:34.000Z</time>
      </trkpt>
      <trkpt lat="46.40702" lon="-1.55894">
        <ele>48.65438</ele>
        <time>2022-05-14T15:54:36.000Z</time>
      </trkpt>
      <trkpt lat="46.40702" lon="-1.55897">
        <ele>48.55559</ele>
        <time>2022-05-14T15:54:38.000Z</time>
      </trkpt>
      <trkpt lat="46.40701" lon="-1.55901">
        <ele>48.40464</ele>
        <time>2022-05-14T15:54:43.000Z</time>
      </trkpt>
      <trkpt lat="46.40702" lon="-1.55904">
        <ele>48.28396</ele>
        <time>2022-05-14T15:54:45.000Z</time>
      </trkpt>
      <trkpt lat="46.40702" lon="-1.55907">
        <ele>48.19637</ele>
        <time>2022-05-14T15:54:48.000Z</time>
      </trkpt>
      <trkpt lat="46.40702" lon="-1.5591">
        <ele>48.25439</ele>
        <time>2022-05-14T15:54:50.000Z</time>
      </trkpt>
      <trkpt lat="46.40701" lon="-1.55912">
        <ele>48.3733</ele>
        <time>2022-05-14T15:54:52.000Z</time>
      </trkpt>
      <trkpt lat="46.40701" lon="-1.55915">
        <ele>48.51511</ele>
        <time>2022-05-14T15:54:56.000Z</time>
      </trkpt>
      <trkpt lat="46.40699" lon="-1.55917">
        <ele>48.95218</ele>
        <time>2022-05-14T15:55:08.000Z</time>
      </trkpt>
      <trkpt lat="46.40698" lon="-1.55919">
        <ele>49.38538</ele>
        <time>2022-05-14T15:55:10.000Z</time>
      </trkpt>
      <trkpt lat="46.40696" lon="-1.55922">
        <ele>49.72232</ele>
        <time>2022-05-14T15:55:13.000Z</time>
      </trkpt>
      <trkpt lat="46.40695" lon="-1.55924">
        <ele>50.05647</ele>
        <time>2022-05-14T15:55:17.000Z</time>
      </trkpt>
      <trkpt lat="46.40694" lon="-1.55925">
        <ele>50.31597</ele>
        <time>2022-05-14T15:55:27.000Z</time>
      </trkpt>
      <trkpt lat="46.40692" lon="-1.55927">
        <ele>50.50792</ele>
        <time>2022-05-14T15:55:41.000Z</time>
      </trkpt>
      <trkpt lat="46.4069" lon="-1.55927">
        <ele>50.7318</ele>
        <time>2022-05-14T15:55:46.000Z</time>
      </trkpt>
      <trkpt lat="46.4069" lon="-1.55925">
        <ele>51.07667</ele>
        <time>2022-05-14T15:55:54.000Z</time>
      </trkpt>
      <trkpt lat="46.40691" lon="-1.55926">
        <ele>51.29305</ele>
        <time>2022-05-14T15:55:59.000Z</time>
      </trkpt>
      <trkpt lat="46.40693" lon="-1.55927">
        <ele>51.42656</ele>
        <time>2022-05-14T15:56:02.000Z</time>
      </trkpt>
      <trkpt lat="46.40695" lon="-1.55926">
        <ele>51.51595</ele>
        <time>2022-05-14T15:56:07.000Z</time>
      </trkpt>
      <trkpt lat="46.40696" lon="-1.55929">
        <ele>51.46887</ele>
        <time>2022-05-14T15:57:35.000Z</time>
      </trkpt>
      <trkpt lat="46.40696" lon="-1.55931">
        <ele>51.36869</ele>
        <time>2022-05-14T15:57:40.000Z</time>
      </trkpt>
      <trkpt lat="46.40697" lon="-1.55929">
        <ele>51.21052</ele>
        <time>2022-05-14T15:58:53.000Z</time>
      </trkpt>
      <trkpt lat="46.40695" lon="-1.55931">
        <ele>51.08974</ele>
        <time>2022-05-14T16:00:33.000Z</time>
      </trkpt>
      <trkpt lat="46.40694" lon="-1.5593">
        <ele>51.03304</ele>
        <time>2022-05-14T16:00:42.000Z</time>
      </trkpt>
      <trkpt lat="46.40693" lon="-1.55933">
        <ele>51.05344</ele>
        <time>2022-05-14T16:00:53.000Z</time>
      </trkpt>
      <trkpt lat="46.40691" lon="-1.55935">
        <ele>50.90289</ele>
        <time>2022-05-14T16:01:02.000Z</time>
      </trkpt>
      <trkpt lat="46.40689" lon="-1.55939">
        <ele>50.87004</ele>
        <time>2022-05-14T16:01:04.000Z</time>
      </trkpt>
      <trkpt lat="46.40688" lon="-1.55942">
        <ele>50.85531</ele>
        <time>2022-05-14T16:01:06.000Z</time>
      </trkpt>
      <trkpt lat="46.40687" lon="-1.55945">
        <ele>50.66507</ele>
        <time>2022-05-14T16:01:08.000Z</time>
      </trkpt>
      <trkpt lat="46.40686" lon="-1.55947">
        <ele>50.46794</ele>
        <time>2022-05-14T16:01:10.000Z</time>
      </trkpt>
      <trkpt lat="46.40684" lon="-1.55948">
        <ele>50.37419</ele>
        <time>2022-05-14T16:01:11.000Z</time>
      </trkpt>
      <trkpt lat="46.40682" lon="-1.55949">
        <ele>50.40736</ele>
        <time>2022-05-14T16:01:12.000Z</time>
      </trkpt>
      <trkpt lat="46.40681" lon="-1.55951">
        <ele>50.52627</ele>
        <time>2022-05-14T16:01:14.000Z</time>
      </trkpt>
      <trkpt lat="46.40679" lon="-1.55954">
        <ele>50.75992</ele>
        <time>2022-05-14T16:01:16.000Z</time>
      </trkpt>
      <trkpt lat="46.40678" lon="-1.55958">
        <ele>50.93618</ele>
        <time>2022-05-14T16:01:18.000Z</time>
      </trkpt>
      <trkpt lat="46.40679" lon="-1.55962">
        <ele>51.00465</ele>
        <time>2022-05-14T16:01:20.000Z</time>
      </trkpt>
      <trkpt lat="46.40678" lon="-1.55965">
        <ele>51.08933</ele>
        <time>2022-05-14T16:01:22.000Z</time>
      </trkpt>
      <trkpt lat="46.40678" lon="-1.55968">
        <ele>51.25945</ele>
        <time>2022-05-14T16:01:24.000Z</time>
      </trkpt>
      <trkpt lat="46.40677" lon="-1.55972">
        <ele>51.433</ele>
        <time>2022-05-14T16:01:26.000Z</time>
      </trkpt>
      <trkpt lat="46.40676" lon="-1.55975">
        <ele>51.78082</ele>
        <time>2022-05-14T16:01:28.000Z</time>
      </trkpt>
      <trkpt lat="46.40675" lon="-1.55978">
        <ele>52.1713</ele>
        <time>2022-05-14T16:01:30.000Z</time>
      </trkpt>
      <trkpt lat="46.40674" lon="-1.55981">
        <ele>52.59801</ele>
        <time>2022-05-14T16:01:32.000Z</time>
      </trkpt>
      <trkpt lat="46.40673" lon="-1.55984">
        <ele>53.05511</ele>
        <time>2022-05-14T16:01:34.000Z</time>
      </trkpt>
      <trkpt lat="46.40672" lon="-1.55988">
        <ele>53.4479</ele>
        <time>2022-05-14T16:01:36.000Z</time>
      </trkpt>
      <trkpt lat="46.40671" lon="-1.55991">
        <ele>53.76908</ele>
        <time>2022-05-14T16:01:38.000Z</time>
      </trkpt>
      <trkpt lat="46.4067" lon="-1.55996">
        <ele>54.17804</ele>
        <time>2022-05-14T16:01:40.000Z</time>
      </trkpt>
      <trkpt lat="46.40668" lon="-1.55999">
        <ele>54.41485</ele>
        <time>2022-05-14T16:01:42.000Z</time>
      </trkpt>
      <trkpt lat="46.40667" lon="-1.56003">
        <ele>54.59278</ele>
        <time>2022-05-14T16:01:44.000Z</time>
      </trkpt>
      <trkpt lat="46.40666" lon="-1.56006">
        <ele>54.69866</ele>
        <time>2022-05-14T16:01:46.000Z</time>
      </trkpt>
      <trkpt lat="46.40666" lon="-1.56009">
        <ele>54.84801</ele>
        <time>2022-05-14T16:01:48.000Z</time>
      </trkpt>
      <trkpt lat="46.40665" lon="-1.56013">
        <ele>54.93715</ele>
        <time>2022-05-14T16:01:50.000Z</time>
      </trkpt>
      <trkpt lat="46.40666" lon="-1.56016">
        <ele>54.91044</ele>
        <time>2022-05-14T16:01:53.000Z</time>
      </trkpt>
      <trkpt lat="46.40667" lon="-1.56019">
        <ele>54.91012</ele>
        <time>2022-05-14T16:01:56.000Z</time>
      </trkpt>
      <trkpt lat="46.40666" lon="-1.56023">
        <ele>54.85101</ele>
        <time>2022-05-14T16:01:59.000Z</time>
      </trkpt>
      <trkpt lat="46.40666" lon="-1.56026">
        <ele>54.86827</ele>
        <time>2022-05-14T16:02:01.000Z</time>
      </trkpt>
      <trkpt lat="46.40666" lon="-1.5603">
        <ele>54.8759</ele>
        <time>2022-05-14T16:02:03.000Z</time>
      </trkpt>
      <trkpt lat="46.40666" lon="-1.56033">
        <ele>54.94686</ele>
        <time>2022-05-14T16:02:06.000Z</time>
      </trkpt>
      <trkpt lat="46.40665" lon="-1.56036">
        <ele>54.989</ele>
        <time>2022-05-14T16:02:08.000Z</time>
      </trkpt>
      <trkpt lat="46.40664" lon="-1.56039">
        <ele>55.03579</ele>
        <time>2022-05-14T16:02:10.000Z</time>
      </trkpt>
      <trkpt lat="46.40663" lon="-1.56042">
        <ele>55.08452</ele>
        <time>2022-05-14T16:02:12.000Z</time>
      </trkpt>
      <trkpt lat="46.40664" lon="-1.56046">
        <ele>55.08008</ele>
        <time>2022-05-14T16:02:14.000Z</time>
      </trkpt>
      <trkpt lat="46.40664" lon="-1.56048">
        <ele>54.98327</ele>
        <time>2022-05-14T16:02:16.000Z</time>
      </trkpt>
      <trkpt lat="46.40664" lon="-1.56051">
        <ele>54.85424</ele>
        <time>2022-05-14T16:02:18.000Z</time>
      </trkpt>
      <trkpt lat="46.40664" lon="-1.56054">
        <ele>54.75296</ele>
        <time>2022-05-14T16:02:20.000Z</time>
      </trkpt>
      <trkpt lat="46.40663" lon="-1.56056">
        <ele>54.563</ele>
        <time>2022-05-14T16:02:22.000Z</time>
      </trkpt>
      <trkpt lat="46.40663" lon="-1.56059">
        <ele>54.42368</ele>
        <time>2022-05-14T16:02:24.000Z</time>
      </trkpt>
      <trkpt lat="46.40663" lon="-1.56062">
        <ele>54.36876</ele>
        <time>2022-05-14T16:02:26.000Z</time>
      </trkpt>
      <trkpt lat="46.40663" lon="-1.56065">
        <ele>54.36401</ele>
        <time>2022-05-14T16:02:29.000Z</time>
      </trkpt>
      <trkpt lat="46.40662" lon="-1.56068">
        <ele>54.31784</ele>
        <time>2022-05-14T16:02:31.000Z</time>
      </trkpt>
      <trkpt lat="46.40661" lon="-1.56071">
        <ele>54.22385</ele>
        <time>2022-05-14T16:02:33.000Z</time>
      </trkpt>
      <trkpt lat="46.40661" lon="-1.56075">
        <ele>54.12239</ele>
        <time>2022-05-14T16:02:35.000Z</time>
      </trkpt>
      <trkpt lat="46.40662" lon="-1.56078">
        <ele>53.98097</ele>
        <time>2022-05-14T16:02:37.000Z</time>
      </trkpt>
      <trkpt lat="46.40662" lon="-1.56081">
        <ele>53.82709</ele>
        <time>2022-05-14T16:02:39.000Z</time>
      </trkpt>
      <trkpt lat="46.40663" lon="-1.56083">
        <ele>53.63665</ele>
        <time>2022-05-14T16:02:41.000Z</time>
      </trkpt>
      <trkpt lat="46.40663" lon="-1.56087">
        <ele>53.3678</ele>
        <time>2022-05-14T16:02:43.000Z</time>
      </trkpt>
      <trkpt lat="46.40663" lon="-1.5609">
        <ele>53.02055</ele>
        <time>2022-05-14T16:02:45.000Z</time>
      </trkpt>
      <trkpt lat="46.40663" lon="-1.56094">
        <ele>52.67753</ele>
        <time>2022-05-14T16:02:47.000Z</time>
      </trkpt>
      <trkpt lat="46.40663" lon="-1.56097">
        <ele>52.32928</ele>
        <time>2022-05-14T16:02:49.000Z</time>
      </trkpt>
      <trkpt lat="46.40664" lon="-1.561">
        <ele>51.97806</ele>
        <time>2022-05-14T16:02:51.000Z</time>
      </trkpt>
      <trkpt lat="46.40665" lon="-1.56103">
        <ele>51.67089</ele>
        <time>2022-05-14T16:02:54.000Z</time>
      </trkpt>
      <trkpt lat="46.40664" lon="-1.56107">
        <ele>51.37205</ele>
        <time>2022-05-14T16:02:56.000Z</time>
      </trkpt>
      <trkpt lat="46.40664" lon="-1.56109">
        <ele>51.14425</ele>
        <time>2022-05-14T16:02:58.000Z</time>
      </trkpt>
      <trkpt lat="46.40663" lon="-1.56112">
        <ele>51.01134</ele>
        <time>2022-05-14T16:03:00.000Z</time>
      </trkpt>
      <trkpt lat="46.40662" lon="-1.56115">
        <ele>51.03726</ele>
        <time>2022-05-14T16:03:02.000Z</time>
      </trkpt>
      <trkpt lat="46.40662" lon="-1.56118">
        <ele>51.14436</ele>
        <time>2022-05-14T16:03:04.000Z</time>
      </trkpt>
      <trkpt lat="46.40661" lon="-1.56121">
        <ele>51.14371</ele>
        <time>2022-05-14T16:03:06.000Z</time>
      </trkpt>
      <trkpt lat="46.40661" lon="-1.56123">
        <ele>51.11587</ele>
        <time>2022-05-14T16:03:08.000Z</time>
      </trkpt>
      <trkpt lat="46.4066" lon="-1.56127">
        <ele>51.12753</ele>
        <time>2022-05-14T16:03:10.000Z</time>
      </trkpt>
      <trkpt lat="46.40659" lon="-1.5613">
        <ele>51.27081</ele>
        <time>2022-05-14T16:03:12.000Z</time>
      </trkpt>
      <trkpt lat="46.40659" lon="-1.56135">
        <ele>51.49512</ele>
        <time>2022-05-14T16:03:14.000Z</time>
      </trkpt>
      <trkpt lat="46.40659" lon="-1.56139">
        <ele>51.79504</ele>
        <time>2022-05-14T16:03:16.000Z</time>
      </trkpt>
      <trkpt lat="46.40659" lon="-1.56141">
        <ele>52.08712</ele>
        <time>2022-05-14T16:03:19.000Z</time>
      </trkpt>
      <trkpt lat="46.40659" lon="-1.56145">
        <ele>52.40454</ele>
        <time>2022-05-14T16:03:22.000Z</time>
      </trkpt>
      <trkpt lat="46.40659" lon="-1.56148">
        <ele>52.71749</ele>
        <time>2022-05-14T16:03:24.000Z</time>
      </trkpt>
      <trkpt lat="46.40659" lon="-1.56153">
        <ele>52.94498</ele>
        <time>2022-05-14T16:03:26.000Z</time>
      </trkpt>
      <trkpt lat="46.40659" lon="-1.56156">
        <ele>53.23726</ele>
        <time>2022-05-14T16:03:28.000Z</time>
      </trkpt>
      <trkpt lat="46.40659" lon="-1.5616">
        <ele>53.47803</ele>
        <time>2022-05-14T16:03:30.000Z</time>
      </trkpt>
      <trkpt lat="46.40659" lon="-1.56164">
        <ele>53.76615</ele>
        <time>2022-05-14T16:03:32.000Z</time>
      </trkpt>
      <trkpt lat="46.4066" lon="-1.56168">
        <ele>54.14448</ele>
        <time>2022-05-14T16:03:34.000Z</time>
      </trkpt>
      <trkpt lat="46.40662" lon="-1.5617">
        <ele>54.33755</ele>
        <time>2022-05-14T16:03:38.000Z</time>
      </trkpt>
      <trkpt lat="46.40663" lon="-1.56173">
        <ele>54.55013</ele>
        <time>2022-05-14T16:03:41.000Z</time>
      </trkpt>
      <trkpt lat="46.40664" lon="-1.56175">
        <ele>54.83187</ele>
        <time>2022-05-14T16:03:46.000Z</time>
      </trkpt>
      <trkpt lat="46.40664" lon="-1.56178">
        <ele>55.01404</ele>
        <time>2022-05-14T16:03:48.000Z</time>
      </trkpt>
      <trkpt lat="46.40663" lon="-1.56181">
        <ele>55.03724</ele>
        <time>2022-05-14T16:03:50.000Z</time>
      </trkpt>
      <trkpt lat="46.40663" lon="-1.56184">
        <ele>55.03576</ele>
        <time>2022-05-14T16:03:52.000Z</time>
      </trkpt>
      <trkpt lat="46.40663" lon="-1.56188">
        <ele>55.08112</ele>
        <time>2022-05-14T16:03:55.000Z</time>
      </trkpt>
      <trkpt lat="46.40663" lon="-1.5619">
        <ele>55.06945</ele>
        <time>2022-05-14T16:03:57.000Z</time>
      </trkpt>
      <trkpt lat="46.40663" lon="-1.56193">
        <ele>54.98944</ele>
        <time>2022-05-14T16:03:59.000Z</time>
      </trkpt>
      <trkpt lat="46.40662" lon="-1.56197">
        <ele>54.78224</ele>
        <time>2022-05-14T16:04:02.000Z</time>
      </trkpt>
      <trkpt lat="46.40662" lon="-1.56201">
        <ele>54.5649</ele>
        <time>2022-05-14T16:04:05.000Z</time>
      </trkpt>
      <trkpt lat="46.40663" lon="-1.56203">
        <ele>54.22018</ele>
        <time>2022-05-14T16:04:09.000Z</time>
      </trkpt>
      <trkpt lat="46.40665" lon="-1.56204">
        <ele>53.91553</ele>
        <time>2022-05-14T16:04:12.000Z</time>
      </trkpt>
      <trkpt lat="46.40666" lon="-1.56207">
        <ele>53.60901</ele>
        <time>2022-05-14T16:04:15.000Z</time>
      </trkpt>
      <trkpt lat="46.40666" lon="-1.5621">
        <ele>53.30505</ele>
        <time>2022-05-14T16:04:17.000Z</time>
      </trkpt>
      <trkpt lat="46.40666" lon="-1.56214">
        <ele>53.27435</ele>
        <time>2022-05-14T16:04:19.000Z</time>
      </trkpt>
      <trkpt lat="46.40666" lon="-1.56217">
        <ele>53.14277</ele>
        <time>2022-05-14T16:04:22.000Z</time>
      </trkpt>
      <trkpt lat="46.40665" lon="-1.5622">
        <ele>53.1238</ele>
        <time>2022-05-14T16:04:24.000Z</time>
      </trkpt>
      <trkpt lat="46.40664" lon="-1.56224">
        <ele>53.13924</ele>
        <time>2022-05-14T16:04:26.000Z</time>
      </trkpt>
      <trkpt lat="46.40663" lon="-1.56228">
        <ele>53.08074</ele>
        <time>2022-05-14T16:04:28.000Z</time>
      </trkpt>
      <trkpt lat="46.40663" lon="-1.56231">
        <ele>53.12337</ele>
        <time>2022-05-14T16:04:30.000Z</time>
      </trkpt>
      <trkpt lat="46.40663" lon="-1.56235">
        <ele>53.16716</ele>
        <time>2022-05-14T16:04:32.000Z</time>
      </trkpt>
      <trkpt lat="46.40664" lon="-1.56238">
        <ele>53.14331</ele>
        <time>2022-05-14T16:04:34.000Z</time>
      </trkpt>
      <trkpt lat="46.40665" lon="-1.56241">
        <ele>53.15287</ele>
        <time>2022-05-14T16:04:36.000Z</time>
      </trkpt>
      <trkpt lat="46.40664" lon="-1.56244">
        <ele>53.21027</ele>
        <time>2022-05-14T16:04:38.000Z</time>
      </trkpt>
      <trkpt lat="46.40664" lon="-1.56247">
        <ele>53.21085</ele>
        <time>2022-05-14T16:04:40.000Z</time>
      </trkpt>
      <trkpt lat="46.40663" lon="-1.5625">
        <ele>53.26287</ele>
        <time>2022-05-14T16:04:42.000Z</time>
      </trkpt>
      <trkpt lat="46.40663" lon="-1.56253">
        <ele>53.41117</ele>
        <time>2022-05-14T16:04:44.000Z</time>
      </trkpt>
      <trkpt lat="46.40663" lon="-1.56255">
        <ele>53.51764</ele>
        <time>2022-05-14T16:04:47.000Z</time>
      </trkpt>
      <trkpt lat="46.40664" lon="-1.56259">
        <ele>53.71229</ele>
        <time>2022-05-14T16:04:50.000Z</time>
      </trkpt>
      <trkpt lat="46.40665" lon="-1.56262">
        <ele>53.84462</ele>
        <time>2022-05-14T16:04:53.000Z</time>
      </trkpt>
      <trkpt lat="46.40665" lon="-1.56265">
        <ele>54.08129</ele>
        <time>2022-05-14T16:04:55.000Z</time>
      </trkpt>
      <trkpt lat="46.40666" lon="-1.56268">
        <ele>54.33706</ele>
        <time>2022-05-14T16:04:57.000Z</time>
      </trkpt>
      <trkpt lat="46.40666" lon="-1.56271">
        <ele>54.57621</ele>
        <time>2022-05-14T16:05:00.000Z</time>
      </trkpt>
      <trkpt lat="46.40667" lon="-1.56274">
        <ele>54.88948</ele>
        <time>2022-05-14T16:05:02.000Z</time>
      </trkpt>
      <trkpt lat="46.40667" lon="-1.56277">
        <ele>54.97773</ele>
        <time>2022-05-14T16:05:04.000Z</time>
      </trkpt>
      <trkpt lat="46.40668" lon="-1.5628">
        <ele>55.1957</ele>
        <time>2022-05-14T16:05:06.000Z</time>
      </trkpt>
      <trkpt lat="46.40669" lon="-1.56283">
        <ele>55.34032</ele>
        <time>2022-05-14T16:05:08.000Z</time>
      </trkpt>
      <trkpt lat="46.40669" lon="-1.56287">
        <ele>55.42921</ele>
        <time>2022-05-14T16:05:10.000Z</time>
      </trkpt>
      <trkpt lat="46.4067" lon="-1.5629">
        <ele>55.57996</ele>
        <time>2022-05-14T16:05:12.000Z</time>
      </trkpt>
      <trkpt lat="46.40672" lon="-1.56294">
        <ele>55.75433</ele>
        <time>2022-05-14T16:05:15.000Z</time>
      </trkpt>
      <trkpt lat="46.40672" lon="-1.56296">
        <ele>55.91454</ele>
        <time>2022-05-14T16:05:18.000Z</time>
      </trkpt>
      <trkpt lat="46.40672" lon="-1.563">
        <ele>56.03398</ele>
        <time>2022-05-14T16:05:20.000Z</time>
      </trkpt>
      <trkpt lat="46.40672" lon="-1.56303">
        <ele>56.19662</ele>
        <time>2022-05-14T16:05:22.000Z</time>
      </trkpt>
      <trkpt lat="46.40673" lon="-1.56307">
        <ele>56.30022</ele>
        <time>2022-05-14T16:05:24.000Z</time>
      </trkpt>
      <trkpt lat="46.40673" lon="-1.56309">
        <ele>56.42027</ele>
        <time>2022-05-14T16:05:26.000Z</time>
      </trkpt>
      <trkpt lat="46.40674" lon="-1.56312">
        <ele>56.48553</ele>
        <time>2022-05-14T16:05:28.000Z</time>
      </trkpt>
      <trkpt lat="46.40675" lon="-1.56314">
        <ele>56.50378</ele>
        <time>2022-05-14T16:05:30.000Z</time>
      </trkpt>
      <trkpt lat="46.40676" lon="-1.56317">
        <ele>56.48649</ele>
        <time>2022-05-14T16:05:33.000Z</time>
      </trkpt>
      <trkpt lat="46.40677" lon="-1.56321">
        <ele>56.40436</ele>
        <time>2022-05-14T16:05:36.000Z</time>
      </trkpt>
      <trkpt lat="46.40677" lon="-1.56323">
        <ele>56.30753</ele>
        <time>2022-05-14T16:05:38.000Z</time>
      </trkpt>
      <trkpt lat="46.40679" lon="-1.56326">
        <ele>56.2526</ele>
        <time>2022-05-14T16:05:41.000Z</time>
      </trkpt>
      <trkpt lat="46.40679" lon="-1.5633">
        <ele>56.21836</ele>
        <time>2022-05-14T16:05:43.000Z</time>
      </trkpt>
      <trkpt lat="46.40679" lon="-1.56334">
        <ele>56.20737</ele>
        <time>2022-05-14T16:05:45.000Z</time>
      </trkpt>
      <trkpt lat="46.40678" lon="-1.56337">
        <ele>56.18513</ele>
        <time>2022-05-14T16:05:47.000Z</time>
      </trkpt>
      <trkpt lat="46.40678" lon="-1.5634">
        <ele>56.12328</ele>
        <time>2022-05-14T16:05:49.000Z</time>
      </trkpt>
      <trkpt lat="46.40678" lon="-1.56343">
        <ele>56.03089</ele>
        <time>2022-05-14T16:05:51.000Z</time>
      </trkpt>
      <trkpt lat="46.40678" lon="-1.56346">
        <ele>55.9197</ele>
        <time>2022-05-14T16:05:53.000Z</time>
      </trkpt>
      <trkpt lat="46.40677" lon="-1.56349">
        <ele>55.77595</ele>
        <time>2022-05-14T16:05:55.000Z</time>
      </trkpt>
      <trkpt lat="46.40677" lon="-1.56352">
        <ele>55.56074</ele>
        <time>2022-05-14T16:05:57.000Z</time>
      </trkpt>
      <trkpt lat="46.40677" lon="-1.56355">
        <ele>55.37767</ele>
        <time>2022-05-14T16:05:59.000Z</time>
      </trkpt>
      <trkpt lat="46.40676" lon="-1.56359">
        <ele>55.18186</ele>
        <time>2022-05-14T16:06:02.000Z</time>
      </trkpt>
      <trkpt lat="46.40675" lon="-1.56363">
        <ele>55.05132</ele>
        <time>2022-05-14T16:06:04.000Z</time>
      </trkpt>
      <trkpt lat="46.40674" lon="-1.56365">
        <ele>54.8731</ele>
        <time>2022-05-14T16:06:06.000Z</time>
      </trkpt>
      <trkpt lat="46.40675" lon="-1.56369">
        <ele>54.61183</ele>
        <time>2022-05-14T16:06:08.000Z</time>
      </trkpt>
      <trkpt lat="46.40676" lon="-1.56372">
        <ele>54.40008</ele>
        <time>2022-05-14T16:06:10.000Z</time>
      </trkpt>
      <trkpt lat="46.40677" lon="-1.56374">
        <ele>54.19953</ele>
        <time>2022-05-14T16:06:14.000Z</time>
      </trkpt>
      <trkpt lat="46.40679" lon="-1.56376">
        <ele>54.00031</ele>
        <time>2022-05-14T16:06:16.000Z</time>
      </trkpt>
      <trkpt lat="46.4068" lon="-1.56378">
        <ele>53.88823</ele>
        <time>2022-05-14T16:06:18.000Z</time>
      </trkpt>
      <trkpt lat="46.40681" lon="-1.56381">
        <ele>53.77992</ele>
        <time>2022-05-14T16:06:20.000Z</time>
      </trkpt>
      <trkpt lat="46.40682" lon="-1.56384">
        <ele>53.72409</ele>
        <time>2022-05-14T16:06:22.000Z</time>
      </trkpt>
      <trkpt lat="46.40684" lon="-1.56388">
        <ele>53.65516</ele>
        <time>2022-05-14T16:06:24.000Z</time>
      </trkpt>
      <trkpt lat="46.40685" lon="-1.56391">
        <ele>53.55176</ele>
        <time>2022-05-14T16:06:25.000Z</time>
      </trkpt>
      <trkpt lat="46.40686" lon="-1.56394">
        <ele>53.40155</ele>
        <time>2022-05-14T16:06:28.000Z</time>
      </trkpt>
      <trkpt lat="46.40687" lon="-1.56397">
        <ele>53.1829</ele>
        <time>2022-05-14T16:06:30.000Z</time>
      </trkpt>
      <trkpt lat="46.40687" lon="-1.564">
        <ele>53.07073</ele>
        <time>2022-05-14T16:06:33.000Z</time>
      </trkpt>
      <trkpt lat="46.40689" lon="-1.56404">
        <ele>53.00148</ele>
        <time>2022-05-14T16:06:36.000Z</time>
      </trkpt>
      <trkpt lat="46.40691" lon="-1.56406">
        <ele>52.97173</ele>
        <time>2022-05-14T16:06:39.000Z</time>
      </trkpt>
      <trkpt lat="46.40693" lon="-1.56408">
        <ele>52.93016</ele>
        <time>2022-05-14T16:06:42.000Z</time>
      </trkpt>
      <trkpt lat="46.40694" lon="-1.56411">
        <ele>52.96556</ele>
        <time>2022-05-14T16:06:45.000Z</time>
      </trkpt>
      <trkpt lat="46.40695" lon="-1.56414">
        <ele>52.87314</ele>
        <time>2022-05-14T16:06:50.000Z</time>
      </trkpt>
      <trkpt lat="46.40696" lon="-1.56417">
        <ele>52.90629</ele>
        <time>2022-05-14T16:06:53.000Z</time>
      </trkpt>
      <trkpt lat="46.40697" lon="-1.56419">
        <ele>52.95531</ele>
        <time>2022-05-14T16:06:56.000Z</time>
      </trkpt>
      <trkpt lat="46.40697" lon="-1.56423">
        <ele>52.999</ele>
        <time>2022-05-14T16:06:59.000Z</time>
      </trkpt>
      <trkpt lat="46.40698" lon="-1.56426">
        <ele>53.18243</ele>
        <time>2022-05-14T16:07:02.000Z</time>
      </trkpt>
      <trkpt lat="46.40699" lon="-1.56429">
        <ele>53.40075</ele>
        <time>2022-05-14T16:07:05.000Z</time>
      </trkpt>
      <trkpt lat="46.407" lon="-1.56433">
        <ele>53.65464</ele>
        <time>2022-05-14T16:07:08.000Z</time>
      </trkpt>
      <trkpt lat="46.40701" lon="-1.56436">
        <ele>53.92412</ele>
        <time>2022-05-14T16:07:10.000Z</time>
      </trkpt>
      <trkpt lat="46.40701" lon="-1.5644">
        <ele>54.20007</ele>
        <time>2022-05-14T16:07:12.000Z</time>
      </trkpt>
      <trkpt lat="46.40702" lon="-1.56443">
        <ele>54.48496</ele>
        <time>2022-05-14T16:07:14.000Z</time>
      </trkpt>
      <trkpt lat="46.40702" lon="-1.56446">
        <ele>54.70405</ele>
        <time>2022-05-14T16:07:16.000Z</time>
      </trkpt>
      <trkpt lat="46.40703" lon="-1.56449">
        <ele>54.9091</ele>
        <time>2022-05-14T16:07:19.000Z</time>
      </trkpt>
      <trkpt lat="46.40703" lon="-1.56454">
        <ele>55.09023</ele>
        <time>2022-05-14T16:07:21.000Z</time>
      </trkpt>
      <trkpt lat="46.40704" lon="-1.56457">
        <ele>55.31861</ele>
        <time>2022-05-14T16:07:23.000Z</time>
      </trkpt>
      <trkpt lat="46.40704" lon="-1.5646">
        <ele>55.60571</ele>
        <time>2022-05-14T16:07:25.000Z</time>
      </trkpt>
      <trkpt lat="46.40705" lon="-1.56464">
        <ele>55.85555</ele>
        <time>2022-05-14T16:07:27.000Z</time>
      </trkpt>
      <trkpt lat="46.40705" lon="-1.56467">
        <ele>56.07265</ele>
        <time>2022-05-14T16:07:29.000Z</time>
      </trkpt>
      <trkpt lat="46.40705" lon="-1.56469">
        <ele>56.22501</ele>
        <time>2022-05-14T16:07:31.000Z</time>
      </trkpt>
      <trkpt lat="46.40705" lon="-1.56472">
        <ele>56.45052</ele>
        <time>2022-05-14T16:07:33.000Z</time>
      </trkpt>
      <trkpt lat="46.40704" lon="-1.56476">
        <ele>56.58022</ele>
        <time>2022-05-14T16:07:35.000Z</time>
      </trkpt>
      <trkpt lat="46.40704" lon="-1.56479">
        <ele>56.81465</ele>
        <time>2022-05-14T16:07:37.000Z</time>
      </trkpt>
      <trkpt lat="46.40704" lon="-1.56482">
        <ele>56.95691</ele>
        <time>2022-05-14T16:07:39.000Z</time>
      </trkpt>
      <trkpt lat="46.40704" lon="-1.56485">
        <ele>57.08578</ele>
        <time>2022-05-14T16:07:41.000Z</time>
      </trkpt>
      <trkpt lat="46.40704" lon="-1.56488">
        <ele>57.23098</ele>
        <time>2022-05-14T16:07:43.000Z</time>
      </trkpt>
      <trkpt lat="46.40704" lon="-1.56491">
        <ele>57.32972</ele>
        <time>2022-05-14T16:07:45.000Z</time>
      </trkpt>
      <trkpt lat="46.40706" lon="-1.5649">
        <ele>57.2839</ele>
        <time>2022-05-14T16:07:49.000Z</time>
      </trkpt>
      <trkpt lat="46.40706" lon="-1.56493">
        <ele>57.19009</ele>
        <time>2022-05-14T16:07:52.000Z</time>
      </trkpt>
      <trkpt lat="46.40707" lon="-1.56496">
        <ele>57.05415</ele>
        <time>2022-05-14T16:07:54.000Z</time>
      </trkpt>
      <trkpt lat="46.40707" lon="-1.56499">
        <ele>56.87482</ele>
        <time>2022-05-14T16:07:56.000Z</time>
      </trkpt>
      <trkpt lat="46.40707" lon="-1.56502">
        <ele>56.69271</ele>
        <time>2022-05-14T16:07:58.000Z</time>
      </trkpt>
      <trkpt lat="46.40708" lon="-1.56505">
        <ele>56.57779</ele>
        <time>2022-05-14T16:08:00.000Z</time>
      </trkpt>
      <trkpt lat="46.40709" lon="-1.56509">
        <ele>56.39226</ele>
        <time>2022-05-14T16:08:02.000Z</time>
      </trkpt>
      <trkpt lat="46.4071" lon="-1.56513">
        <ele>56.28873</ele>
        <time>2022-05-14T16:08:04.000Z</time>
      </trkpt>
      <trkpt lat="46.40711" lon="-1.56515">
        <ele>56.13684</ele>
        <time>2022-05-14T16:08:06.000Z</time>
      </trkpt>
      <trkpt lat="46.40711" lon="-1.56519">
        <ele>55.96243</ele>
        <time>2022-05-14T16:08:08.000Z</time>
      </trkpt>
      <trkpt lat="46.40712" lon="-1.56522">
        <ele>55.811</ele>
        <time>2022-05-14T16:08:11.000Z</time>
      </trkpt>
      <trkpt lat="46.40712" lon="-1.56524">
        <ele>55.68116</ele>
        <time>2022-05-14T16:08:14.000Z</time>
      </trkpt>
      <trkpt lat="46.40713" lon="-1.56527">
        <ele>55.57167</ele>
        <time>2022-05-14T16:08:17.000Z</time>
      </trkpt>
      <trkpt lat="46.40713" lon="-1.5653">
        <ele>55.42006</ele>
        <time>2022-05-14T16:08:19.000Z</time>
      </trkpt>
      <trkpt lat="46.40714" lon="-1.56533">
        <ele>55.29566</ele>
        <time>2022-05-14T16:08:21.000Z</time>
      </trkpt>
      <trkpt lat="46.40715" lon="-1.56536">
        <ele>55.15018</ele>
        <time>2022-05-14T16:08:24.000Z</time>
      </trkpt>
      <trkpt lat="46.40716" lon="-1.5654">
        <ele>54.97916</ele>
        <time>2022-05-14T16:08:27.000Z</time>
      </trkpt>
      <trkpt lat="46.40716" lon="-1.56543">
        <ele>54.7603</ele>
        <time>2022-05-14T16:08:29.000Z</time>
      </trkpt>
      <trkpt lat="46.40717" lon="-1.56545">
        <ele>54.59749</ele>
        <time>2022-05-14T16:08:32.000Z</time>
      </trkpt>
      <trkpt lat="46.40718" lon="-1.56548">
        <ele>54.43391</ele>
        <time>2022-05-14T16:08:41.000Z</time>
      </trkpt>
      <trkpt lat="46.40719" lon="-1.56551">
        <ele>54.34595</ele>
        <time>2022-05-14T16:08:43.000Z</time>
      </trkpt>
      <trkpt lat="46.4072" lon="-1.56555">
        <ele>54.28041</ele>
        <time>2022-05-14T16:08:45.000Z</time>
      </trkpt>
      <trkpt lat="46.40721" lon="-1.56558">
        <ele>54.27117</ele>
        <time>2022-05-14T16:08:47.000Z</time>
      </trkpt>
      <trkpt lat="46.40722" lon="-1.56561">
        <ele>54.28647</ele>
        <time>2022-05-14T16:08:49.000Z</time>
      </trkpt>
      <trkpt lat="46.40723" lon="-1.56564">
        <ele>54.3</ele>
        <time>2022-05-14T16:08:51.000Z</time>
      </trkpt>
      <trkpt lat="46.40725" lon="-1.56567">
        <ele>54.32828</ele>
        <time>2022-05-14T16:08:54.000Z</time>
      </trkpt>
      <trkpt lat="46.40726" lon="-1.5657">
        <ele>54.38031</ele>
        <time>2022-05-14T16:08:56.000Z</time>
      </trkpt>
      <trkpt lat="46.40727" lon="-1.56574">
        <ele>54.42307</ele>
        <time>2022-05-14T16:08:58.000Z</time>
      </trkpt>
      <trkpt lat="46.40727" lon="-1.56577">
        <ele>54.47488</ele>
        <time>2022-05-14T16:09:00.000Z</time>
      </trkpt>
      <trkpt lat="46.40728" lon="-1.56581">
        <ele>54.49755</ele>
        <time>2022-05-14T16:09:02.000Z</time>
      </trkpt>
      <trkpt lat="46.40728" lon="-1.56584">
        <ele>54.50411</ele>
        <time>2022-05-14T16:09:04.000Z</time>
      </trkpt>
      <trkpt lat="46.40728" lon="-1.56587">
        <ele>54.50926</ele>
        <time>2022-05-14T16:09:06.000Z</time>
      </trkpt>
      <trkpt lat="46.40728" lon="-1.56589">
        <ele>54.56653</ele>
        <time>2022-05-14T16:09:08.000Z</time>
      </trkpt>
      <trkpt lat="46.40728" lon="-1.56592">
        <ele>54.62011</ele>
        <time>2022-05-14T16:09:10.000Z</time>
      </trkpt>
      <trkpt lat="46.40728" lon="-1.56595">
        <ele>54.60979</ele>
        <time>2022-05-14T16:09:13.000Z</time>
      </trkpt>
      <trkpt lat="46.40729" lon="-1.56598">
        <ele>54.60661</ele>
        <time>2022-05-14T16:09:15.000Z</time>
      </trkpt>
      <trkpt lat="46.40729" lon="-1.566">
        <ele>54.63889</ele>
        <time>2022-05-14T16:09:17.000Z</time>
      </trkpt>
      <trkpt lat="46.40729" lon="-1.56603">
        <ele>54.74416</ele>
        <time>2022-05-14T16:09:19.000Z</time>
      </trkpt>
      <trkpt lat="46.4073" lon="-1.56607">
        <ele>54.79631</ele>
        <time>2022-05-14T16:09:21.000Z</time>
      </trkpt>
      <trkpt lat="46.40731" lon="-1.5661">
        <ele>54.8997</ele>
        <time>2022-05-14T16:09:23.000Z</time>
      </trkpt>
      <trkpt lat="46.40732" lon="-1.56613">
        <ele>54.99783</ele>
        <time>2022-05-14T16:09:25.000Z</time>
      </trkpt>
      <trkpt lat="46.40733" lon="-1.56615">
        <ele>55.01621</ele>
        <time>2022-05-14T16:09:27.000Z</time>
      </trkpt>
      <trkpt lat="46.40734" lon="-1.56617">
        <ele>54.9682</ele>
        <time>2022-05-14T16:09:30.000Z</time>
      </trkpt>
      <trkpt lat="46.40735" lon="-1.56619">
        <ele>54.95872</ele>
        <time>2022-05-14T16:09:32.000Z</time>
      </trkpt>
      <trkpt lat="46.40736" lon="-1.56622">
        <ele>54.95205</ele>
        <time>2022-05-14T16:09:34.000Z</time>
      </trkpt>
      <trkpt lat="46.40736" lon="-1.56625">
        <ele>54.92949</ele>
        <time>2022-05-14T16:09:36.000Z</time>
      </trkpt>
      <trkpt lat="46.40737" lon="-1.56628">
        <ele>54.95693</ele>
        <time>2022-05-14T16:09:39.000Z</time>
      </trkpt>
      <trkpt lat="46.40738" lon="-1.56632">
        <ele>54.93937</ele>
        <time>2022-05-14T16:09:41.000Z</time>
      </trkpt>
      <trkpt lat="46.40738" lon="-1.56635">
        <ele>54.97313</ele>
        <time>2022-05-14T16:09:43.000Z</time>
      </trkpt>
      <trkpt lat="46.40739" lon="-1.56637">
        <ele>55.03041</ele>
        <time>2022-05-14T16:09:45.000Z</time>
      </trkpt>
      <trkpt lat="46.4074" lon="-1.5664">
        <ele>55.03273</ele>
        <time>2022-05-14T16:09:47.000Z</time>
      </trkpt>
      <trkpt lat="46.4074" lon="-1.56642">
        <ele>55.05152</ele>
        <time>2022-05-14T16:09:49.000Z</time>
      </trkpt>
      <trkpt lat="46.40742" lon="-1.56646">
        <ele>55.00355</ele>
        <time>2022-05-14T16:09:52.000Z</time>
      </trkpt>
      <trkpt lat="46.40742" lon="-1.56648">
        <ele>54.9408</ele>
        <time>2022-05-14T16:09:54.000Z</time>
      </trkpt>
      <trkpt lat="46.40743" lon="-1.56652">
        <ele>54.99756</ele>
        <time>2022-05-14T16:09:56.000Z</time>
      </trkpt>
      <trkpt lat="46.40744" lon="-1.56654">
        <ele>55.03794</ele>
        <time>2022-05-14T16:09:58.000Z</time>
      </trkpt>
      <trkpt lat="46.40745" lon="-1.56657">
        <ele>55.02901</ele>
        <time>2022-05-14T16:10:01.000Z</time>
      </trkpt>
      <trkpt lat="46.40746" lon="-1.56659">
        <ele>54.97787</ele>
        <time>2022-05-14T16:10:03.000Z</time>
      </trkpt>
      <trkpt lat="46.40746" lon="-1.56662">
        <ele>54.90508</ele>
        <time>2022-05-14T16:10:05.000Z</time>
      </trkpt>
      <trkpt lat="46.40747" lon="-1.56665">
        <ele>54.76329</ele>
        <time>2022-05-14T16:10:07.000Z</time>
      </trkpt>
      <trkpt lat="46.40748" lon="-1.56668">
        <ele>54.64108</ele>
        <time>2022-05-14T16:10:09.000Z</time>
      </trkpt>
      <trkpt lat="46.40748" lon="-1.56671">
        <ele>54.61311</ele>
        <time>2022-05-14T16:10:11.000Z</time>
      </trkpt>
      <trkpt lat="46.40749" lon="-1.56674">
        <ele>54.61951</ele>
        <time>2022-05-14T16:10:13.000Z</time>
      </trkpt>
      <trkpt lat="46.4075" lon="-1.56677">
        <ele>54.60291</ele>
        <time>2022-05-14T16:10:15.000Z</time>
      </trkpt>
      <trkpt lat="46.40751" lon="-1.5668">
        <ele>54.61338</ele>
        <time>2022-05-14T16:10:17.000Z</time>
      </trkpt>
      <trkpt lat="46.40752" lon="-1.56683">
        <ele>54.61993</ele>
        <time>2022-05-14T16:10:19.000Z</time>
      </trkpt>
      <trkpt lat="46.40753" lon="-1.56686">
        <ele>54.6217</ele>
        <time>2022-05-14T16:10:21.000Z</time>
      </trkpt>
      <trkpt lat="46.40754" lon="-1.56689">
        <ele>54.62561</ele>
        <time>2022-05-14T16:10:23.000Z</time>
      </trkpt>
      <trkpt lat="46.40755" lon="-1.56692">
        <ele>54.61163</ele>
        <time>2022-05-14T16:10:26.000Z</time>
      </trkpt>
      <trkpt lat="46.40755" lon="-1.56694">
        <ele>54.63647</ele>
        <time>2022-05-14T16:10:28.000Z</time>
      </trkpt>
      <trkpt lat="46.40756" lon="-1.56697">
        <ele>54.74665</ele>
        <time>2022-05-14T16:10:30.000Z</time>
      </trkpt>
      <trkpt lat="46.40757" lon="-1.56701">
        <ele>54.83822</ele>
        <time>2022-05-14T16:10:33.000Z</time>
      </trkpt>
      <trkpt lat="46.40757" lon="-1.56704">
        <ele>54.9861</ele>
        <time>2022-05-14T16:10:36.000Z</time>
      </trkpt>
      <trkpt lat="46.40758" lon="-1.56707">
        <ele>55.08018</ele>
        <time>2022-05-14T16:10:38.000Z</time>
      </trkpt>
      <trkpt lat="46.40758" lon="-1.56711">
        <ele>55.14134</ele>
        <time>2022-05-14T16:10:41.000Z</time>
      </trkpt>
      <trkpt lat="46.40758" lon="-1.56714">
        <ele>55.16836</ele>
        <time>2022-05-14T16:10:43.000Z</time>
      </trkpt>
      <trkpt lat="46.40758" lon="-1.56717">
        <ele>55.27623</ele>
        <time>2022-05-14T16:10:45.000Z</time>
      </trkpt>
      <trkpt lat="46.40758" lon="-1.5672">
        <ele>55.40892</ele>
        <time>2022-05-14T16:10:47.000Z</time>
      </trkpt>
      <trkpt lat="46.40759" lon="-1.56724">
        <ele>55.5864</ele>
        <time>2022-05-14T16:10:50.000Z</time>
      </trkpt>
      <trkpt lat="46.40759" lon="-1.56727">
        <ele>55.76821</ele>
        <time>2022-05-14T16:10:52.000Z</time>
      </trkpt>
      <trkpt lat="46.40759" lon="-1.5673">
        <ele>55.93592</ele>
        <time>2022-05-14T16:10:54.000Z</time>
      </trkpt>
      <trkpt lat="46.40759" lon="-1.56733">
        <ele>56.08609</ele>
        <time>2022-05-14T16:10:56.000Z</time>
      </trkpt>
      <trkpt lat="46.40759" lon="-1.56737">
        <ele>56.24226</ele>
        <time>2022-05-14T16:10:59.000Z</time>
      </trkpt>
      <trkpt lat="46.40759" lon="-1.5674">
        <ele>56.29575</ele>
        <time>2022-05-14T16:11:02.000Z</time>
      </trkpt>
      <trkpt lat="46.4076" lon="-1.56744">
        <ele>56.35117</ele>
        <time>2022-05-14T16:11:05.000Z</time>
      </trkpt>
      <trkpt lat="46.4076" lon="-1.56747">
        <ele>56.45476</ele>
        <time>2022-05-14T16:11:07.000Z</time>
      </trkpt>
      <trkpt lat="46.4076" lon="-1.5675">
        <ele>56.56779</ele>
        <time>2022-05-14T16:11:09.000Z</time>
      </trkpt>
      <trkpt lat="46.4076" lon="-1.56753">
        <ele>56.72964</ele>
        <time>2022-05-14T16:11:12.000Z</time>
      </trkpt>
      <trkpt lat="46.4076" lon="-1.56756">
        <ele>56.8728</ele>
        <time>2022-05-14T16:11:15.000Z</time>
      </trkpt>
      <trkpt lat="46.4076" lon="-1.56759">
        <ele>56.98754</ele>
        <time>2022-05-14T16:11:18.000Z</time>
      </trkpt>
      <trkpt lat="46.4076" lon="-1.56761">
        <ele>57.05338</ele>
        <time>2022-05-14T16:11:22.000Z</time>
      </trkpt>
      <trkpt lat="46.4076" lon="-1.56764">
        <ele>56.96726</ele>
        <time>2022-05-14T16:11:47.000Z</time>
      </trkpt>
      <trkpt lat="46.4076" lon="-1.56767">
        <ele>56.8214</ele>
        <time>2022-05-14T16:11:49.000Z</time>
      </trkpt>
      <trkpt lat="46.40762" lon="-1.5677">
        <ele>56.69489</ele>
        <time>2022-05-14T16:11:51.000Z</time>
      </trkpt>
      <trkpt lat="46.40763" lon="-1.56772">
        <ele>56.54852</ele>
        <time>2022-05-14T16:11:53.000Z</time>
      </trkpt>
      <trkpt lat="46.40764" lon="-1.56774">
        <ele>56.42</ele>
        <time>2022-05-14T16:11:55.000Z</time>
      </trkpt>
      <trkpt lat="46.40765" lon="-1.56777">
        <ele>56.27179</ele>
        <time>2022-05-14T16:11:57.000Z</time>
      </trkpt>
      <trkpt lat="46.40767" lon="-1.56779">
        <ele>56.0874</ele>
        <time>2022-05-14T16:11:59.000Z</time>
      </trkpt>
      <trkpt lat="46.40768" lon="-1.56782">
        <ele>55.92488</ele>
        <time>2022-05-14T16:12:02.000Z</time>
      </trkpt>
      <trkpt lat="46.4077" lon="-1.56785">
        <ele>55.68799</ele>
        <time>2022-05-14T16:12:04.000Z</time>
      </trkpt>
      <trkpt lat="46.40771" lon="-1.56788">
        <ele>55.46968</ele>
        <time>2022-05-14T16:12:06.000Z</time>
      </trkpt>
      <trkpt lat="46.40772" lon="-1.56791">
        <ele>55.2334</ele>
        <time>2022-05-14T16:12:08.000Z</time>
      </trkpt>
      <trkpt lat="46.40773" lon="-1.56793">
        <ele>55.01166</ele>
        <time>2022-05-14T16:12:10.000Z</time>
      </trkpt>
      <trkpt lat="46.40774" lon="-1.56796">
        <ele>54.89663</ele>
        <time>2022-05-14T16:12:12.000Z</time>
      </trkpt>
      <trkpt lat="46.40775" lon="-1.56799">
        <ele>54.73314</ele>
        <time>2022-05-14T16:12:14.000Z</time>
      </trkpt>
      <trkpt lat="46.40777" lon="-1.568">
        <ele>54.32883</ele>
        <time>2022-05-14T16:12:17.000Z</time>
      </trkpt>
      <trkpt lat="46.40779" lon="-1.56801">
        <ele>53.95938</ele>
        <time>2022-05-14T16:12:20.000Z</time>
      </trkpt>
      <trkpt lat="46.40781" lon="-1.56804">
        <ele>53.52088</ele>
        <time>2022-05-14T16:12:23.000Z</time>
      </trkpt>
      <trkpt lat="46.40782" lon="-1.56806">
        <ele>53.07234</ele>
        <time>2022-05-14T16:12:25.000Z</time>
      </trkpt>
      <trkpt lat="46.40783" lon="-1.56808">
        <ele>52.62832</ele>
        <time>2022-05-14T16:12:27.000Z</time>
      </trkpt>
      <trkpt lat="46.40785" lon="-1.5681">
        <ele>52.18248</ele>
        <time>2022-05-14T16:12:29.000Z</time>
      </trkpt>
      <trkpt lat="46.40786" lon="-1.56812">
        <ele>51.87703</ele>
        <time>2022-05-14T16:12:31.000Z</time>
      </trkpt>
      <trkpt lat="46.40787" lon="-1.56815">
        <ele>51.57772</ele>
        <time>2022-05-14T16:12:33.000Z</time>
      </trkpt>
      <trkpt lat="46.40789" lon="-1.56817">
        <ele>51.34599</ele>
        <time>2022-05-14T16:12:35.000Z</time>
      </trkpt>
      <trkpt lat="46.4079" lon="-1.5682">
        <ele>51.14928</ele>
        <time>2022-05-14T16:12:37.000Z</time>
      </trkpt>
      <trkpt lat="46.40791" lon="-1.56823">
        <ele>50.94568</ele>
        <time>2022-05-14T16:12:39.000Z</time>
      </trkpt>
      <trkpt lat="46.40792" lon="-1.56825">
        <ele>50.77711</ele>
        <time>2022-05-14T16:12:41.000Z</time>
      </trkpt>
      <trkpt lat="46.40793" lon="-1.56828">
        <ele>50.6581</ele>
        <time>2022-05-14T16:12:43.000Z</time>
      </trkpt>
      <trkpt lat="46.40794" lon="-1.56831">
        <ele>50.51936</ele>
        <time>2022-05-14T16:12:45.000Z</time>
      </trkpt>
      <trkpt lat="46.40795" lon="-1.56834">
        <ele>50.40996</ele>
        <time>2022-05-14T16:12:47.000Z</time>
      </trkpt>
      <trkpt lat="46.40797" lon="-1.56836">
        <ele>50.21334</ele>
        <time>2022-05-14T16:12:49.000Z</time>
      </trkpt>
      <trkpt lat="46.40799" lon="-1.56838">
        <ele>50.0254</ele>
        <time>2022-05-14T16:12:51.000Z</time>
      </trkpt>
      <trkpt lat="46.40801" lon="-1.56839">
        <ele>49.81091</ele>
        <time>2022-05-14T16:12:53.000Z</time>
      </trkpt>
      <trkpt lat="46.40803" lon="-1.5684">
        <ele>49.57166</ele>
        <time>2022-05-14T16:12:55.000Z</time>
      </trkpt>
      <trkpt lat="46.40805" lon="-1.56841">
        <ele>49.39058</ele>
        <time>2022-05-14T16:12:57.000Z</time>
      </trkpt>
      <trkpt lat="46.40807" lon="-1.56843">
        <ele>49.39299</ele>
        <time>2022-05-14T16:12:59.000Z</time>
      </trkpt>
      <trkpt lat="46.40808" lon="-1.56846">
        <ele>49.34699</ele>
        <time>2022-05-14T16:13:05.000Z</time>
      </trkpt>
      <trkpt lat="46.40811" lon="-1.56846">
        <ele>49.27804</ele>
        <time>2022-05-14T16:13:08.000Z</time>
      </trkpt>
      <trkpt lat="46.40813" lon="-1.56847">
        <ele>49.24251</ele>
        <time>2022-05-14T16:13:11.000Z</time>
      </trkpt>
      <trkpt lat="46.40815" lon="-1.56847">
        <ele>49.19799</ele>
        <time>2022-05-14T16:13:14.000Z</time>
      </trkpt>
      <trkpt lat="46.40817" lon="-1.56848">
        <ele>49.13612</ele>
        <time>2022-05-14T16:13:16.000Z</time>
      </trkpt>
      <trkpt lat="46.40818" lon="-1.5685">
        <ele>49.03931</ele>
        <time>2022-05-14T16:13:18.000Z</time>
      </trkpt>
      <trkpt lat="46.4082" lon="-1.56853">
        <ele>48.92789</ele>
        <time>2022-05-14T16:13:20.000Z</time>
      </trkpt>
      <trkpt lat="46.40821" lon="-1.56855">
        <ele>48.79697</ele>
        <time>2022-05-14T16:13:22.000Z</time>
      </trkpt>
      <trkpt lat="46.40822" lon="-1.56858">
        <ele>48.64592</ele>
        <time>2022-05-14T16:13:24.000Z</time>
      </trkpt>
      <trkpt lat="46.40823" lon="-1.56861">
        <ele>48.57349</ele>
        <time>2022-05-14T16:13:26.000Z</time>
      </trkpt>
      <trkpt lat="46.40824" lon="-1.56863">
        <ele>48.47261</ele>
        <time>2022-05-14T16:13:28.000Z</time>
      </trkpt>
      <trkpt lat="46.40825" lon="-1.56866">
        <ele>48.4077</ele>
        <time>2022-05-14T16:13:30.000Z</time>
      </trkpt>
      <trkpt lat="46.40826" lon="-1.56869">
        <ele>48.28698</ele>
        <time>2022-05-14T16:13:32.000Z</time>
      </trkpt>
      <trkpt lat="46.40826" lon="-1.56872">
        <ele>48.1652</ele>
        <time>2022-05-14T16:13:34.000Z</time>
      </trkpt>
      <trkpt lat="46.40827" lon="-1.56875">
        <ele>48.09327</ele>
        <time>2022-05-14T16:13:36.000Z</time>
      </trkpt>
      <trkpt lat="46.40828" lon="-1.56878">
        <ele>48.0389</ele>
        <time>2022-05-14T16:13:38.000Z</time>
      </trkpt>
      <trkpt lat="46.40829" lon="-1.56881">
        <ele>48.0545</ele>
        <time>2022-05-14T16:13:40.000Z</time>
      </trkpt>
      <trkpt lat="46.4083" lon="-1.56885">
        <ele>48.07909</ele>
        <time>2022-05-14T16:13:42.000Z</time>
      </trkpt>
      <trkpt lat="46.40831" lon="-1.56887">
        <ele>48.06182</ele>
        <time>2022-05-14T16:13:44.000Z</time>
      </trkpt>
      <trkpt lat="46.40833" lon="-1.56889">
        <ele>48.1018</ele>
        <time>2022-05-14T16:13:47.000Z</time>
      </trkpt>
      <trkpt lat="46.40834" lon="-1.5689">
        <ele>48.16743</ele>
        <time>2022-05-14T16:13:49.000Z</time>
      </trkpt>
      <trkpt lat="46.40836" lon="-1.56891">
        <ele>48.24829</ele>
        <time>2022-05-14T16:13:52.000Z</time>
      </trkpt>
      <trkpt lat="46.40838" lon="-1.56892">
        <ele>48.24221</ele>
        <time>2022-05-14T16:13:56.000Z</time>
      </trkpt>
      <trkpt lat="46.4084" lon="-1.56893">
        <ele>48.22504</ele>
        <time>2022-05-14T16:13:59.000Z</time>
      </trkpt>
      <trkpt lat="46.40842" lon="-1.56894">
        <ele>48.35874</ele>
        <time>2022-05-14T16:14:12.000Z</time>
      </trkpt>
      <trkpt lat="46.40843" lon="-1.56897">
        <ele>48.46026</ele>
        <time>2022-05-14T16:14:14.000Z</time>
      </trkpt>
      <trkpt lat="46.40844" lon="-1.569">
        <ele>48.55389</ele>
        <time>2022-05-14T16:14:16.000Z</time>
      </trkpt>
      <trkpt lat="46.40843" lon="-1.56902">
        <ele>48.67696</ele>
        <time>2022-05-14T16:14:18.000Z</time>
      </trkpt>
      <trkpt lat="46.40842" lon="-1.56905">
        <ele>48.86207</ele>
        <time>2022-05-14T16:14:21.000Z</time>
      </trkpt>
      <trkpt lat="46.40841" lon="-1.56908">
        <ele>49.11755</ele>
        <time>2022-05-14T16:14:24.000Z</time>
      </trkpt>
      <trkpt lat="46.40841" lon="-1.56911">
        <ele>49.4776</ele>
        <time>2022-05-14T16:14:40.000Z</time>
      </trkpt>
      <trkpt lat="46.40841" lon="-1.56914">
        <ele>49.82553</ele>
        <time>2022-05-14T16:14:42.000Z</time>
      </trkpt>
      <trkpt lat="46.4084" lon="-1.56918">
        <ele>50.1953</ele>
        <time>2022-05-14T16:14:45.000Z</time>
      </trkpt>
      <trkpt lat="46.40841" lon="-1.56921">
        <ele>50.6318</ele>
        <time>2022-05-14T16:14:48.000Z</time>
      </trkpt>
      <trkpt lat="46.40841" lon="-1.56925">
        <ele>51.02128</ele>
        <time>2022-05-14T16:14:51.000Z</time>
      </trkpt>
      <trkpt lat="46.40842" lon="-1.56928">
        <ele>51.36259</ele>
        <time>2022-05-14T16:14:54.000Z</time>
      </trkpt>
      <trkpt lat="46.40842" lon="-1.56932">
        <ele>51.65432</ele>
        <time>2022-05-14T16:14:56.000Z</time>
      </trkpt>
      <trkpt lat="46.40842" lon="-1.56935">
        <ele>51.9367</ele>
        <time>2022-05-14T16:14:58.000Z</time>
      </trkpt>
      <trkpt lat="46.40842" lon="-1.56938">
        <ele>52.22218</ele>
        <time>2022-05-14T16:15:00.000Z</time>
      </trkpt>
      <trkpt lat="46.40842" lon="-1.56941">
        <ele>52.42907</ele>
        <time>2022-05-14T16:15:02.000Z</time>
      </trkpt>
      <trkpt lat="46.40842" lon="-1.56945">
        <ele>52.65431</ele>
        <time>2022-05-14T16:15:04.000Z</time>
      </trkpt>
      <trkpt lat="46.40842" lon="-1.56948">
        <ele>52.94169</ele>
        <time>2022-05-14T16:15:06.000Z</time>
      </trkpt>
      <trkpt lat="46.40842" lon="-1.56952">
        <ele>53.278</ele>
        <time>2022-05-14T16:15:08.000Z</time>
      </trkpt>
      <trkpt lat="46.40842" lon="-1.56956">
        <ele>53.6759</ele>
        <time>2022-05-14T16:15:10.000Z</time>
      </trkpt>
      <trkpt lat="46.40842" lon="-1.56959">
        <ele>53.99216</ele>
        <time>2022-05-14T16:15:12.000Z</time>
      </trkpt>
      <trkpt lat="46.40842" lon="-1.56961">
        <ele>54.33522</ele>
        <time>2022-05-14T16:15:14.000Z</time>
      </trkpt>
      <trkpt lat="46.40842" lon="-1.56965">
        <ele>54.71384</ele>
        <time>2022-05-14T16:15:17.000Z</time>
      </trkpt>
      <trkpt lat="46.40842" lon="-1.56968">
        <ele>55.06066</ele>
        <time>2022-05-14T16:15:19.000Z</time>
      </trkpt>
      <trkpt lat="46.40843" lon="-1.56971">
        <ele>55.36775</ele>
        <time>2022-05-14T16:15:21.000Z</time>
      </trkpt>
      <trkpt lat="46.40843" lon="-1.56975">
        <ele>55.55938</ele>
        <time>2022-05-14T16:15:24.000Z</time>
      </trkpt>
      <trkpt lat="46.40843" lon="-1.56978">
        <ele>55.58436</ele>
        <time>2022-05-14T16:15:27.000Z</time>
      </trkpt>
      <trkpt lat="46.40843" lon="-1.56981">
        <ele>55.61617</ele>
        <time>2022-05-14T16:15:30.000Z</time>
      </trkpt>
      <trkpt lat="46.40843" lon="-1.56985">
        <ele>55.63361</ele>
        <time>2022-05-14T16:15:33.000Z</time>
      </trkpt>
      <trkpt lat="46.40843" lon="-1.56988">
        <ele>55.64404</ele>
        <time>2022-05-14T16:15:35.000Z</time>
      </trkpt>
      <trkpt lat="46.40843" lon="-1.56991">
        <ele>55.72169</ele>
        <time>2022-05-14T16:15:37.000Z</time>
      </trkpt>
      <trkpt lat="46.40843" lon="-1.56994">
        <ele>55.85627</ele>
        <time>2022-05-14T16:15:39.000Z</time>
      </trkpt>
      <trkpt lat="46.40844" lon="-1.56997">
        <ele>55.97893</ele>
        <time>2022-05-14T16:15:41.000Z</time>
      </trkpt>
      <trkpt lat="46.40844" lon="-1.57">
        <ele>56.06977</ele>
        <time>2022-05-14T16:15:43.000Z</time>
      </trkpt>
      <trkpt lat="46.40844" lon="-1.57003">
        <ele>56.11891</ele>
        <time>2022-05-14T16:15:45.000Z</time>
      </trkpt>
      <trkpt lat="46.40844" lon="-1.57006">
        <ele>56.16939</ele>
        <time>2022-05-14T16:15:47.000Z</time>
      </trkpt>
      <trkpt lat="46.40844" lon="-1.5701">
        <ele>56.14321</ele>
        <time>2022-05-14T16:15:49.000Z</time>
      </trkpt>
      <trkpt lat="46.40844" lon="-1.57012">
        <ele>56.08678</ele>
        <time>2022-05-14T16:15:51.000Z</time>
      </trkpt>
      <trkpt lat="46.40844" lon="-1.57015">
        <ele>56.08345</ele>
        <time>2022-05-14T16:15:53.000Z</time>
      </trkpt>
      <trkpt lat="46.40844" lon="-1.57018">
        <ele>56.07724</ele>
        <time>2022-05-14T16:15:55.000Z</time>
      </trkpt>
      <trkpt lat="46.40844" lon="-1.57021">
        <ele>56.05299</ele>
        <time>2022-05-14T16:15:57.000Z</time>
      </trkpt>
      <trkpt lat="46.40844" lon="-1.57025">
        <ele>56.04461</ele>
        <time>2022-05-14T16:15:59.000Z</time>
      </trkpt>
      <trkpt lat="46.40844" lon="-1.57027">
        <ele>55.98761</ele>
        <time>2022-05-14T16:16:01.000Z</time>
      </trkpt>
      <trkpt lat="46.40844" lon="-1.5703">
        <ele>55.90375</ele>
        <time>2022-05-14T16:16:03.000Z</time>
      </trkpt>
      <trkpt lat="46.40844" lon="-1.57033">
        <ele>55.79963</ele>
        <time>2022-05-14T16:16:05.000Z</time>
      </trkpt>
      <trkpt lat="46.40844" lon="-1.57036">
        <ele>55.73674</ele>
        <time>2022-05-14T16:16:08.000Z</time>
      </trkpt>
      <trkpt lat="46.40843" lon="-1.57039">
        <ele>55.6964</ele>
        <time>2022-05-14T16:16:10.000Z</time>
      </trkpt>
      <trkpt lat="46.40844" lon="-1.57043">
        <ele>55.53357</ele>
        <time>2022-05-14T16:16:13.000Z</time>
      </trkpt>
      <trkpt lat="46.40844" lon="-1.57046">
        <ele>55.41504</ele>
        <time>2022-05-14T16:16:15.000Z</time>
      </trkpt>
      <trkpt lat="46.40845" lon="-1.57049">
        <ele>55.04913</ele>
        <time>2022-05-14T16:16:19.000Z</time>
      </trkpt>
      <trkpt lat="46.40845" lon="-1.57052">
        <ele>54.74569</ele>
        <time>2022-05-14T16:16:24.000Z</time>
      </trkpt>
      <trkpt lat="46.40845" lon="-1.57055">
        <ele>54.33092</ele>
        <time>2022-05-14T16:16:28.000Z</time>
      </trkpt>
      <trkpt lat="46.40845" lon="-1.57058">
        <ele>53.92528</ele>
        <time>2022-05-14T16:16:31.000Z</time>
      </trkpt>
      <trkpt lat="46.40846" lon="-1.57062">
        <ele>53.58297</ele>
        <time>2022-05-14T16:16:33.000Z</time>
      </trkpt>
      <trkpt lat="46.40845" lon="-1.57066">
        <ele>53.25854</ele>
        <time>2022-05-14T16:16:35.000Z</time>
      </trkpt>
      <trkpt lat="46.40845" lon="-1.57069">
        <ele>52.88736</ele>
        <time>2022-05-14T16:16:38.000Z</time>
      </trkpt>
      <trkpt lat="46.40845" lon="-1.57072">
        <ele>52.52345</ele>
        <time>2022-05-14T16:16:42.000Z</time>
      </trkpt>
      <trkpt lat="46.40845" lon="-1.57075">
        <ele>52.19237</ele>
        <time>2022-05-14T16:16:44.000Z</time>
      </trkpt>
      <trkpt lat="46.40845" lon="-1.57078">
        <ele>51.87328</ele>
        <time>2022-05-14T16:16:47.000Z</time>
      </trkpt>
      <trkpt lat="46.40845" lon="-1.57081">
        <ele>51.54316</ele>
        <time>2022-05-14T16:16:50.000Z</time>
      </trkpt>
      <trkpt lat="46.40844" lon="-1.57084">
        <ele>51.20974</ele>
        <time>2022-05-14T16:16:54.000Z</time>
      </trkpt>
      <trkpt lat="46.40844" lon="-1.57087">
        <ele>50.88835</ele>
        <time>2022-05-14T16:16:56.000Z</time>
      </trkpt>
      <trkpt lat="46.40844" lon="-1.5709">
        <ele>50.68282</ele>
        <time>2022-05-14T16:16:58.000Z</time>
      </trkpt>
      <trkpt lat="46.40843" lon="-1.57094">
        <ele>50.48531</ele>
        <time>2022-05-14T16:17:00.000Z</time>
      </trkpt>
      <trkpt lat="46.40842" lon="-1.57096">
        <ele>50.47049</ele>
        <time>2022-05-14T16:17:31.000Z</time>
      </trkpt>
      <trkpt lat="46.40843" lon="-1.57099">
        <ele>50.39405</ele>
        <time>2022-05-14T16:17:33.000Z</time>
      </trkpt>
      <trkpt lat="46.40843" lon="-1.57102">
        <ele>50.25089</ele>
        <time>2022-05-14T16:17:39.000Z</time>
      </trkpt>
      <trkpt lat="46.40843" lon="-1.57106">
        <ele>50.10255</ele>
        <time>2022-05-14T16:17:42.000Z</time>
      </trkpt>
      <trkpt lat="46.40843" lon="-1.57109">
        <ele>49.9291</ele>
        <time>2022-05-14T16:17:44.000Z</time>
      </trkpt>
      <trkpt lat="46.40843" lon="-1.57112">
        <ele>49.98309</ele>
        <time>2022-05-14T16:17:46.000Z</time>
      </trkpt>
      <trkpt lat="46.40843" lon="-1.57115">
        <ele>50.00679</ele>
        <time>2022-05-14T16:17:48.000Z</time>
      </trkpt>
      <trkpt lat="46.40843" lon="-1.57118">
        <ele>50.09026</ele>
        <time>2022-05-14T16:17:50.000Z</time>
      </trkpt>
      <trkpt lat="46.40844" lon="-1.5712">
        <ele>50.02542</ele>
        <time>2022-05-14T16:18:00.000Z</time>
      </trkpt>
      <trkpt lat="46.40844" lon="-1.57124">
        <ele>49.94978</ele>
        <time>2022-05-14T16:18:03.000Z</time>
      </trkpt>
      <trkpt lat="46.40844" lon="-1.57127">
        <ele>49.85065</ele>
        <time>2022-05-14T16:18:09.000Z</time>
      </trkpt>
      <trkpt lat="46.40844" lon="-1.57131">
        <ele>49.81141</ele>
        <time>2022-05-14T16:18:15.000Z</time>
      </trkpt>
      <trkpt lat="46.40843" lon="-1.57134">
        <ele>49.86055</ele>
        <time>2022-05-14T16:18:18.000Z</time>
      </trkpt>
      <trkpt lat="46.40842" lon="-1.57138">
        <ele>49.792</ele>
        <time>2022-05-14T16:18:21.000Z</time>
      </trkpt>
      <trkpt lat="46.40841" lon="-1.57142">
        <ele>49.75317</ele>
        <time>2022-05-14T16:18:24.000Z</time>
      </trkpt>
      <trkpt lat="46.40841" lon="-1.57145">
        <ele>49.66147</ele>
        <time>2022-05-14T16:18:26.000Z</time>
      </trkpt>
      <trkpt lat="46.40841" lon="-1.57148">
        <ele>49.67415</ele>
        <time>2022-05-14T16:18:28.000Z</time>
      </trkpt>
      <trkpt lat="46.40841" lon="-1.57151">
        <ele>49.59057</ele>
        <time>2022-05-14T16:18:31.000Z</time>
      </trkpt>
      <trkpt lat="46.40839" lon="-1.57153">
        <ele>49.46774</ele>
        <time>2022-05-14T16:18:33.000Z</time>
      </trkpt>
      <trkpt lat="46.40836" lon="-1.57155">
        <ele>49.43913</ele>
        <time>2022-05-14T16:18:35.000Z</time>
      </trkpt>
      <trkpt lat="46.40835" lon="-1.57156">
        <ele>49.1782</ele>
        <time>2022-05-14T16:18:37.000Z</time>
      </trkpt>
      <trkpt lat="46.40835" lon="-1.57159">
        <ele>48.97029</ele>
        <time>2022-05-14T16:18:42.000Z</time>
      </trkpt>
      <trkpt lat="46.40836" lon="-1.57163">
        <ele>48.81536</ele>
        <time>2022-05-14T16:18:45.000Z</time>
      </trkpt>
      <trkpt lat="46.40837" lon="-1.57165">
        <ele>48.74479</ele>
        <time>2022-05-14T16:18:50.000Z</time>
      </trkpt>
      <trkpt lat="46.40837" lon="-1.57168">
        <ele>48.79417</ele>
        <time>2022-05-14T16:18:55.000Z</time>
      </trkpt>
      <trkpt lat="46.40835" lon="-1.57169">
        <ele>48.87955</ele>
        <time>2022-05-14T16:18:59.000Z</time>
      </trkpt>
      <trkpt lat="46.40834" lon="-1.57167">
        <ele>48.96524</ele>
        <time>2022-05-14T16:19:03.000Z</time>
      </trkpt>
      <trkpt lat="46.40834" lon="-1.5717">
        <ele>48.988</ele>
        <time>2022-05-14T16:19:12.000Z</time>
      </trkpt>
      <trkpt lat="46.40834" lon="-1.57173">
        <ele>49.03281</ele>
        <time>2022-05-14T16:19:20.000Z</time>
      </trkpt>
      <trkpt lat="46.40835" lon="-1.5717">
        <ele>49.10744</ele>
        <time>2022-05-14T16:19:30.000Z</time>
      </trkpt>
      <trkpt lat="46.40834" lon="-1.57172">
        <ele>49.34492</ele>
        <time>2022-05-14T16:21:28.000Z</time>
      </trkpt>
      <trkpt lat="46.40836" lon="-1.57172">
        <ele>49.4932</ele>
        <time>2022-05-14T16:22:38.000Z</time>
      </trkpt>
      <trkpt lat="46.40838" lon="-1.57174">
        <ele>49.62819</ele>
        <time>2022-05-14T16:23:03.000Z</time>
      </trkpt>
      <trkpt lat="46.40838" lon="-1.57177">
        <ele>49.85462</ele>
        <time>2022-05-14T16:23:06.000Z</time>
      </trkpt>
      <trkpt lat="46.40839" lon="-1.5718">
        <ele>49.90344</ele>
        <time>2022-05-14T16:23:10.000Z</time>
      </trkpt>
      <trkpt lat="46.4084" lon="-1.57183">
        <ele>49.96453</ele>
        <time>2022-05-14T16:23:14.000Z</time>
      </trkpt>
      <trkpt lat="46.40841" lon="-1.57186">
        <ele>49.92231</ele>
        <time>2022-05-14T16:23:16.000Z</time>
      </trkpt>
      <trkpt lat="46.40842" lon="-1.57189">
        <ele>49.97996</ele>
        <time>2022-05-14T16:23:18.000Z</time>
      </trkpt>
      <trkpt lat="46.40843" lon="-1.57192">
        <ele>50.01093</ele>
        <time>2022-05-14T16:23:20.000Z</time>
      </trkpt>
      <trkpt lat="46.40843" lon="-1.57195">
        <ele>49.94679</ele>
        <time>2022-05-14T16:23:22.000Z</time>
      </trkpt>
      <trkpt lat="46.40844" lon="-1.57198">
        <ele>49.9688</ele>
        <time>2022-05-14T16:23:24.000Z</time>
      </trkpt>
      <trkpt lat="46.40845" lon="-1.57202">
        <ele>49.94899</ele>
        <time>2022-05-14T16:23:26.000Z</time>
      </trkpt>
      <trkpt lat="46.40845" lon="-1.57204">
        <ele>49.98645</ele>
        <time>2022-05-14T16:23:28.000Z</time>
      </trkpt>
      <trkpt lat="46.40846" lon="-1.57208">
        <ele>50.06535</ele>
        <time>2022-05-14T16:23:30.000Z</time>
      </trkpt>
      <trkpt lat="46.40847" lon="-1.57211">
        <ele>50.03328</ele>
        <time>2022-05-14T16:23:33.000Z</time>
      </trkpt>
      <trkpt lat="46.40849" lon="-1.57214">
        <ele>49.93375</ele>
        <time>2022-05-14T16:23:35.000Z</time>
      </trkpt>
      <trkpt lat="46.4085" lon="-1.57217">
        <ele>49.8599</ele>
        <time>2022-05-14T16:23:37.000Z</time>
      </trkpt>
      <trkpt lat="46.40851" lon="-1.57219">
        <ele>49.93021</ele>
        <time>2022-05-14T16:23:39.000Z</time>
      </trkpt>
      <trkpt lat="46.40853" lon="-1.5722">
        <ele>50.09209</ele>
        <time>2022-05-14T16:23:44.000Z</time>
      </trkpt>
      <trkpt lat="46.40855" lon="-1.5722">
        <ele>50.1323</ele>
        <time>2022-05-14T16:23:47.000Z</time>
      </trkpt>
      <trkpt lat="46.40857" lon="-1.57222">
        <ele>50.08493</ele>
        <time>2022-05-14T16:23:50.000Z</time>
      </trkpt>
      <trkpt lat="46.40858" lon="-1.57225">
        <ele>50.01265</ele>
        <time>2022-05-14T16:23:53.000Z</time>
      </trkpt>
      <trkpt lat="46.40859" lon="-1.57228">
        <ele>49.87643</ele>
        <time>2022-05-14T16:23:56.000Z</time>
      </trkpt>
      <trkpt lat="46.40861" lon="-1.5723">
        <ele>49.71287</ele>
        <time>2022-05-14T16:23:58.000Z</time>
      </trkpt>
      <trkpt lat="46.40864" lon="-1.57233">
        <ele>49.64021</ele>
        <time>2022-05-14T16:24:00.000Z</time>
      </trkpt>
      <trkpt lat="46.40866" lon="-1.57236">
        <ele>49.55109</ele>
        <time>2022-05-14T16:24:02.000Z</time>
      </trkpt>
      <trkpt lat="46.40868" lon="-1.57238">
        <ele>49.42467</ele>
        <time>2022-05-14T16:24:04.000Z</time>
      </trkpt>
      <trkpt lat="46.40871" lon="-1.5724">
        <ele>49.3046</ele>
        <time>2022-05-14T16:24:06.000Z</time>
      </trkpt>
      <trkpt lat="46.40873" lon="-1.57241">
        <ele>49.13311</ele>
        <time>2022-05-14T16:24:08.000Z</time>
      </trkpt>
      <trkpt lat="46.40875" lon="-1.57241">
        <ele>49.02583</ele>
        <time>2022-05-14T16:24:10.000Z</time>
      </trkpt>
      <trkpt lat="46.40877" lon="-1.57242">
        <ele>48.85574</ele>
        <time>2022-05-14T16:24:12.000Z</time>
      </trkpt>
      <trkpt lat="46.40879" lon="-1.57243">
        <ele>48.66288</ele>
        <time>2022-05-14T16:24:14.000Z</time>
      </trkpt>
      <trkpt lat="46.40881" lon="-1.57245">
        <ele>48.41673</ele>
        <time>2022-05-14T16:24:16.000Z</time>
      </trkpt>
      <trkpt lat="46.40883" lon="-1.57248">
        <ele>48.14541</ele>
        <time>2022-05-14T16:24:18.000Z</time>
      </trkpt>
      <trkpt lat="46.40884" lon="-1.5725">
        <ele>47.92987</ele>
        <time>2022-05-14T16:24:20.000Z</time>
      </trkpt>
      <trkpt lat="46.40885" lon="-1.57253">
        <ele>47.79532</ele>
        <time>2022-05-14T16:24:23.000Z</time>
      </trkpt>
      <trkpt lat="46.40887" lon="-1.57255">
        <ele>47.62369</ele>
        <time>2022-05-14T16:24:25.000Z</time>
      </trkpt>
      <trkpt lat="46.40888" lon="-1.57257">
        <ele>47.39927</ele>
        <time>2022-05-14T16:24:27.000Z</time>
      </trkpt>
      <trkpt lat="46.4089" lon="-1.5726">
        <ele>47.20721</ele>
        <time>2022-05-14T16:24:29.000Z</time>
      </trkpt>
      <trkpt lat="46.4089" lon="-1.57263">
        <ele>47.10281</ele>
        <time>2022-05-14T16:24:31.000Z</time>
      </trkpt>
      <trkpt lat="46.40891" lon="-1.57266">
        <ele>46.94075</ele>
        <time>2022-05-14T16:24:33.000Z</time>
      </trkpt>
      <trkpt lat="46.40891" lon="-1.5727">
        <ele>46.91219</ele>
        <time>2022-05-14T16:24:35.000Z</time>
      </trkpt>
      <trkpt lat="46.40891" lon="-1.57274">
        <ele>46.92783</ele>
        <time>2022-05-14T16:24:37.000Z</time>
      </trkpt>
      <trkpt lat="46.40892" lon="-1.57277">
        <ele>46.99398</ele>
        <time>2022-05-14T16:24:39.000Z</time>
      </trkpt>
      <trkpt lat="46.40893" lon="-1.57279">
        <ele>47.03452</ele>
        <time>2022-05-14T16:24:42.000Z</time>
      </trkpt>
      <trkpt lat="46.40894" lon="-1.57282">
        <ele>47.09533</ele>
        <time>2022-05-14T16:24:44.000Z</time>
      </trkpt>
      <trkpt lat="46.40895" lon="-1.57285">
        <ele>47.20973</ele>
        <time>2022-05-14T16:24:46.000Z</time>
      </trkpt>
      <trkpt lat="46.40895" lon="-1.57289">
        <ele>47.31776</ele>
        <time>2022-05-14T16:24:48.000Z</time>
      </trkpt>
      <trkpt lat="46.40896" lon="-1.57292">
        <ele>47.49017</ele>
        <time>2022-05-14T16:24:50.000Z</time>
      </trkpt>
      <trkpt lat="46.40896" lon="-1.57296">
        <ele>47.61846</ele>
        <time>2022-05-14T16:24:52.000Z</time>
      </trkpt>
      <trkpt lat="46.40896" lon="-1.57299">
        <ele>47.7754</ele>
        <time>2022-05-14T16:24:54.000Z</time>
      </trkpt>
      <trkpt lat="46.40896" lon="-1.57302">
        <ele>47.9695</ele>
        <time>2022-05-14T16:24:56.000Z</time>
      </trkpt>
      <trkpt lat="46.40895" lon="-1.57307">
        <ele>48.31722</ele>
        <time>2022-05-14T16:24:58.000Z</time>
      </trkpt>
      <trkpt lat="46.40895" lon="-1.5731">
        <ele>48.61961</ele>
        <time>2022-05-14T16:25:00.000Z</time>
      </trkpt>
      <trkpt lat="46.40896" lon="-1.57314">
        <ele>48.8039</ele>
        <time>2022-05-14T16:25:03.000Z</time>
      </trkpt>
      <trkpt lat="46.40897" lon="-1.57316">
        <ele>48.9262</ele>
        <time>2022-05-14T16:25:05.000Z</time>
      </trkpt>
      <trkpt lat="46.40897" lon="-1.57319">
        <ele>49.0749</ele>
        <time>2022-05-14T16:25:07.000Z</time>
      </trkpt>
      <trkpt lat="46.40898" lon="-1.57322">
        <ele>49.25066</ele>
        <time>2022-05-14T16:25:09.000Z</time>
      </trkpt>
      <trkpt lat="46.40898" lon="-1.57325">
        <ele>49.44054</ele>
        <time>2022-05-14T16:25:11.000Z</time>
      </trkpt>
      <trkpt lat="46.40898" lon="-1.57328">
        <ele>49.66405</ele>
        <time>2022-05-14T16:25:13.000Z</time>
      </trkpt>
      <trkpt lat="46.40898" lon="-1.57331">
        <ele>49.8907</ele>
        <time>2022-05-14T16:25:15.000Z</time>
      </trkpt>
      <trkpt lat="46.40898" lon="-1.57334">
        <ele>50.13731</ele>
        <time>2022-05-14T16:25:17.000Z</time>
      </trkpt>
      <trkpt lat="46.40899" lon="-1.57337">
        <ele>50.33445</ele>
        <time>2022-05-14T16:25:19.000Z</time>
      </trkpt>
      <trkpt lat="46.40899" lon="-1.5734">
        <ele>50.4991</ele>
        <time>2022-05-14T16:25:21.000Z</time>
      </trkpt>
      <trkpt lat="46.409" lon="-1.57343">
        <ele>50.67916</ele>
        <time>2022-05-14T16:25:23.000Z</time>
      </trkpt>
      <trkpt lat="46.409" lon="-1.57346">
        <ele>50.9034</ele>
        <time>2022-05-14T16:25:25.000Z</time>
      </trkpt>
      <trkpt lat="46.409" lon="-1.5735">
        <ele>51.08621</ele>
        <time>2022-05-14T16:25:27.000Z</time>
      </trkpt>
      <trkpt lat="46.40901" lon="-1.57353">
        <ele>51.25044</ele>
        <time>2022-05-14T16:25:29.000Z</time>
      </trkpt>
      <trkpt lat="46.40901" lon="-1.57356">
        <ele>51.43581</ele>
        <time>2022-05-14T16:25:31.000Z</time>
      </trkpt>
      <trkpt lat="46.40902" lon="-1.57359">
        <ele>51.63762</ele>
        <time>2022-05-14T16:25:33.000Z</time>
      </trkpt>
      <trkpt lat="46.40903" lon="-1.57362">
        <ele>51.82034</ele>
        <time>2022-05-14T16:25:35.000Z</time>
      </trkpt>
      <trkpt lat="46.40903" lon="-1.57365">
        <ele>51.91475</ele>
        <time>2022-05-14T16:25:38.000Z</time>
      </trkpt>
      <trkpt lat="46.40903" lon="-1.57368">
        <ele>51.85671</ele>
        <time>2022-05-14T16:25:42.000Z</time>
      </trkpt>
      <trkpt lat="46.40905" lon="-1.57371">
        <ele>51.75889</ele>
        <time>2022-05-14T16:25:44.000Z</time>
      </trkpt>
      <trkpt lat="46.40905" lon="-1.57373">
        <ele>51.7028</ele>
        <time>2022-05-14T16:25:46.000Z</time>
      </trkpt>
      <trkpt lat="46.40906" lon="-1.57376">
        <ele>51.65551</ele>
        <time>2022-05-14T16:25:49.000Z</time>
      </trkpt>
      <trkpt lat="46.40907" lon="-1.57379">
        <ele>51.61579</ele>
        <time>2022-05-14T16:25:51.000Z</time>
      </trkpt>
      <trkpt lat="46.40907" lon="-1.57382">
        <ele>51.56782</ele>
        <time>2022-05-14T16:25:53.000Z</time>
      </trkpt>
      <trkpt lat="46.40907" lon="-1.57386">
        <ele>51.54445</ele>
        <time>2022-05-14T16:25:55.000Z</time>
      </trkpt>
      <trkpt lat="46.40907" lon="-1.57389">
        <ele>51.44264</ele>
        <time>2022-05-14T16:25:57.000Z</time>
      </trkpt>
      <trkpt lat="46.40907" lon="-1.57393">
        <ele>51.37952</ele>
        <time>2022-05-14T16:26:00.000Z</time>
      </trkpt>
      <trkpt lat="46.40908" lon="-1.57396">
        <ele>51.3125</ele>
        <time>2022-05-14T16:26:02.000Z</time>
      </trkpt>
      <trkpt lat="46.40908" lon="-1.57399">
        <ele>51.31402</ele>
        <time>2022-05-14T16:26:04.000Z</time>
      </trkpt>
      <trkpt lat="46.40909" lon="-1.57402">
        <ele>51.36206</ele>
        <time>2022-05-14T16:26:07.000Z</time>
      </trkpt>
      <trkpt lat="46.40909" lon="-1.57405">
        <ele>51.3716</ele>
        <time>2022-05-14T16:26:10.000Z</time>
      </trkpt>
      <trkpt lat="46.4091" lon="-1.57409">
        <ele>51.35249</ele>
        <time>2022-05-14T16:26:13.000Z</time>
      </trkpt>
      <trkpt lat="46.4091" lon="-1.57413">
        <ele>51.33168</ele>
        <time>2022-05-14T16:26:15.000Z</time>
      </trkpt>
      <trkpt lat="46.4091" lon="-1.57416">
        <ele>51.28197</ele>
        <time>2022-05-14T16:26:17.000Z</time>
      </trkpt>
      <trkpt lat="46.4091" lon="-1.57419">
        <ele>51.19033</ele>
        <time>2022-05-14T16:26:19.000Z</time>
      </trkpt>
      <trkpt lat="46.4091" lon="-1.57423">
        <ele>51.062</ele>
        <time>2022-05-14T16:26:21.000Z</time>
      </trkpt>
      <trkpt lat="46.4091" lon="-1.57426">
        <ele>50.97079</ele>
        <time>2022-05-14T16:26:23.000Z</time>
      </trkpt>
      <trkpt lat="46.4091" lon="-1.57429">
        <ele>50.98458</ele>
        <time>2022-05-14T16:26:25.000Z</time>
      </trkpt>
      <trkpt lat="46.40911" lon="-1.57432">
        <ele>51.01167</ele>
        <time>2022-05-14T16:26:27.000Z</time>
      </trkpt>
      <trkpt lat="46.40912" lon="-1.57435">
        <ele>51.02141</ele>
        <time>2022-05-14T16:26:29.000Z</time>
      </trkpt>
      <trkpt lat="46.40912" lon="-1.57437">
        <ele>50.96519</ele>
        <time>2022-05-14T16:26:31.000Z</time>
      </trkpt>
      <trkpt lat="46.40912" lon="-1.5744">
        <ele>50.89619</ele>
        <time>2022-05-14T16:26:33.000Z</time>
      </trkpt>
      <trkpt lat="46.40913" lon="-1.57443">
        <ele>50.77676</ele>
        <time>2022-05-14T16:26:35.000Z</time>
      </trkpt>
      <trkpt lat="46.40913" lon="-1.57447">
        <ele>50.68266</ele>
        <time>2022-05-14T16:26:38.000Z</time>
      </trkpt>
      <trkpt lat="46.40914" lon="-1.57451">
        <ele>50.59885</ele>
        <time>2022-05-14T16:26:41.000Z</time>
      </trkpt>
      <trkpt lat="46.40914" lon="-1.57454">
        <ele>50.55264</ele>
        <time>2022-05-14T16:26:43.000Z</time>
      </trkpt>
      <trkpt lat="46.40914" lon="-1.57457">
        <ele>50.49027</ele>
        <time>2022-05-14T16:26:45.000Z</time>
      </trkpt>
      <trkpt lat="46.40914" lon="-1.57461">
        <ele>50.41032</ele>
        <time>2022-05-14T16:26:47.000Z</time>
      </trkpt>
      <trkpt lat="46.40914" lon="-1.57464">
        <ele>50.29919</ele>
        <time>2022-05-14T16:26:49.000Z</time>
      </trkpt>
      <trkpt lat="46.40915" lon="-1.57467">
        <ele>50.16339</ele>
        <time>2022-05-14T16:26:51.000Z</time>
      </trkpt>
      <trkpt lat="46.40915" lon="-1.57471">
        <ele>50.08597</ele>
        <time>2022-05-14T16:26:54.000Z</time>
      </trkpt>
      <trkpt lat="46.40915" lon="-1.57474">
        <ele>50.03359</ele>
        <time>2022-05-14T16:26:57.000Z</time>
      </trkpt>
      <trkpt lat="46.40916" lon="-1.57477">
        <ele>50.01742</ele>
        <time>2022-05-14T16:26:59.000Z</time>
      </trkpt>
      <trkpt lat="46.40916" lon="-1.5748">
        <ele>50.02827</ele>
        <time>2022-05-14T16:27:01.000Z</time>
      </trkpt>
      <trkpt lat="46.40916" lon="-1.57483">
        <ele>50.0553</ele>
        <time>2022-05-14T16:27:03.000Z</time>
      </trkpt>
      <trkpt lat="46.40918" lon="-1.57486">
        <ele>50.08507</ele>
        <time>2022-05-14T16:27:05.000Z</time>
      </trkpt>
      <trkpt lat="46.40919" lon="-1.57488">
        <ele>50.10997</ele>
        <time>2022-05-14T16:27:07.000Z</time>
      </trkpt>
      <trkpt lat="46.4092" lon="-1.57491">
        <ele>50.13622</ele>
        <time>2022-05-14T16:27:09.000Z</time>
      </trkpt>
      <trkpt lat="46.4092" lon="-1.57493">
        <ele>50.1804</ele>
        <time>2022-05-14T16:27:11.000Z</time>
      </trkpt>
      <trkpt lat="46.4092" lon="-1.57497">
        <ele>50.31557</ele>
        <time>2022-05-14T16:27:13.000Z</time>
      </trkpt>
      <trkpt lat="46.40921" lon="-1.57499">
        <ele>50.54202</ele>
        <time>2022-05-14T16:27:15.000Z</time>
      </trkpt>
      <trkpt lat="46.4092" lon="-1.57503">
        <ele>50.73206</ele>
        <time>2022-05-14T16:27:18.000Z</time>
      </trkpt>
      <trkpt lat="46.4092" lon="-1.57505">
        <ele>50.93725</ele>
        <time>2022-05-14T16:27:20.000Z</time>
      </trkpt>
      <trkpt lat="46.4092" lon="-1.57508">
        <ele>51.14574</ele>
        <time>2022-05-14T16:27:22.000Z</time>
      </trkpt>
      <trkpt lat="46.4092" lon="-1.57511">
        <ele>51.33849</ele>
        <time>2022-05-14T16:27:24.000Z</time>
      </trkpt>
      <trkpt lat="46.4092" lon="-1.57514">
        <ele>51.48685</ele>
        <time>2022-05-14T16:27:26.000Z</time>
      </trkpt>
      <trkpt lat="46.40918" lon="-1.57516">
        <ele>51.62572</ele>
        <time>2022-05-14T16:27:28.000Z</time>
      </trkpt>
      <trkpt lat="46.40918" lon="-1.57519">
        <ele>51.71741</ele>
        <time>2022-05-14T16:27:30.000Z</time>
      </trkpt>
      <trkpt lat="46.40919" lon="-1.57522">
        <ele>51.82787</ele>
        <time>2022-05-14T16:27:32.000Z</time>
      </trkpt>
      <trkpt lat="46.4092" lon="-1.57525">
        <ele>51.90221</ele>
        <time>2022-05-14T16:27:34.000Z</time>
      </trkpt>
      <trkpt lat="46.40921" lon="-1.57528">
        <ele>51.981</ele>
        <time>2022-05-14T16:27:37.000Z</time>
      </trkpt>
      <trkpt lat="46.40921" lon="-1.5753">
        <ele>52.01908</ele>
        <time>2022-05-14T16:27:39.000Z</time>
      </trkpt>
      <trkpt lat="46.40923" lon="-1.57533">
        <ele>52.0326</ele>
        <time>2022-05-14T16:27:42.000Z</time>
      </trkpt>
      <trkpt lat="46.40923" lon="-1.57537">
        <ele>52.02849</ele>
        <time>2022-05-14T16:27:45.000Z</time>
      </trkpt>
      <trkpt lat="46.40923" lon="-1.5754">
        <ele>52.03001</ele>
        <time>2022-05-14T16:27:47.000Z</time>
      </trkpt>
      <trkpt lat="46.40923" lon="-1.57543">
        <ele>52.06229</ele>
        <time>2022-05-14T16:27:51.000Z</time>
      </trkpt>
      <trkpt lat="46.40923" lon="-1.57546">
        <ele>52.04266</ele>
        <time>2022-05-14T16:28:00.000Z</time>
      </trkpt>
      <trkpt lat="46.40924" lon="-1.57549">
        <ele>52.02137</ele>
        <time>2022-05-14T16:28:02.000Z</time>
      </trkpt>
      <trkpt lat="46.40924" lon="-1.57552">
        <ele>52.0118</ele>
        <time>2022-05-14T16:28:04.000Z</time>
      </trkpt>
      <trkpt lat="46.40924" lon="-1.57555">
        <ele>51.99315</ele>
        <time>2022-05-14T16:28:06.000Z</time>
      </trkpt>
      <trkpt lat="46.40925" lon="-1.57558">
        <ele>51.94267</ele>
        <time>2022-05-14T16:28:08.000Z</time>
      </trkpt>
      <trkpt lat="46.40925" lon="-1.57561">
        <ele>51.95713</ele>
        <time>2022-05-14T16:28:10.000Z</time>
      </trkpt>
      <trkpt lat="46.40926" lon="-1.57564">
        <ele>51.9474</ele>
        <time>2022-05-14T16:28:12.000Z</time>
      </trkpt>
      <trkpt lat="46.40926" lon="-1.57566">
        <ele>51.90391</ele>
        <time>2022-05-14T16:28:14.000Z</time>
      </trkpt>
      <trkpt lat="46.40926" lon="-1.57569">
        <ele>51.85936</ele>
        <time>2022-05-14T16:28:16.000Z</time>
      </trkpt>
      <trkpt lat="46.40926" lon="-1.57572">
        <ele>51.84734</ele>
        <time>2022-05-14T16:28:18.000Z</time>
      </trkpt>
      <trkpt lat="46.40927" lon="-1.57575">
        <ele>51.80666</ele>
        <time>2022-05-14T16:28:21.000Z</time>
      </trkpt>
      <trkpt lat="46.40928" lon="-1.57577">
        <ele>51.79994</ele>
        <time>2022-05-14T16:28:23.000Z</time>
      </trkpt>
      <trkpt lat="46.40928" lon="-1.5758">
        <ele>51.7709</ele>
        <time>2022-05-14T16:28:26.000Z</time>
      </trkpt>
      <trkpt lat="46.40927" lon="-1.57583">
        <ele>51.72892</ele>
        <time>2022-05-14T16:28:32.000Z</time>
      </trkpt>
      <trkpt lat="46.40927" lon="-1.57586">
        <ele>51.71864</ele>
        <time>2022-05-14T16:28:35.000Z</time>
      </trkpt>
      <trkpt lat="46.40928" lon="-1.57589">
        <ele>51.7287</ele>
        <time>2022-05-14T16:28:38.000Z</time>
      </trkpt>
      <trkpt lat="46.40928" lon="-1.57591">
        <ele>51.70905</ele>
        <time>2022-05-14T16:28:41.000Z</time>
      </trkpt>
      <trkpt lat="46.40928" lon="-1.57594">
        <ele>51.77714</ele>
        <time>2022-05-14T16:28:44.000Z</time>
      </trkpt>
      <trkpt lat="46.40929" lon="-1.57597">
        <ele>51.82057</ele>
        <time>2022-05-14T16:28:47.000Z</time>
      </trkpt>
      <trkpt lat="46.4093" lon="-1.576">
        <ele>51.80449</ele>
        <time>2022-05-14T16:28:50.000Z</time>
      </trkpt>
      <trkpt lat="46.40931" lon="-1.57603">
        <ele>51.81099</ele>
        <time>2022-05-14T16:28:53.000Z</time>
      </trkpt>
      <trkpt lat="46.40931" lon="-1.57605">
        <ele>51.79004</ele>
        <time>2022-05-14T16:28:55.000Z</time>
      </trkpt>
      <trkpt lat="46.40931" lon="-1.57608">
        <ele>51.73773</ele>
        <time>2022-05-14T16:28:57.000Z</time>
      </trkpt>
      <trkpt lat="46.40931" lon="-1.57611">
        <ele>51.67577</ele>
        <time>2022-05-14T16:28:59.000Z</time>
      </trkpt>
      <trkpt lat="46.40931" lon="-1.57615">
        <ele>51.64016</ele>
        <time>2022-05-14T16:29:02.000Z</time>
      </trkpt>
      <trkpt lat="46.40931" lon="-1.57617">
        <ele>51.59431</ele>
        <time>2022-05-14T16:29:04.000Z</time>
      </trkpt>
      <trkpt lat="46.40931" lon="-1.5762">
        <ele>51.55665</ele>
        <time>2022-05-14T16:29:06.000Z</time>
      </trkpt>
      <trkpt lat="46.40932" lon="-1.57625">
        <ele>51.57845</ele>
        <time>2022-05-14T16:29:08.000Z</time>
      </trkpt>
      <trkpt lat="46.40932" lon="-1.5763">
        <ele>51.5662</ele>
        <time>2022-05-14T16:29:10.000Z</time>
      </trkpt>
      <trkpt lat="46.40932" lon="-1.57632">
        <ele>51.60152</ele>
        <time>2022-05-14T16:29:12.000Z</time>
      </trkpt>
      <trkpt lat="46.40933" lon="-1.57635">
        <ele>51.70716</ele>
        <time>2022-05-14T16:29:14.000Z</time>
      </trkpt>
      <trkpt lat="46.40934" lon="-1.57638">
        <ele>51.8008</ele>
        <time>2022-05-14T16:29:16.000Z</time>
      </trkpt>
      <trkpt lat="46.40933" lon="-1.57641">
        <ele>51.81926</ele>
        <time>2022-05-14T16:29:18.000Z</time>
      </trkpt>
      <trkpt lat="46.40933" lon="-1.57645">
        <ele>51.89979</ele>
        <time>2022-05-14T16:29:21.000Z</time>
      </trkpt>
      <trkpt lat="46.40933" lon="-1.57648">
        <ele>51.89687</ele>
        <time>2022-05-14T16:29:24.000Z</time>
      </trkpt>
      <trkpt lat="46.40933" lon="-1.5765">
        <ele>51.87891</ele>
        <time>2022-05-14T16:29:26.000Z</time>
      </trkpt>
      <trkpt lat="46.40934" lon="-1.57653">
        <ele>51.86577</ele>
        <time>2022-05-14T16:29:28.000Z</time>
      </trkpt>
      <trkpt lat="46.40934" lon="-1.57656">
        <ele>51.80009</ele>
        <time>2022-05-14T16:29:30.000Z</time>
      </trkpt>
      <trkpt lat="46.40934" lon="-1.57659">
        <ele>51.78767</ele>
        <time>2022-05-14T16:29:32.000Z</time>
      </trkpt>
      <trkpt lat="46.40934" lon="-1.57662">
        <ele>51.76904</ele>
        <time>2022-05-14T16:29:35.000Z</time>
      </trkpt>
      <trkpt lat="46.40935" lon="-1.57666">
        <ele>51.74952</ele>
        <time>2022-05-14T16:29:38.000Z</time>
      </trkpt>
      <trkpt lat="46.40936" lon="-1.57669">
        <ele>51.68712</ele>
        <time>2022-05-14T16:29:42.000Z</time>
      </trkpt>
      <trkpt lat="46.40937" lon="-1.57672">
        <ele>51.58402</ele>
        <time>2022-05-14T16:29:46.000Z</time>
      </trkpt>
      <trkpt lat="46.40938" lon="-1.57674">
        <ele>51.53651</ele>
        <time>2022-05-14T16:29:48.000Z</time>
      </trkpt>
      <trkpt lat="46.40938" lon="-1.57678">
        <ele>51.48817</ele>
        <time>2022-05-14T16:29:50.000Z</time>
      </trkpt>
      <trkpt lat="46.40938" lon="-1.57681">
        <ele>51.43873</ele>
        <time>2022-05-14T16:29:52.000Z</time>
      </trkpt>
      <trkpt lat="46.40938" lon="-1.57684">
        <ele>51.38459</ele>
        <time>2022-05-14T16:29:55.000Z</time>
      </trkpt>
      <trkpt lat="46.40939" lon="-1.57687">
        <ele>51.33235</ele>
        <time>2022-05-14T16:29:57.000Z</time>
      </trkpt>
      <trkpt lat="46.4094" lon="-1.5769">
        <ele>51.29689</ele>
        <time>2022-05-14T16:30:00.000Z</time>
      </trkpt>
      <trkpt lat="46.4094" lon="-1.57693">
        <ele>51.25286</ele>
        <time>2022-05-14T16:30:02.000Z</time>
      </trkpt>
      <trkpt lat="46.40941" lon="-1.57696">
        <ele>51.1822</ele>
        <time>2022-05-14T16:30:04.000Z</time>
      </trkpt>
      <trkpt lat="46.40941" lon="-1.57699">
        <ele>51.12733</ele>
        <time>2022-05-14T16:30:06.000Z</time>
      </trkpt>
      <trkpt lat="46.40942" lon="-1.57702">
        <ele>51.09213</ele>
        <time>2022-05-14T16:30:08.000Z</time>
      </trkpt>
      <trkpt lat="46.40943" lon="-1.57704">
        <ele>50.98504</ele>
        <time>2022-05-14T16:30:10.000Z</time>
      </trkpt>
      <trkpt lat="46.40944" lon="-1.57708">
        <ele>50.98272</ele>
        <time>2022-05-14T16:30:13.000Z</time>
      </trkpt>
      <trkpt lat="46.40945" lon="-1.5771">
        <ele>50.98731</ele>
        <time>2022-05-14T16:30:15.000Z</time>
      </trkpt>
      <trkpt lat="46.40946" lon="-1.57713">
        <ele>51.03317</ele>
        <time>2022-05-14T16:30:18.000Z</time>
      </trkpt>
      <trkpt lat="46.40947" lon="-1.57716">
        <ele>51.04537</ele>
        <time>2022-05-14T16:30:21.000Z</time>
      </trkpt>
      <trkpt lat="46.40947" lon="-1.57719">
        <ele>50.98291</ele>
        <time>2022-05-14T16:30:24.000Z</time>
      </trkpt>
      <trkpt lat="46.40948" lon="-1.57722">
        <ele>50.93726</ele>
        <time>2022-05-14T16:30:27.000Z</time>
      </trkpt>
      <trkpt lat="46.40949" lon="-1.57725">
        <ele>50.88423</ele>
        <time>2022-05-14T16:30:30.000Z</time>
      </trkpt>
      <trkpt lat="46.40951" lon="-1.57727">
        <ele>50.90894</ele>
        <time>2022-05-14T16:30:33.000Z</time>
      </trkpt>
      <trkpt lat="46.40953" lon="-1.5773">
        <ele>51.0254</ele>
        <time>2022-05-14T16:30:35.000Z</time>
      </trkpt>
      <trkpt lat="46.40955" lon="-1.57733">
        <ele>51.11478</ele>
        <time>2022-05-14T16:30:37.000Z</time>
      </trkpt>
      <trkpt lat="46.40956" lon="-1.57737">
        <ele>51.17538</ele>
        <time>2022-05-14T16:30:39.000Z</time>
      </trkpt>
      <trkpt lat="46.40955" lon="-1.5774">
        <ele>51.20929</ele>
        <time>2022-05-14T16:30:41.000Z</time>
      </trkpt>
      <trkpt lat="46.40956" lon="-1.57744">
        <ele>51.30087</ele>
        <time>2022-05-14T16:30:43.000Z</time>
      </trkpt>
      <trkpt lat="46.40957" lon="-1.57747">
        <ele>51.33453</ele>
        <time>2022-05-14T16:30:45.000Z</time>
      </trkpt>
      <trkpt lat="46.40957" lon="-1.57751">
        <ele>51.36368</ele>
        <time>2022-05-14T16:30:47.000Z</time>
      </trkpt>
      <trkpt lat="46.40957" lon="-1.57754">
        <ele>51.35046</ele>
        <time>2022-05-14T16:30:49.000Z</time>
      </trkpt>
      <trkpt lat="46.40957" lon="-1.57758">
        <ele>51.32767</ele>
        <time>2022-05-14T16:30:51.000Z</time>
      </trkpt>
      <trkpt lat="46.40957" lon="-1.57762">
        <ele>51.31694</ele>
        <time>2022-05-14T16:30:53.000Z</time>
      </trkpt>
      <trkpt lat="46.40957" lon="-1.57765">
        <ele>51.35829</ele>
        <time>2022-05-14T16:30:55.000Z</time>
      </trkpt>
      <trkpt lat="46.40958" lon="-1.57767">
        <ele>51.37626</ele>
        <time>2022-05-14T16:30:58.000Z</time>
      </trkpt>
      <trkpt lat="46.40958" lon="-1.57771">
        <ele>51.28654</ele>
        <time>2022-05-14T16:31:00.000Z</time>
      </trkpt>
      <trkpt lat="46.40958" lon="-1.57775">
        <ele>51.20785</ele>
        <time>2022-05-14T16:31:02.000Z</time>
      </trkpt>
      <trkpt lat="46.40957" lon="-1.57778">
        <ele>51.11216</ele>
        <time>2022-05-14T16:31:04.000Z</time>
      </trkpt>
      <trkpt lat="46.40956" lon="-1.57781">
        <ele>50.98934</ele>
        <time>2022-05-14T16:31:08.000Z</time>
      </trkpt>
      <trkpt lat="46.40955" lon="-1.57784">
        <ele>50.88932</ele>
        <time>2022-05-14T16:31:11.000Z</time>
      </trkpt>
      <trkpt lat="46.40953" lon="-1.57787">
        <ele>50.81953</ele>
        <time>2022-05-14T16:31:14.000Z</time>
      </trkpt>
      <trkpt lat="46.40952" lon="-1.57788">
        <ele>50.75992</ele>
        <time>2022-05-14T16:31:16.000Z</time>
      </trkpt>
      <trkpt lat="46.4095" lon="-1.57789">
        <ele>50.67666</ele>
        <time>2022-05-14T16:31:18.000Z</time>
      </trkpt>
      <trkpt lat="46.40948" lon="-1.57791">
        <ele>50.54037</ele>
        <time>2022-05-14T16:31:21.000Z</time>
      </trkpt>
      <trkpt lat="46.40946" lon="-1.57792">
        <ele>50.36005</ele>
        <time>2022-05-14T16:31:23.000Z</time>
      </trkpt>
      <trkpt lat="46.40944" lon="-1.57793">
        <ele>50.15335</ele>
        <time>2022-05-14T16:31:25.000Z</time>
      </trkpt>
      <trkpt lat="46.40943" lon="-1.57794">
        <ele>49.94188</ele>
        <time>2022-05-14T16:31:27.000Z</time>
      </trkpt>
      <trkpt lat="46.40941" lon="-1.57796">
        <ele>49.67</ele>
        <time>2022-05-14T16:31:30.000Z</time>
      </trkpt>
      <trkpt lat="46.40939" lon="-1.57798">
        <ele>49.31438</ele>
        <time>2022-05-14T16:31:33.000Z</time>
      </trkpt>
      <trkpt lat="46.40937" lon="-1.57799">
        <ele>49.04932</ele>
        <time>2022-05-14T16:31:36.000Z</time>
      </trkpt>
      <trkpt lat="46.40936" lon="-1.57801">
        <ele>48.72886</ele>
        <time>2022-05-14T16:31:38.000Z</time>
      </trkpt>
      <trkpt lat="46.40934" lon="-1.57803">
        <ele>48.38987</ele>
        <time>2022-05-14T16:31:40.000Z</time>
      </trkpt>
      <trkpt lat="46.40932" lon="-1.57804">
        <ele>48.05069</ele>
        <time>2022-05-14T16:31:42.000Z</time>
      </trkpt>
      <trkpt lat="46.40931" lon="-1.57807">
        <ele>47.73807</ele>
        <time>2022-05-14T16:31:44.000Z</time>
      </trkpt>
      <trkpt lat="46.40931" lon="-1.5781">
        <ele>47.39591</ele>
        <time>2022-05-14T16:31:46.000Z</time>
      </trkpt>
      <trkpt lat="46.40931" lon="-1.57813">
        <ele>47.10528</ele>
        <time>2022-05-14T16:31:49.000Z</time>
      </trkpt>
      <trkpt lat="46.40931" lon="-1.57815">
        <ele>46.83738</ele>
        <time>2022-05-14T16:31:51.000Z</time>
      </trkpt>
      <trkpt lat="46.40931" lon="-1.57819">
        <ele>46.59576</ele>
        <time>2022-05-14T16:31:53.000Z</time>
      </trkpt>
      <trkpt lat="46.40931" lon="-1.57821">
        <ele>46.35907</ele>
        <time>2022-05-14T16:31:55.000Z</time>
      </trkpt>
      <trkpt lat="46.40931" lon="-1.57824">
        <ele>46.10409</ele>
        <time>2022-05-14T16:31:57.000Z</time>
      </trkpt>
      <trkpt lat="46.40931" lon="-1.57827">
        <ele>45.82149</ele>
        <time>2022-05-14T16:31:59.000Z</time>
      </trkpt>
      <trkpt lat="46.40931" lon="-1.5783">
        <ele>45.52428</ele>
        <time>2022-05-14T16:32:01.000Z</time>
      </trkpt>
      <trkpt lat="46.40931" lon="-1.57833">
        <ele>45.19735</ele>
        <time>2022-05-14T16:32:04.000Z</time>
      </trkpt>
      <trkpt lat="46.4093" lon="-1.57836">
        <ele>44.88888</ele>
        <time>2022-05-14T16:32:10.000Z</time>
      </trkpt>
      <trkpt lat="46.40931" lon="-1.57839">
        <ele>44.73443</ele>
        <time>2022-05-14T16:32:15.000Z</time>
      </trkpt>
      <trkpt lat="46.4093" lon="-1.57843">
        <ele>44.61818</ele>
        <time>2022-05-14T16:32:17.000Z</time>
      </trkpt>
      <trkpt lat="46.4093" lon="-1.57846">
        <ele>44.5273</ele>
        <time>2022-05-14T16:32:19.000Z</time>
      </trkpt>
      <trkpt lat="46.4093" lon="-1.57849">
        <ele>44.43685</ele>
        <time>2022-05-14T16:32:21.000Z</time>
      </trkpt>
      <trkpt lat="46.40931" lon="-1.57852">
        <ele>44.44001</ele>
        <time>2022-05-14T16:32:23.000Z</time>
      </trkpt>
      <trkpt lat="46.40931" lon="-1.57855">
        <ele>44.37502</ele>
        <time>2022-05-14T16:32:25.000Z</time>
      </trkpt>
      <trkpt lat="46.4093" lon="-1.57858">
        <ele>44.3487</ele>
        <time>2022-05-14T16:32:27.000Z</time>
      </trkpt>
      <trkpt lat="46.40929" lon="-1.57861">
        <ele>44.32146</ele>
        <time>2022-05-14T16:32:29.000Z</time>
      </trkpt>
      <trkpt lat="46.40929" lon="-1.57864">
        <ele>44.23546</ele>
        <time>2022-05-14T16:32:31.000Z</time>
      </trkpt>
      <trkpt lat="46.40929" lon="-1.57867">
        <ele>44.08272</ele>
        <time>2022-05-14T16:32:33.000Z</time>
      </trkpt>
      <trkpt lat="46.40929" lon="-1.5787">
        <ele>43.98298</ele>
        <time>2022-05-14T16:32:35.000Z</time>
      </trkpt>
      <trkpt lat="46.40929" lon="-1.57873">
        <ele>43.90314</ele>
        <time>2022-05-14T16:32:37.000Z</time>
      </trkpt>
      <trkpt lat="46.40929" lon="-1.57876">
        <ele>43.77659</ele>
        <time>2022-05-14T16:32:39.000Z</time>
      </trkpt>
      <trkpt lat="46.4093" lon="-1.57879">
        <ele>43.57508</ele>
        <time>2022-05-14T16:32:41.000Z</time>
      </trkpt>
      <trkpt lat="46.4093" lon="-1.57882">
        <ele>43.3996</ele>
        <time>2022-05-14T16:32:43.000Z</time>
      </trkpt>
      <trkpt lat="46.4093" lon="-1.57885">
        <ele>43.24926</ele>
        <time>2022-05-14T16:32:45.000Z</time>
      </trkpt>
      <trkpt lat="46.40931" lon="-1.57888">
        <ele>43.05724</ele>
        <time>2022-05-14T16:32:47.000Z</time>
      </trkpt>
      <trkpt lat="46.40931" lon="-1.57891">
        <ele>42.88332</ele>
        <time>2022-05-14T16:32:49.000Z</time>
      </trkpt>
      <trkpt lat="46.40931" lon="-1.57894">
        <ele>42.73708</ele>
        <time>2022-05-14T16:32:51.000Z</time>
      </trkpt>
      <trkpt lat="46.40931" lon="-1.57897">
        <ele>42.57354</ele>
        <time>2022-05-14T16:32:53.000Z</time>
      </trkpt>
      <trkpt lat="46.40932" lon="-1.57901">
        <ele>42.28067</ele>
        <time>2022-05-14T16:32:55.000Z</time>
      </trkpt>
      <trkpt lat="46.40932" lon="-1.57903">
        <ele>42.05451</ele>
        <time>2022-05-14T16:32:57.000Z</time>
      </trkpt>
      <trkpt lat="46.40932" lon="-1.57907">
        <ele>41.85125</ele>
        <time>2022-05-14T16:33:00.000Z</time>
      </trkpt>
      <trkpt lat="46.40932" lon="-1.57909">
        <ele>41.64402</ele>
        <time>2022-05-14T16:33:02.000Z</time>
      </trkpt>
      <trkpt lat="46.40932" lon="-1.57912">
        <ele>41.48817</ele>
        <time>2022-05-14T16:33:04.000Z</time>
      </trkpt>
      <trkpt lat="46.40932" lon="-1.57915">
        <ele>41.23508</ele>
        <time>2022-05-14T16:33:07.000Z</time>
      </trkpt>
      <trkpt lat="46.40933" lon="-1.57918">
        <ele>40.95672</ele>
        <time>2022-05-14T16:33:11.000Z</time>
      </trkpt>
      <trkpt lat="46.40934" lon="-1.5792">
        <ele>40.67515</ele>
        <time>2022-05-14T16:33:13.000Z</time>
      </trkpt>
      <trkpt lat="46.40935" lon="-1.57923">
        <ele>40.43374</ele>
        <time>2022-05-14T16:33:16.000Z</time>
      </trkpt>
      <trkpt lat="46.40936" lon="-1.57925">
        <ele>40.24437</ele>
        <time>2022-05-14T16:33:19.000Z</time>
      </trkpt>
      <trkpt lat="46.40937" lon="-1.57928">
        <ele>40.11756</ele>
        <time>2022-05-14T16:33:22.000Z</time>
      </trkpt>
      <trkpt lat="46.40937" lon="-1.57931">
        <ele>39.96165</ele>
        <time>2022-05-14T16:33:25.000Z</time>
      </trkpt>
      <trkpt lat="46.40935" lon="-1.57934">
        <ele>39.85657</ele>
        <time>2022-05-14T16:33:28.000Z</time>
      </trkpt>
      <trkpt lat="46.40935" lon="-1.57936">
        <ele>39.84453</ele>
        <time>2022-05-14T16:33:45.000Z</time>
      </trkpt>
      <trkpt lat="46.40936" lon="-1.57937">
        <ele>39.93186</ele>
        <time>2022-05-14T16:33:57.000Z</time>
      </trkpt>
      <trkpt lat="46.40938" lon="-1.5794">
        <ele>39.96103</ele>
        <time>2022-05-14T16:34:00.000Z</time>
      </trkpt>
      <trkpt lat="46.40939" lon="-1.57943">
        <ele>40.01122</ele>
        <time>2022-05-14T16:34:03.000Z</time>
      </trkpt>
      <trkpt lat="46.4094" lon="-1.57946">
        <ele>40.11514</ele>
        <time>2022-05-14T16:34:05.000Z</time>
      </trkpt>
      <trkpt lat="46.40941" lon="-1.5795">
        <ele>40.23226</ele>
        <time>2022-05-14T16:34:07.000Z</time>
      </trkpt>
      <trkpt lat="46.40942" lon="-1.57954">
        <ele>40.41167</ele>
        <time>2022-05-14T16:34:09.000Z</time>
      </trkpt>
      <trkpt lat="46.40943" lon="-1.57957">
        <ele>40.49811</ele>
        <time>2022-05-14T16:34:12.000Z</time>
      </trkpt>
      <trkpt lat="46.40944" lon="-1.5796">
        <ele>40.60825</ele>
        <time>2022-05-14T16:34:15.000Z</time>
      </trkpt>
      <trkpt lat="46.40945" lon="-1.57963">
        <ele>40.67452</ele>
        <time>2022-05-14T16:34:17.000Z</time>
      </trkpt>
      <trkpt lat="46.40946" lon="-1.57966">
        <ele>40.78356</ele>
        <time>2022-05-14T16:34:19.000Z</time>
      </trkpt>
      <trkpt lat="46.40946" lon="-1.57969">
        <ele>40.82158</ele>
        <time>2022-05-14T16:34:22.000Z</time>
      </trkpt>
      <trkpt lat="46.40947" lon="-1.57973">
        <ele>40.92733</ele>
        <time>2022-05-14T16:34:25.000Z</time>
      </trkpt>
      <trkpt lat="46.40948" lon="-1.57976">
        <ele>41.12661</ele>
        <time>2022-05-14T16:34:27.000Z</time>
      </trkpt>
      <trkpt lat="46.40949" lon="-1.5798">
        <ele>41.34518</ele>
        <time>2022-05-14T16:34:29.000Z</time>
      </trkpt>
      <trkpt lat="46.40949" lon="-1.57984">
        <ele>41.58577</ele>
        <time>2022-05-14T16:34:31.000Z</time>
      </trkpt>
      <trkpt lat="46.4095" lon="-1.57987">
        <ele>41.81737</ele>
        <time>2022-05-14T16:34:33.000Z</time>
      </trkpt>
      <trkpt lat="46.4095" lon="-1.5799">
        <ele>42.03402</ele>
        <time>2022-05-14T16:34:35.000Z</time>
      </trkpt>
      <trkpt lat="46.40951" lon="-1.57993">
        <ele>42.23729</ele>
        <time>2022-05-14T16:34:37.000Z</time>
      </trkpt>
      <trkpt lat="46.40952" lon="-1.57996">
        <ele>42.4146</ele>
        <time>2022-05-14T16:34:40.000Z</time>
      </trkpt>
      <trkpt lat="46.40953" lon="-1.57999">
        <ele>42.53264</ele>
        <time>2022-05-14T16:34:43.000Z</time>
      </trkpt>
      <trkpt lat="46.40954" lon="-1.58003">
        <ele>42.56275</ele>
        <time>2022-05-14T16:34:46.000Z</time>
      </trkpt>
      <trkpt lat="46.40955" lon="-1.58005">
        <ele>42.69827</ele>
        <time>2022-05-14T16:34:48.000Z</time>
      </trkpt>
      <trkpt lat="46.40956" lon="-1.58008">
        <ele>42.87963</ele>
        <time>2022-05-14T16:34:50.000Z</time>
      </trkpt>
      <trkpt lat="46.40957" lon="-1.58012">
        <ele>43.02021</ele>
        <time>2022-05-14T16:34:52.000Z</time>
      </trkpt>
      <trkpt lat="46.40957" lon="-1.58015">
        <ele>43.08456</ele>
        <time>2022-05-14T16:34:54.000Z</time>
      </trkpt>
      <trkpt lat="46.40958" lon="-1.58018">
        <ele>43.04867</ele>
        <time>2022-05-14T16:34:56.000Z</time>
      </trkpt>
      <trkpt lat="46.40959" lon="-1.58021">
        <ele>43.28991</ele>
        <time>2022-05-14T16:34:58.000Z</time>
      </trkpt>
      <trkpt lat="46.40959" lon="-1.58025">
        <ele>43.39713</ele>
        <time>2022-05-14T16:35:00.000Z</time>
      </trkpt>
      <trkpt lat="46.40959" lon="-1.58028">
        <ele>43.53166</ele>
        <time>2022-05-14T16:35:02.000Z</time>
      </trkpt>
      <trkpt lat="46.40959" lon="-1.58031">
        <ele>43.61482</ele>
        <time>2022-05-14T16:35:04.000Z</time>
      </trkpt>
      <trkpt lat="46.40959" lon="-1.58034">
        <ele>43.70285</ele>
        <time>2022-05-14T16:35:06.000Z</time>
      </trkpt>
      <trkpt lat="46.40959" lon="-1.58038">
        <ele>43.80685</ele>
        <time>2022-05-14T16:35:08.000Z</time>
      </trkpt>
      <trkpt lat="46.4096" lon="-1.58041">
        <ele>43.85544</ele>
        <time>2022-05-14T16:35:10.000Z</time>
      </trkpt>
      <trkpt lat="46.4096" lon="-1.58045">
        <ele>44.14135</ele>
        <time>2022-05-14T16:35:12.000Z</time>
      </trkpt>
      <trkpt lat="46.4096" lon="-1.58048">
        <ele>44.28831</ele>
        <time>2022-05-14T16:35:14.000Z</time>
      </trkpt>
      <trkpt lat="46.4096" lon="-1.58052">
        <ele>44.40107</ele>
        <time>2022-05-14T16:35:16.000Z</time>
      </trkpt>
      <trkpt lat="46.4096" lon="-1.58055">
        <ele>44.52787</ele>
        <time>2022-05-14T16:35:18.000Z</time>
      </trkpt>
      <trkpt lat="46.4096" lon="-1.5806">
        <ele>44.6503</ele>
        <time>2022-05-14T16:35:20.000Z</time>
      </trkpt>
      <trkpt lat="46.4096" lon="-1.58064">
        <ele>44.75407</ele>
        <time>2022-05-14T16:35:23.000Z</time>
      </trkpt>
      <trkpt lat="46.4096" lon="-1.58067">
        <ele>44.92057</ele>
        <time>2022-05-14T16:35:25.000Z</time>
      </trkpt>
      <trkpt lat="46.40959" lon="-1.58072">
        <ele>45.20585</ele>
        <time>2022-05-14T16:35:27.000Z</time>
      </trkpt>
      <trkpt lat="46.40959" lon="-1.58076">
        <ele>45.45362</ele>
        <time>2022-05-14T16:35:31.000Z</time>
      </trkpt>
      <trkpt lat="46.40959" lon="-1.58079">
        <ele>45.59349</ele>
        <time>2022-05-14T16:35:33.000Z</time>
      </trkpt>
      <trkpt lat="46.40959" lon="-1.58082">
        <ele>45.67206</ele>
        <time>2022-05-14T16:35:35.000Z</time>
      </trkpt>
      <trkpt lat="46.40959" lon="-1.58085">
        <ele>45.89823</ele>
        <time>2022-05-14T16:35:37.000Z</time>
      </trkpt>
      <trkpt lat="46.40959" lon="-1.58089">
        <ele>46.13338</ele>
        <time>2022-05-14T16:35:39.000Z</time>
      </trkpt>
      <trkpt lat="46.40959" lon="-1.58093">
        <ele>46.15076</ele>
        <time>2022-05-14T16:35:41.000Z</time>
      </trkpt>
      <trkpt lat="46.40959" lon="-1.58096">
        <ele>46.27373</ele>
        <time>2022-05-14T16:35:43.000Z</time>
      </trkpt>
      <trkpt lat="46.40959" lon="-1.581">
        <ele>46.38461</ele>
        <time>2022-05-14T16:35:45.000Z</time>
      </trkpt>
      <trkpt lat="46.40959" lon="-1.58103">
        <ele>46.41569</ele>
        <time>2022-05-14T16:35:48.000Z</time>
      </trkpt>
      <trkpt lat="46.40959" lon="-1.58106">
        <ele>46.46439</ele>
        <time>2022-05-14T16:35:50.000Z</time>
      </trkpt>
      <trkpt lat="46.40959" lon="-1.58108">
        <ele>46.5238</ele>
        <time>2022-05-14T16:35:53.000Z</time>
      </trkpt>
      <trkpt lat="46.40959" lon="-1.58112">
        <ele>46.59497</ele>
        <time>2022-05-14T16:35:56.000Z</time>
      </trkpt>
      <trkpt lat="46.40959" lon="-1.58115">
        <ele>46.40108</ele>
        <time>2022-05-14T16:35:58.000Z</time>
      </trkpt>
      <trkpt lat="46.40959" lon="-1.58118">
        <ele>46.31099</ele>
        <time>2022-05-14T16:36:00.000Z</time>
      </trkpt>
      <trkpt lat="46.40958" lon="-1.58121">
        <ele>46.25845</ele>
        <time>2022-05-14T16:36:02.000Z</time>
      </trkpt>
      <trkpt lat="46.40958" lon="-1.58124">
        <ele>46.1724</ele>
        <time>2022-05-14T16:36:04.000Z</time>
      </trkpt>
      <trkpt lat="46.40958" lon="-1.58127">
        <ele>46.05976</ele>
        <time>2022-05-14T16:36:06.000Z</time>
      </trkpt>
      <trkpt lat="46.40958" lon="-1.58129">
        <ele>45.94905</ele>
        <time>2022-05-14T16:36:08.000Z</time>
      </trkpt>
      <trkpt lat="46.40957" lon="-1.58132">
        <ele>45.73967</ele>
        <time>2022-05-14T16:36:10.000Z</time>
      </trkpt>
      <trkpt lat="46.40957" lon="-1.58136">
        <ele>45.57911</ele>
        <time>2022-05-14T16:36:13.000Z</time>
      </trkpt>
      <trkpt lat="46.40957" lon="-1.5814">
        <ele>45.40104</ele>
        <time>2022-05-14T16:36:16.000Z</time>
      </trkpt>
      <trkpt lat="46.40957" lon="-1.58142">
        <ele>45.31292</ele>
        <time>2022-05-14T16:36:18.000Z</time>
      </trkpt>
      <trkpt lat="46.40958" lon="-1.58146">
        <ele>45.12713</ele>
        <time>2022-05-14T16:36:22.000Z</time>
      </trkpt>
      <trkpt lat="46.40959" lon="-1.58149">
        <ele>44.83701</ele>
        <time>2022-05-14T16:36:25.000Z</time>
      </trkpt>
      <trkpt lat="46.4096" lon="-1.58152">
        <ele>44.60607</ele>
        <time>2022-05-14T16:36:27.000Z</time>
      </trkpt>
      <trkpt lat="46.4096" lon="-1.58155">
        <ele>44.45152</ele>
        <time>2022-05-14T16:36:29.000Z</time>
      </trkpt>
      <trkpt lat="46.40961" lon="-1.58157">
        <ele>44.21891</ele>
        <time>2022-05-14T16:36:31.000Z</time>
      </trkpt>
      <trkpt lat="46.40962" lon="-1.5816">
        <ele>43.92422</ele>
        <time>2022-05-14T16:36:34.000Z</time>
      </trkpt>
      <trkpt lat="46.40962" lon="-1.58163">
        <ele>43.72357</ele>
        <time>2022-05-14T16:36:36.000Z</time>
      </trkpt>
      <trkpt lat="46.40962" lon="-1.58166">
        <ele>43.55245</ele>
        <time>2022-05-14T16:36:38.000Z</time>
      </trkpt>
      <trkpt lat="46.40963" lon="-1.58169">
        <ele>43.36646</ele>
        <time>2022-05-14T16:36:40.000Z</time>
      </trkpt>
      <trkpt lat="46.40963" lon="-1.58172">
        <ele>43.19822</ele>
        <time>2022-05-14T16:36:42.000Z</time>
      </trkpt>
      <trkpt lat="46.40963" lon="-1.58176">
        <ele>43.1483</ele>
        <time>2022-05-14T16:36:44.000Z</time>
      </trkpt>
      <trkpt lat="46.40964" lon="-1.58179">
        <ele>43.10488</ele>
        <time>2022-05-14T16:36:46.000Z</time>
      </trkpt>
      <trkpt lat="46.40964" lon="-1.58182">
        <ele>43.00028</ele>
        <time>2022-05-14T16:36:48.000Z</time>
      </trkpt>
      <trkpt lat="46.40965" lon="-1.58185">
        <ele>42.93168</ele>
        <time>2022-05-14T16:36:50.000Z</time>
      </trkpt>
      <trkpt lat="46.40965" lon="-1.58189">
        <ele>42.90685</ele>
        <time>2022-05-14T16:36:52.000Z</time>
      </trkpt>
      <trkpt lat="46.40966" lon="-1.58192">
        <ele>42.87873</ele>
        <time>2022-05-14T16:36:54.000Z</time>
      </trkpt>
      <trkpt lat="46.40966" lon="-1.58195">
        <ele>42.8876</ele>
        <time>2022-05-14T16:36:57.000Z</time>
      </trkpt>
      <trkpt lat="46.40967" lon="-1.58198">
        <ele>42.75285</ele>
        <time>2022-05-14T16:36:59.000Z</time>
      </trkpt>
      <trkpt lat="46.40967" lon="-1.582">
        <ele>42.6618</ele>
        <time>2022-05-14T16:37:01.000Z</time>
      </trkpt>
      <trkpt lat="46.40967" lon="-1.58204">
        <ele>42.62237</ele>
        <time>2022-05-14T16:37:03.000Z</time>
      </trkpt>
      <trkpt lat="46.40968" lon="-1.58207">
        <ele>42.73741</ele>
        <time>2022-05-14T16:37:05.000Z</time>
      </trkpt>
      <trkpt lat="46.40968" lon="-1.5821">
        <ele>42.9139</ele>
        <time>2022-05-14T16:37:07.000Z</time>
      </trkpt>
      <trkpt lat="46.40968" lon="-1.58214">
        <ele>43.17229</ele>
        <time>2022-05-14T16:37:09.000Z</time>
      </trkpt>
      <trkpt lat="46.40969" lon="-1.58218">
        <ele>43.35281</ele>
        <time>2022-05-14T16:37:12.000Z</time>
      </trkpt>
      <trkpt lat="46.4097" lon="-1.58221">
        <ele>43.53709</ele>
        <time>2022-05-14T16:37:15.000Z</time>
      </trkpt>
      <trkpt lat="46.40971" lon="-1.58223">
        <ele>43.78682</ele>
        <time>2022-05-14T16:37:17.000Z</time>
      </trkpt>
      <trkpt lat="46.40972" lon="-1.58225">
        <ele>44.03415</ele>
        <time>2022-05-14T16:37:19.000Z</time>
      </trkpt>
      <trkpt lat="46.40974" lon="-1.58228">
        <ele>44.24666</ele>
        <time>2022-05-14T16:37:22.000Z</time>
      </trkpt>
      <trkpt lat="46.40974" lon="-1.58231">
        <ele>44.51499</ele>
        <time>2022-05-14T16:37:24.000Z</time>
      </trkpt>
      <trkpt lat="46.40974" lon="-1.58235">
        <ele>44.73853</ele>
        <time>2022-05-14T16:37:27.000Z</time>
      </trkpt>
      <trkpt lat="46.40974" lon="-1.58238">
        <ele>44.91422</ele>
        <time>2022-05-14T16:37:29.000Z</time>
      </trkpt>
      <trkpt lat="46.40975" lon="-1.58241">
        <ele>45.0999</ele>
        <time>2022-05-14T16:37:31.000Z</time>
      </trkpt>
      <trkpt lat="46.40975" lon="-1.58244">
        <ele>45.31476</ele>
        <time>2022-05-14T16:37:33.000Z</time>
      </trkpt>
      <trkpt lat="46.40975" lon="-1.58247">
        <ele>45.50987</ele>
        <time>2022-05-14T16:37:35.000Z</time>
      </trkpt>
      <trkpt lat="46.40976" lon="-1.5825">
        <ele>45.6834</ele>
        <time>2022-05-14T16:37:37.000Z</time>
      </trkpt>
      <trkpt lat="46.40977" lon="-1.58252">
        <ele>45.86209</ele>
        <time>2022-05-14T16:37:39.000Z</time>
      </trkpt>
      <trkpt lat="46.40978" lon="-1.58255">
        <ele>46.05473</ele>
        <time>2022-05-14T16:37:41.000Z</time>
      </trkpt>
      <trkpt lat="46.40979" lon="-1.58257">
        <ele>46.26358</ele>
        <time>2022-05-14T16:37:43.000Z</time>
      </trkpt>
      <trkpt lat="46.40981" lon="-1.58259">
        <ele>46.41874</ele>
        <time>2022-05-14T16:37:45.000Z</time>
      </trkpt>
      <trkpt lat="46.40982" lon="-1.58261">
        <ele>46.56009</ele>
        <time>2022-05-14T16:37:47.000Z</time>
      </trkpt>
      <trkpt lat="46.40984" lon="-1.58262">
        <ele>46.69843</ele>
        <time>2022-05-14T16:37:50.000Z</time>
      </trkpt>
      <trkpt lat="46.40986" lon="-1.58263">
        <ele>46.80683</ele>
        <time>2022-05-14T16:37:53.000Z</time>
      </trkpt>
      <trkpt lat="46.40986" lon="-1.58266">
        <ele>46.84097</ele>
        <time>2022-05-14T16:37:57.000Z</time>
      </trkpt>
      <trkpt lat="46.40987" lon="-1.5827">
        <ele>46.91927</ele>
        <time>2022-05-14T16:37:59.000Z</time>
      </trkpt>
      <trkpt lat="46.40985" lon="-1.58273">
        <ele>47.02268</ele>
        <time>2022-05-14T16:38:02.000Z</time>
      </trkpt>
      <trkpt lat="46.40986" lon="-1.58276">
        <ele>47.13276</ele>
        <time>2022-05-14T16:38:06.000Z</time>
      </trkpt>
      <trkpt lat="46.40984" lon="-1.58277">
        <ele>47.11063</ele>
        <time>2022-05-14T16:38:13.000Z</time>
      </trkpt>
      <trkpt lat="46.40982" lon="-1.58278">
        <ele>47.00366</ele>
        <time>2022-05-14T16:38:15.000Z</time>
      </trkpt>
      <trkpt lat="46.4098" lon="-1.58279">
        <ele>46.89674</ele>
        <time>2022-05-14T16:38:17.000Z</time>
      </trkpt>
      <trkpt lat="46.40978" lon="-1.5828">
        <ele>46.75406</ele>
        <time>2022-05-14T16:38:20.000Z</time>
      </trkpt>
      <trkpt lat="46.4098" lon="-1.58282">
        <ele>46.99403</ele>
        <time>2022-05-14T16:44:21.000Z</time>
      </trkpt>
      <trkpt lat="46.40982" lon="-1.58282">
        <ele>47.28418</ele>
        <time>2022-05-14T16:44:34.000Z</time>
      </trkpt>
      <trkpt lat="46.40984" lon="-1.58282">
        <ele>47.67459</ele>
        <time>2022-05-14T16:44:53.000Z</time>
      </trkpt>
      <trkpt lat="46.40984" lon="-1.5828">
        <ele>48.16762</ele>
        <time>2022-05-14T16:45:35.000Z</time>
      </trkpt>
      <trkpt lat="46.40983" lon="-1.58275">
        <ele>48.63187</ele>
        <time>2022-05-14T16:45:37.000Z</time>
      </trkpt>
      <trkpt lat="46.40983" lon="-1.58271">
        <ele>49.14208</ele>
        <time>2022-05-14T16:45:39.000Z</time>
      </trkpt>
      <trkpt lat="46.40982" lon="-1.58268">
        <ele>49.57152</ele>
        <time>2022-05-14T16:45:41.000Z</time>
      </trkpt>
      <trkpt lat="46.40981" lon="-1.58264">
        <ele>49.96189</ele>
        <time>2022-05-14T16:45:43.000Z</time>
      </trkpt>
      <trkpt lat="46.40979" lon="-1.5826">
        <ele>50.34393</ele>
        <time>2022-05-14T16:45:45.000Z</time>
      </trkpt>
      <trkpt lat="46.40978" lon="-1.58256">
        <ele>50.68769</ele>
        <time>2022-05-14T16:45:47.000Z</time>
      </trkpt>
      <trkpt lat="46.40977" lon="-1.58252">
        <ele>51.05152</ele>
        <time>2022-05-14T16:45:49.000Z</time>
      </trkpt>
      <trkpt lat="46.40976" lon="-1.58248">
        <ele>51.40334</ele>
        <time>2022-05-14T16:45:51.000Z</time>
      </trkpt>
      <trkpt lat="46.40976" lon="-1.58244">
        <ele>51.73038</ele>
        <time>2022-05-14T16:45:53.000Z</time>
      </trkpt>
      <trkpt lat="46.40974" lon="-1.5824">
        <ele>52.05795</ele>
        <time>2022-05-14T16:45:55.000Z</time>
      </trkpt>
      <trkpt lat="46.40973" lon="-1.58236">
        <ele>52.40393</ele>
        <time>2022-05-14T16:45:57.000Z</time>
      </trkpt>
      <trkpt lat="46.40972" lon="-1.58232">
        <ele>52.76481</ele>
        <time>2022-05-14T16:45:59.000Z</time>
      </trkpt>
      <trkpt lat="46.40971" lon="-1.58227">
        <ele>53.22827</ele>
        <time>2022-05-14T16:46:01.000Z</time>
      </trkpt>
      <trkpt lat="46.40971" lon="-1.58223">
        <ele>53.81037</ele>
        <time>2022-05-14T16:46:03.000Z</time>
      </trkpt>
      <trkpt lat="46.4097" lon="-1.58219">
        <ele>54.3554</ele>
        <time>2022-05-14T16:46:05.000Z</time>
      </trkpt>
      <trkpt lat="46.40969" lon="-1.58214">
        <ele>54.97444</ele>
        <time>2022-05-14T16:46:07.000Z</time>
      </trkpt>
      <trkpt lat="46.40968" lon="-1.58211">
        <ele>55.19342</ele>
        <time>2022-05-14T16:46:09.000Z</time>
      </trkpt>
      <trkpt lat="46.40968" lon="-1.58207">
        <ele>55.29714</ele>
        <time>2022-05-14T16:46:11.000Z</time>
      </trkpt>
      <trkpt lat="46.40967" lon="-1.58203">
        <ele>55.31545</ele>
        <time>2022-05-14T16:46:13.000Z</time>
      </trkpt>
      <trkpt lat="46.40967" lon="-1.58199">
        <ele>55.24175</ele>
        <time>2022-05-14T16:46:15.000Z</time>
      </trkpt>
      <trkpt lat="46.40966" lon="-1.58195">
        <ele>55.20992</ele>
        <time>2022-05-14T16:46:17.000Z</time>
      </trkpt>
      <trkpt lat="46.40965" lon="-1.5819">
        <ele>55.11535</ele>
        <time>2022-05-14T16:46:19.000Z</time>
      </trkpt>
      <trkpt lat="46.40965" lon="-1.58187">
        <ele>55.11342</ele>
        <time>2022-05-14T16:46:21.000Z</time>
      </trkpt>
      <trkpt lat="46.40964" lon="-1.58183">
        <ele>55.11034</ele>
        <time>2022-05-14T16:46:23.000Z</time>
      </trkpt>
      <trkpt lat="46.40964" lon="-1.58179">
        <ele>55.10691</ele>
        <time>2022-05-14T16:46:25.000Z</time>
      </trkpt>
      <trkpt lat="46.40963" lon="-1.58175">
        <ele>55.10901</ele>
        <time>2022-05-14T16:46:27.000Z</time>
      </trkpt>
      <trkpt lat="46.40962" lon="-1.58172">
        <ele>55.10258</ele>
        <time>2022-05-14T16:46:29.000Z</time>
      </trkpt>
      <trkpt lat="46.40961" lon="-1.58168">
        <ele>55.13385</ele>
        <time>2022-05-14T16:46:31.000Z</time>
      </trkpt>
      <trkpt lat="46.40961" lon="-1.58165">
        <ele>55.15432</ele>
        <time>2022-05-14T16:46:33.000Z</time>
      </trkpt>
      <trkpt lat="46.4096" lon="-1.58161">
        <ele>55.13867</ele>
        <time>2022-05-14T16:46:35.000Z</time>
      </trkpt>
      <trkpt lat="46.4096" lon="-1.58157">
        <ele>55.09869</ele>
        <time>2022-05-14T16:46:37.000Z</time>
      </trkpt>
      <trkpt lat="46.4096" lon="-1.58153">
        <ele>55.01129</ele>
        <time>2022-05-14T16:46:39.000Z</time>
      </trkpt>
      <trkpt lat="46.40959" lon="-1.5815">
        <ele>54.97198</ele>
        <time>2022-05-14T16:46:41.000Z</time>
      </trkpt>
      <trkpt lat="46.40959" lon="-1.58146">
        <ele>54.89537</ele>
        <time>2022-05-14T16:46:43.000Z</time>
      </trkpt>
      <trkpt lat="46.40958" lon="-1.58143">
        <ele>54.78198</ele>
        <time>2022-05-14T16:46:45.000Z</time>
      </trkpt>
      <trkpt lat="46.40958" lon="-1.58138">
        <ele>54.71708</ele>
        <time>2022-05-14T16:46:47.000Z</time>
      </trkpt>
      <trkpt lat="46.40958" lon="-1.58133">
        <ele>54.65903</ele>
        <time>2022-05-14T16:46:49.000Z</time>
      </trkpt>
      <trkpt lat="46.40958" lon="-1.58129">
        <ele>54.66184</ele>
        <time>2022-05-14T16:46:51.000Z</time>
      </trkpt>
      <trkpt lat="46.40958" lon="-1.58125">
        <ele>54.75332</ele>
        <time>2022-05-14T16:46:53.000Z</time>
      </trkpt>
      <trkpt lat="46.40958" lon="-1.58122">
        <ele>54.72197</ele>
        <time>2022-05-14T16:46:55.000Z</time>
      </trkpt>
      <trkpt lat="46.40959" lon="-1.58119">
        <ele>54.63856</ele>
        <time>2022-05-14T16:46:57.000Z</time>
      </trkpt>
      <trkpt lat="46.4096" lon="-1.58116">
        <ele>54.34155</ele>
        <time>2022-05-14T16:47:00.000Z</time>
      </trkpt>
      <trkpt lat="46.4096" lon="-1.58113">
        <ele>54.00687</ele>
        <time>2022-05-14T16:47:02.000Z</time>
      </trkpt>
      <trkpt lat="46.4096" lon="-1.58109">
        <ele>53.70565</ele>
        <time>2022-05-14T16:47:04.000Z</time>
      </trkpt>
      <trkpt lat="46.4096" lon="-1.58104">
        <ele>53.43885</ele>
        <time>2022-05-14T16:47:06.000Z</time>
      </trkpt>
      <trkpt lat="46.4096" lon="-1.581">
        <ele>53.1881</ele>
        <time>2022-05-14T16:47:08.000Z</time>
      </trkpt>
      <trkpt lat="46.4096" lon="-1.58097">
        <ele>52.94014</ele>
        <time>2022-05-14T16:47:10.000Z</time>
      </trkpt>
      <trkpt lat="46.40961" lon="-1.58093">
        <ele>52.65731</ele>
        <time>2022-05-14T16:47:12.000Z</time>
      </trkpt>
      <trkpt lat="46.40961" lon="-1.5809">
        <ele>52.41082</ele>
        <time>2022-05-14T16:47:14.000Z</time>
      </trkpt>
      <trkpt lat="46.40962" lon="-1.58086">
        <ele>52.19497</ele>
        <time>2022-05-14T16:47:16.000Z</time>
      </trkpt>
      <trkpt lat="46.40962" lon="-1.58082">
        <ele>52.05773</ele>
        <time>2022-05-14T16:47:18.000Z</time>
      </trkpt>
      <trkpt lat="46.40961" lon="-1.58077">
        <ele>51.97133</ele>
        <time>2022-05-14T16:47:20.000Z</time>
      </trkpt>
      <trkpt lat="46.40961" lon="-1.58072">
        <ele>51.8554</ele>
        <time>2022-05-14T16:47:22.000Z</time>
      </trkpt>
      <trkpt lat="46.40961" lon="-1.58068">
        <ele>51.73109</ele>
        <time>2022-05-14T16:47:24.000Z</time>
      </trkpt>
      <trkpt lat="46.4096" lon="-1.58064">
        <ele>51.65807</ele>
        <time>2022-05-14T16:47:26.000Z</time>
      </trkpt>
      <trkpt lat="46.4096" lon="-1.5806">
        <ele>51.55299</ele>
        <time>2022-05-14T16:47:28.000Z</time>
      </trkpt>
      <trkpt lat="46.4096" lon="-1.58057">
        <ele>51.37745</ele>
        <time>2022-05-14T16:47:30.000Z</time>
      </trkpt>
      <trkpt lat="46.4096" lon="-1.58053">
        <ele>51.25546</ele>
        <time>2022-05-14T16:47:32.000Z</time>
      </trkpt>
      <trkpt lat="46.4096" lon="-1.5805">
        <ele>51.0429</ele>
        <time>2022-05-14T16:47:34.000Z</time>
      </trkpt>
      <trkpt lat="46.40959" lon="-1.58047">
        <ele>50.88886</ele>
        <time>2022-05-14T16:47:36.000Z</time>
      </trkpt>
      <trkpt lat="46.40959" lon="-1.58044">
        <ele>50.77552</ele>
        <time>2022-05-14T16:47:38.000Z</time>
      </trkpt>
      <trkpt lat="46.40959" lon="-1.5804">
        <ele>50.87009</ele>
        <time>2022-05-14T16:47:40.000Z</time>
      </trkpt>
      <trkpt lat="46.40959" lon="-1.58036">
        <ele>50.84969</ele>
        <time>2022-05-14T16:47:42.000Z</time>
      </trkpt>
      <trkpt lat="46.40959" lon="-1.58033">
        <ele>50.76306</ele>
        <time>2022-05-14T16:47:44.000Z</time>
      </trkpt>
      <trkpt lat="46.40959" lon="-1.58029">
        <ele>50.54628</ele>
        <time>2022-05-14T16:47:47.000Z</time>
      </trkpt>
      <trkpt lat="46.40958" lon="-1.58025">
        <ele>50.31005</ele>
        <time>2022-05-14T16:47:49.000Z</time>
      </trkpt>
      <trkpt lat="46.40958" lon="-1.58022">
        <ele>50.05496</ele>
        <time>2022-05-14T16:47:51.000Z</time>
      </trkpt>
      <trkpt lat="46.40957" lon="-1.58018">
        <ele>49.80318</ele>
        <time>2022-05-14T16:47:53.000Z</time>
      </trkpt>
      <trkpt lat="46.40957" lon="-1.58015">
        <ele>49.52623</ele>
        <time>2022-05-14T16:47:55.000Z</time>
      </trkpt>
      <trkpt lat="46.40956" lon="-1.58011">
        <ele>49.23055</ele>
        <time>2022-05-14T16:47:57.000Z</time>
      </trkpt>
      <trkpt lat="46.40955" lon="-1.58008">
        <ele>48.88601</ele>
        <time>2022-05-14T16:47:59.000Z</time>
      </trkpt>
      <trkpt lat="46.40954" lon="-1.58003">
        <ele>48.50658</ele>
        <time>2022-05-14T16:48:01.000Z</time>
      </trkpt>
      <trkpt lat="46.40954" lon="-1.58">
        <ele>48.10699</ele>
        <time>2022-05-14T16:48:03.000Z</time>
      </trkpt>
      <trkpt lat="46.40953" lon="-1.57995">
        <ele>47.72425</ele>
        <time>2022-05-14T16:48:05.000Z</time>
      </trkpt>
      <trkpt lat="46.40952" lon="-1.57992">
        <ele>47.27068</ele>
        <time>2022-05-14T16:48:07.000Z</time>
      </trkpt>
      <trkpt lat="46.40951" lon="-1.57988">
        <ele>46.81057</ele>
        <time>2022-05-14T16:48:09.000Z</time>
      </trkpt>
      <trkpt lat="46.4095" lon="-1.57984">
        <ele>46.37651</ele>
        <time>2022-05-14T16:48:11.000Z</time>
      </trkpt>
      <trkpt lat="46.4095" lon="-1.5798">
        <ele>45.89887</ele>
        <time>2022-05-14T16:48:13.000Z</time>
      </trkpt>
      <trkpt lat="46.40949" lon="-1.57976">
        <ele>45.39162</ele>
        <time>2022-05-14T16:48:15.000Z</time>
      </trkpt>
      <trkpt lat="46.40948" lon="-1.57972">
        <ele>44.93592</ele>
        <time>2022-05-14T16:48:17.000Z</time>
      </trkpt>
      <trkpt lat="46.40947" lon="-1.57968">
        <ele>44.5023</ele>
        <time>2022-05-14T16:48:19.000Z</time>
      </trkpt>
      <trkpt lat="46.40947" lon="-1.57964">
        <ele>44.13131</ele>
        <time>2022-05-14T16:48:21.000Z</time>
      </trkpt>
      <trkpt lat="46.40946" lon="-1.57961">
        <ele>43.92551</ele>
        <time>2022-05-14T16:48:23.000Z</time>
      </trkpt>
      <trkpt lat="46.40945" lon="-1.57956">
        <ele>43.87661</ele>
        <time>2022-05-14T16:48:25.000Z</time>
      </trkpt>
      <trkpt lat="46.40944" lon="-1.57953">
        <ele>43.92167</ele>
        <time>2022-05-14T16:48:27.000Z</time>
      </trkpt>
      <trkpt lat="46.40943" lon="-1.57949">
        <ele>43.96418</ele>
        <time>2022-05-14T16:48:29.000Z</time>
      </trkpt>
      <trkpt lat="46.40941" lon="-1.57946">
        <ele>44.02031</ele>
        <time>2022-05-14T16:48:31.000Z</time>
      </trkpt>
      <trkpt lat="46.4094" lon="-1.57941">
        <ele>44.08268</ele>
        <time>2022-05-14T16:48:33.000Z</time>
      </trkpt>
      <trkpt lat="46.40939" lon="-1.57938">
        <ele>44.12906</ele>
        <time>2022-05-14T16:48:35.000Z</time>
      </trkpt>
      <trkpt lat="46.40938" lon="-1.57935">
        <ele>44.16516</ele>
        <time>2022-05-14T16:48:37.000Z</time>
      </trkpt>
      <trkpt lat="46.40937" lon="-1.57931">
        <ele>44.19337</ele>
        <time>2022-05-14T16:48:39.000Z</time>
      </trkpt>
      <trkpt lat="46.40937" lon="-1.57928">
        <ele>44.24193</ele>
        <time>2022-05-14T16:48:41.000Z</time>
      </trkpt>
      <trkpt lat="46.40937" lon="-1.57924">
        <ele>44.36831</ele>
        <time>2022-05-14T16:48:43.000Z</time>
      </trkpt>
      <trkpt lat="46.40937" lon="-1.57921">
        <ele>44.49643</ele>
        <time>2022-05-14T16:48:45.000Z</time>
      </trkpt>
      <trkpt lat="46.40937" lon="-1.57917">
        <ele>44.6478</ele>
        <time>2022-05-14T16:48:48.000Z</time>
      </trkpt>
      <trkpt lat="46.40936" lon="-1.57914">
        <ele>44.77762</ele>
        <time>2022-05-14T16:48:49.000Z</time>
      </trkpt>
      <trkpt lat="46.40936" lon="-1.57911">
        <ele>44.93634</ele>
        <time>2022-05-14T16:48:50.000Z</time>
      </trkpt>
      <trkpt lat="46.40935" lon="-1.57907">
        <ele>45.0185</ele>
        <time>2022-05-14T16:48:52.000Z</time>
      </trkpt>
      <trkpt lat="46.40935" lon="-1.57904">
        <ele>45.14145</ele>
        <time>2022-05-14T16:48:54.000Z</time>
      </trkpt>
      <trkpt lat="46.40935" lon="-1.57901">
        <ele>45.28733</ele>
        <time>2022-05-14T16:48:56.000Z</time>
      </trkpt>
      <trkpt lat="46.40936" lon="-1.57897">
        <ele>45.4177</ele>
        <time>2022-05-14T16:48:58.000Z</time>
      </trkpt>
      <trkpt lat="46.40935" lon="-1.57893">
        <ele>45.49243</ele>
        <time>2022-05-14T16:49:00.000Z</time>
      </trkpt>
      <trkpt lat="46.40935" lon="-1.5789">
        <ele>45.57232</ele>
        <time>2022-05-14T16:49:02.000Z</time>
      </trkpt>
      <trkpt lat="46.40934" lon="-1.57886">
        <ele>45.60318</ele>
        <time>2022-05-14T16:49:04.000Z</time>
      </trkpt>
      <trkpt lat="46.40934" lon="-1.57881">
        <ele>45.73999</ele>
        <time>2022-05-14T16:49:06.000Z</time>
      </trkpt>
      <trkpt lat="46.40934" lon="-1.57876">
        <ele>45.89024</ele>
        <time>2022-05-14T16:49:08.000Z</time>
      </trkpt>
      <trkpt lat="46.40933" lon="-1.57871">
        <ele>46.0119</ele>
        <time>2022-05-14T16:49:10.000Z</time>
      </trkpt>
      <trkpt lat="46.40933" lon="-1.57869">
        <ele>46.14659</ele>
        <time>2022-05-14T16:49:11.000Z</time>
      </trkpt>
      <trkpt lat="46.40932" lon="-1.57866">
        <ele>46.32472</ele>
        <time>2022-05-14T16:49:12.000Z</time>
      </trkpt>
      <trkpt lat="46.40932" lon="-1.57861">
        <ele>46.54655</ele>
        <time>2022-05-14T16:49:14.000Z</time>
      </trkpt>
      <trkpt lat="46.40931" lon="-1.57857">
        <ele>46.75196</ele>
        <time>2022-05-14T16:49:16.000Z</time>
      </trkpt>
      <trkpt lat="46.4093" lon="-1.57853">
        <ele>47.00605</ele>
        <time>2022-05-14T16:49:18.000Z</time>
      </trkpt>
      <trkpt lat="46.4093" lon="-1.57849">
        <ele>47.24953</ele>
        <time>2022-05-14T16:49:20.000Z</time>
      </trkpt>
      <trkpt lat="46.4093" lon="-1.57844">
        <ele>47.47216</ele>
        <time>2022-05-14T16:49:22.000Z</time>
      </trkpt>
      <trkpt lat="46.40929" lon="-1.5784">
        <ele>47.72606</ele>
        <time>2022-05-14T16:49:24.000Z</time>
      </trkpt>
      <trkpt lat="46.40928" lon="-1.57835">
        <ele>47.9937</ele>
        <time>2022-05-14T16:49:26.000Z</time>
      </trkpt>
      <trkpt lat="46.40928" lon="-1.57831">
        <ele>48.32531</ele>
        <time>2022-05-14T16:49:28.000Z</time>
      </trkpt>
      <trkpt lat="46.40928" lon="-1.57827">
        <ele>48.69964</ele>
        <time>2022-05-14T16:49:30.000Z</time>
      </trkpt>
      <trkpt lat="46.40929" lon="-1.57824">
        <ele>49.10896</ele>
        <time>2022-05-14T16:49:32.000Z</time>
      </trkpt>
      <trkpt lat="46.40929" lon="-1.57821">
        <ele>49.53922</ele>
        <time>2022-05-14T16:49:34.000Z</time>
      </trkpt>
      <trkpt lat="46.4093" lon="-1.57817">
        <ele>49.91033</ele>
        <time>2022-05-14T16:49:36.000Z</time>
      </trkpt>
      <trkpt lat="46.40931" lon="-1.57813">
        <ele>50.27131</ele>
        <time>2022-05-14T16:49:38.000Z</time>
      </trkpt>
      <trkpt lat="46.40931" lon="-1.57809">
        <ele>50.59818</ele>
        <time>2022-05-14T16:49:40.000Z</time>
      </trkpt>
      <trkpt lat="46.40932" lon="-1.57804">
        <ele>50.82769</ele>
        <time>2022-05-14T16:49:42.000Z</time>
      </trkpt>
      <trkpt lat="46.40933" lon="-1.578">
        <ele>50.99723</ele>
        <time>2022-05-14T16:49:44.000Z</time>
      </trkpt>
      <trkpt lat="46.40935" lon="-1.57799">
        <ele>51.11975</ele>
        <time>2022-05-14T16:49:46.000Z</time>
      </trkpt>
      <trkpt lat="46.40936" lon="-1.57796">
        <ele>51.30891</ele>
        <time>2022-05-14T16:49:48.000Z</time>
      </trkpt>
      <trkpt lat="46.40938" lon="-1.57794">
        <ele>51.47916</ele>
        <time>2022-05-14T16:49:51.000Z</time>
      </trkpt>
      <trkpt lat="46.4094" lon="-1.57792">
        <ele>51.64657</ele>
        <time>2022-05-14T16:49:53.000Z</time>
      </trkpt>
      <trkpt lat="46.40941" lon="-1.57789">
        <ele>51.84112</ele>
        <time>2022-05-14T16:49:55.000Z</time>
      </trkpt>
      <trkpt lat="46.40943" lon="-1.57786">
        <ele>52.04603</ele>
        <time>2022-05-14T16:49:57.000Z</time>
      </trkpt>
      <trkpt lat="46.40945" lon="-1.57784">
        <ele>52.26406</ele>
        <time>2022-05-14T16:49:59.000Z</time>
      </trkpt>
      <trkpt lat="46.40948" lon="-1.57781">
        <ele>52.49548</ele>
        <time>2022-05-14T16:50:01.000Z</time>
      </trkpt>
      <trkpt lat="46.40951" lon="-1.57778">
        <ele>52.76593</ele>
        <time>2022-05-14T16:50:03.000Z</time>
      </trkpt>
      <trkpt lat="46.40953" lon="-1.57776">
        <ele>53.04292</ele>
        <time>2022-05-14T16:50:05.000Z</time>
      </trkpt>
      <trkpt lat="46.40955" lon="-1.57773">
        <ele>53.30106</ele>
        <time>2022-05-14T16:50:07.000Z</time>
      </trkpt>
      <trkpt lat="46.40956" lon="-1.57769">
        <ele>53.48961</ele>
        <time>2022-05-14T16:50:09.000Z</time>
      </trkpt>
      <trkpt lat="46.40956" lon="-1.57765">
        <ele>53.7264</ele>
        <time>2022-05-14T16:50:11.000Z</time>
      </trkpt>
      <trkpt lat="46.40956" lon="-1.57762">
        <ele>53.92332</ele>
        <time>2022-05-14T16:50:12.000Z</time>
      </trkpt>
      <trkpt lat="46.40955" lon="-1.5776">
        <ele>54.08055</ele>
        <time>2022-05-14T16:50:13.000Z</time>
      </trkpt>
      <trkpt lat="46.40955" lon="-1.57757">
        <ele>54.27081</ele>
        <time>2022-05-14T16:50:15.000Z</time>
      </trkpt>
      <trkpt lat="46.40954" lon="-1.57754">
        <ele>54.5323</ele>
        <time>2022-05-14T16:50:17.000Z</time>
      </trkpt>
      <trkpt lat="46.40953" lon="-1.57749">
        <ele>54.84541</ele>
        <time>2022-05-14T16:50:19.000Z</time>
      </trkpt>
      <trkpt lat="46.40953" lon="-1.57746">
        <ele>55.1636</ele>
        <time>2022-05-14T16:50:21.000Z</time>
      </trkpt>
      <trkpt lat="46.40952" lon="-1.57742">
        <ele>55.36951</ele>
        <time>2022-05-14T16:50:23.000Z</time>
      </trkpt>
      <trkpt lat="46.40952" lon="-1.57739">
        <ele>55.61098</ele>
        <time>2022-05-14T16:50:25.000Z</time>
      </trkpt>
      <trkpt lat="46.40951" lon="-1.57736">
        <ele>55.81354</ele>
        <time>2022-05-14T16:50:27.000Z</time>
      </trkpt>
      <trkpt lat="46.4095" lon="-1.57732">
        <ele>56.0004</ele>
        <time>2022-05-14T16:50:29.000Z</time>
      </trkpt>
      <trkpt lat="46.4095" lon="-1.57729">
        <ele>56.1603</ele>
        <time>2022-05-14T16:50:30.000Z</time>
      </trkpt>
      <trkpt lat="46.40949" lon="-1.57726">
        <ele>56.24165</ele>
        <time>2022-05-14T16:50:31.000Z</time>
      </trkpt>
      <trkpt lat="46.40948" lon="-1.57721">
        <ele>56.32966</ele>
        <time>2022-05-14T16:50:33.000Z</time>
      </trkpt>
      <trkpt lat="46.40947" lon="-1.57719">
        <ele>56.33428</ele>
        <time>2022-05-14T16:50:34.000Z</time>
      </trkpt>
      <trkpt lat="46.40946" lon="-1.57715">
        <ele>56.19936</ele>
        <time>2022-05-14T16:50:36.000Z</time>
      </trkpt>
      <trkpt lat="46.40946" lon="-1.57712">
        <ele>55.94631</ele>
        <time>2022-05-14T16:50:38.000Z</time>
      </trkpt>
      <trkpt lat="46.40945" lon="-1.57708">
        <ele>55.63624</ele>
        <time>2022-05-14T16:50:40.000Z</time>
      </trkpt>
      <trkpt lat="46.40944" lon="-1.57704">
        <ele>55.4296</ele>
        <time>2022-05-14T16:50:42.000Z</time>
      </trkpt>
      <trkpt lat="46.40944" lon="-1.57701">
        <ele>55.24093</ele>
        <time>2022-05-14T16:50:44.000Z</time>
      </trkpt>
      <trkpt lat="46.40943" lon="-1.57697">
        <ele>55.03928</ele>
        <time>2022-05-14T16:50:46.000Z</time>
      </trkpt>
      <trkpt lat="46.40942" lon="-1.57693">
        <ele>54.77942</ele>
        <time>2022-05-14T16:50:48.000Z</time>
      </trkpt>
      <trkpt lat="46.40941" lon="-1.57689">
        <ele>54.52814</ele>
        <time>2022-05-14T16:50:50.000Z</time>
      </trkpt>
      <trkpt lat="46.4094" lon="-1.57685">
        <ele>54.28848</ele>
        <time>2022-05-14T16:50:52.000Z</time>
      </trkpt>
      <trkpt lat="46.4094" lon="-1.57681">
        <ele>53.9835</ele>
        <time>2022-05-14T16:50:54.000Z</time>
      </trkpt>
      <trkpt lat="46.40939" lon="-1.57677">
        <ele>53.52581</ele>
        <time>2022-05-14T16:50:56.000Z</time>
      </trkpt>
      <trkpt lat="46.40938" lon="-1.57674">
        <ele>53.0593</ele>
        <time>2022-05-14T16:50:58.000Z</time>
      </trkpt>
      <trkpt lat="46.40937" lon="-1.5767">
        <ele>52.69684</ele>
        <time>2022-05-14T16:51:00.000Z</time>
      </trkpt>
      <trkpt lat="46.40937" lon="-1.57666">
        <ele>52.37453</ele>
        <time>2022-05-14T16:51:02.000Z</time>
      </trkpt>
      <trkpt lat="46.40936" lon="-1.57662">
        <ele>52.06731</ele>
        <time>2022-05-14T16:51:04.000Z</time>
      </trkpt>
      <trkpt lat="46.40936" lon="-1.57658">
        <ele>51.76168</ele>
        <time>2022-05-14T16:51:06.000Z</time>
      </trkpt>
      <trkpt lat="46.40935" lon="-1.57654">
        <ele>51.50767</ele>
        <time>2022-05-14T16:51:08.000Z</time>
      </trkpt>
      <trkpt lat="46.40935" lon="-1.5765">
        <ele>51.26289</ele>
        <time>2022-05-14T16:51:10.000Z</time>
      </trkpt>
      <trkpt lat="46.40934" lon="-1.57646">
        <ele>51.03739</ele>
        <time>2022-05-14T16:51:12.000Z</time>
      </trkpt>
      <trkpt lat="46.40933" lon="-1.57642">
        <ele>50.88262</ele>
        <time>2022-05-14T16:51:14.000Z</time>
      </trkpt>
      <trkpt lat="46.40931" lon="-1.57638">
        <ele>50.90859</ele>
        <time>2022-05-14T16:51:16.000Z</time>
      </trkpt>
      <trkpt lat="46.4093" lon="-1.57635">
        <ele>50.93226</ele>
        <time>2022-05-14T16:51:18.000Z</time>
      </trkpt>
      <trkpt lat="46.4093" lon="-1.57631">
        <ele>51.05362</ele>
        <time>2022-05-14T16:51:20.000Z</time>
      </trkpt>
      <trkpt lat="46.40931" lon="-1.57627">
        <ele>51.13381</ele>
        <time>2022-05-14T16:51:22.000Z</time>
      </trkpt>
      <trkpt lat="46.40931" lon="-1.57623">
        <ele>51.25489</ele>
        <time>2022-05-14T16:51:24.000Z</time>
      </trkpt>
      <trkpt lat="46.40931" lon="-1.57619">
        <ele>51.3381</ele>
        <time>2022-05-14T16:51:26.000Z</time>
      </trkpt>
      <trkpt lat="46.40931" lon="-1.57614">
        <ele>51.4979</ele>
        <time>2022-05-14T16:51:28.000Z</time>
      </trkpt>
      <trkpt lat="46.40931" lon="-1.5761">
        <ele>51.62242</ele>
        <time>2022-05-14T16:51:30.000Z</time>
      </trkpt>
      <trkpt lat="46.40931" lon="-1.57605">
        <ele>51.7869</ele>
        <time>2022-05-14T16:51:32.000Z</time>
      </trkpt>
      <trkpt lat="46.4093" lon="-1.57602">
        <ele>52.08396</ele>
        <time>2022-05-14T16:51:34.000Z</time>
      </trkpt>
      <trkpt lat="46.4093" lon="-1.57598">
        <ele>52.43992</ele>
        <time>2022-05-14T16:51:36.000Z</time>
      </trkpt>
      <trkpt lat="46.40929" lon="-1.57595">
        <ele>52.72771</ele>
        <time>2022-05-14T16:51:38.000Z</time>
      </trkpt>
      <trkpt lat="46.40929" lon="-1.5759">
        <ele>52.96085</ele>
        <time>2022-05-14T16:51:40.000Z</time>
      </trkpt>
      <trkpt lat="46.40928" lon="-1.57586">
        <ele>53.16468</ele>
        <time>2022-05-14T16:51:42.000Z</time>
      </trkpt>
      <trkpt lat="46.40928" lon="-1.57582">
        <ele>53.38136</ele>
        <time>2022-05-14T16:51:44.000Z</time>
      </trkpt>
      <trkpt lat="46.40928" lon="-1.57578">
        <ele>53.58851</ele>
        <time>2022-05-14T16:51:46.000Z</time>
      </trkpt>
      <trkpt lat="46.40927" lon="-1.57574">
        <ele>53.80413</ele>
        <time>2022-05-14T16:51:48.000Z</time>
      </trkpt>
      <trkpt lat="46.40927" lon="-1.5757">
        <ele>54.05289</ele>
        <time>2022-05-14T16:51:50.000Z</time>
      </trkpt>
      <trkpt lat="46.40927" lon="-1.57566">
        <ele>54.23464</ele>
        <time>2022-05-14T16:51:52.000Z</time>
      </trkpt>
      <trkpt lat="46.40926" lon="-1.57561">
        <ele>54.32137</ele>
        <time>2022-05-14T16:51:54.000Z</time>
      </trkpt>
      <trkpt lat="46.40926" lon="-1.57557">
        <ele>54.31749</ele>
        <time>2022-05-14T16:51:56.000Z</time>
      </trkpt>
      <trkpt lat="46.40926" lon="-1.57553">
        <ele>54.3441</ele>
        <time>2022-05-14T16:51:58.000Z</time>
      </trkpt>
      <trkpt lat="46.40926" lon="-1.57549">
        <ele>54.3182</ele>
        <time>2022-05-14T16:52:00.000Z</time>
      </trkpt>
      <trkpt lat="46.40925" lon="-1.57545">
        <ele>54.16424</ele>
        <time>2022-05-14T16:52:02.000Z</time>
      </trkpt>
      <trkpt lat="46.40925" lon="-1.57541">
        <ele>53.86592</ele>
        <time>2022-05-14T16:52:04.000Z</time>
      </trkpt>
      <trkpt lat="46.40924" lon="-1.57537">
        <ele>53.71304</ele>
        <time>2022-05-14T16:52:06.000Z</time>
      </trkpt>
      <trkpt lat="46.40923" lon="-1.57533">
        <ele>53.53759</ele>
        <time>2022-05-14T16:52:08.000Z</time>
      </trkpt>
      <trkpt lat="46.40923" lon="-1.5753">
        <ele>53.45455</ele>
        <time>2022-05-14T16:52:10.000Z</time>
      </trkpt>
      <trkpt lat="46.40922" lon="-1.57525">
        <ele>53.50439</ele>
        <time>2022-05-14T16:52:12.000Z</time>
      </trkpt>
      <trkpt lat="46.40922" lon="-1.5752">
        <ele>53.47335</ele>
        <time>2022-05-14T16:52:14.000Z</time>
      </trkpt>
      <trkpt lat="46.40922" lon="-1.57516">
        <ele>53.60513</ele>
        <time>2022-05-14T16:52:16.000Z</time>
      </trkpt>
      <trkpt lat="46.40921" lon="-1.57511">
        <ele>53.90623</ele>
        <time>2022-05-14T16:52:18.000Z</time>
      </trkpt>
      <trkpt lat="46.40921" lon="-1.57506">
        <ele>54.29015</ele>
        <time>2022-05-14T16:52:20.000Z</time>
      </trkpt>
      <trkpt lat="46.40921" lon="-1.57502">
        <ele>54.71719</ele>
        <time>2022-05-14T16:52:22.000Z</time>
      </trkpt>
      <trkpt lat="46.40921" lon="-1.57498">
        <ele>55.13377</ele>
        <time>2022-05-14T16:52:24.000Z</time>
      </trkpt>
      <trkpt lat="46.4092" lon="-1.57494">
        <ele>55.54714</ele>
        <time>2022-05-14T16:52:26.000Z</time>
      </trkpt>
      <trkpt lat="46.40919" lon="-1.5749">
        <ele>55.91957</ele>
        <time>2022-05-14T16:52:28.000Z</time>
      </trkpt>
      <trkpt lat="46.40918" lon="-1.57486">
        <ele>56.19799</ele>
        <time>2022-05-14T16:52:30.000Z</time>
      </trkpt>
      <trkpt lat="46.40917" lon="-1.57481">
        <ele>56.42747</ele>
        <time>2022-05-14T16:52:32.000Z</time>
      </trkpt>
      <trkpt lat="46.40916" lon="-1.57478">
        <ele>56.6609</ele>
        <time>2022-05-14T16:52:33.000Z</time>
      </trkpt>
      <trkpt lat="46.40916" lon="-1.57474">
        <ele>56.96529</ele>
        <time>2022-05-14T16:52:35.000Z</time>
      </trkpt>
      <trkpt lat="46.40916" lon="-1.57471">
        <ele>57.31136</ele>
        <time>2022-05-14T16:52:36.000Z</time>
      </trkpt>
      <trkpt lat="46.40915" lon="-1.57467">
        <ele>57.63009</ele>
        <time>2022-05-14T16:52:38.000Z</time>
      </trkpt>
      <trkpt lat="46.40915" lon="-1.57463">
        <ele>58.05198</ele>
        <time>2022-05-14T16:52:40.000Z</time>
      </trkpt>
      <trkpt lat="46.40914" lon="-1.5746">
        <ele>58.566</ele>
        <time>2022-05-14T16:52:42.000Z</time>
      </trkpt>
      <trkpt lat="46.40914" lon="-1.57456">
        <ele>58.93374</ele>
        <time>2022-05-14T16:52:44.000Z</time>
      </trkpt>
      <trkpt lat="46.40913" lon="-1.57452">
        <ele>59.27413</ele>
        <time>2022-05-14T16:52:46.000Z</time>
      </trkpt>
      <trkpt lat="46.40913" lon="-1.57447">
        <ele>59.54761</ele>
        <time>2022-05-14T16:52:48.000Z</time>
      </trkpt>
      <trkpt lat="46.40912" lon="-1.57444">
        <ele>59.62013</ele>
        <time>2022-05-14T16:52:50.000Z</time>
      </trkpt>
      <trkpt lat="46.40912" lon="-1.57441">
        <ele>59.58699</ele>
        <time>2022-05-14T16:52:52.000Z</time>
      </trkpt>
      <trkpt lat="46.40912" lon="-1.57437">
        <ele>59.4358</ele>
        <time>2022-05-14T16:52:54.000Z</time>
      </trkpt>
      <trkpt lat="46.40912" lon="-1.57433">
        <ele>59.25684</ele>
        <time>2022-05-14T16:52:56.000Z</time>
      </trkpt>
      <trkpt lat="46.40911" lon="-1.57428">
        <ele>59.11069</ele>
        <time>2022-05-14T16:52:58.000Z</time>
      </trkpt>
      <trkpt lat="46.4091" lon="-1.57424">
        <ele>58.94285</ele>
        <time>2022-05-14T16:53:00.000Z</time>
      </trkpt>
      <trkpt lat="46.40909" lon="-1.57421">
        <ele>58.70185</ele>
        <time>2022-05-14T16:53:01.000Z</time>
      </trkpt>
      <trkpt lat="46.40909" lon="-1.57418">
        <ele>58.45935</ele>
        <time>2022-05-14T16:53:02.000Z</time>
      </trkpt>
      <trkpt lat="46.40908" lon="-1.57414">
        <ele>58.22988</ele>
        <time>2022-05-14T16:53:04.000Z</time>
      </trkpt>
      <trkpt lat="46.40908" lon="-1.57411">
        <ele>58.12303</ele>
        <time>2022-05-14T16:53:05.000Z</time>
      </trkpt>
      <trkpt lat="46.40908" lon="-1.57407">
        <ele>58.10366</ele>
        <time>2022-05-14T16:53:07.000Z</time>
      </trkpt>
      <trkpt lat="46.40907" lon="-1.57404">
        <ele>58.12189</ele>
        <time>2022-05-14T16:53:08.000Z</time>
      </trkpt>
      <trkpt lat="46.40907" lon="-1.57402">
        <ele>58.12954</ele>
        <time>2022-05-14T16:53:09.000Z</time>
      </trkpt>
      <trkpt lat="46.40906" lon="-1.57399">
        <ele>58.15772</ele>
        <time>2022-05-14T16:53:10.000Z</time>
      </trkpt>
      <trkpt lat="46.40906" lon="-1.57396">
        <ele>58.23141</ele>
        <time>2022-05-14T16:53:11.000Z</time>
      </trkpt>
      <trkpt lat="46.40906" lon="-1.57392">
        <ele>58.3316</ele>
        <time>2022-05-14T16:53:15.000Z</time>
      </trkpt>
      <trkpt lat="46.40906" lon="-1.57388">
        <ele>58.47737</ele>
        <time>2022-05-14T16:53:17.000Z</time>
      </trkpt>
      <trkpt lat="46.40905" lon="-1.57383">
        <ele>58.62577</ele>
        <time>2022-05-14T16:53:19.000Z</time>
      </trkpt>
      <trkpt lat="46.40904" lon="-1.57379">
        <ele>58.81826</ele>
        <time>2022-05-14T16:53:21.000Z</time>
      </trkpt>
      <trkpt lat="46.40904" lon="-1.57376">
        <ele>58.97744</ele>
        <time>2022-05-14T16:53:23.000Z</time>
      </trkpt>
      <trkpt lat="46.40903" lon="-1.57373">
        <ele>59.16069</ele>
        <time>2022-05-14T16:53:25.000Z</time>
      </trkpt>
      <trkpt lat="46.40903" lon="-1.57369">
        <ele>59.34629</ele>
        <time>2022-05-14T16:53:27.000Z</time>
      </trkpt>
      <trkpt lat="46.40902" lon="-1.57366">
        <ele>59.56077</ele>
        <time>2022-05-14T16:53:29.000Z</time>
      </trkpt>
      <trkpt lat="46.40901" lon="-1.57362">
        <ele>59.74463</ele>
        <time>2022-05-14T16:53:31.000Z</time>
      </trkpt>
      <trkpt lat="46.40901" lon="-1.57359">
        <ele>59.86558</ele>
        <time>2022-05-14T16:53:33.000Z</time>
      </trkpt>
      <trkpt lat="46.40901" lon="-1.57355">
        <ele>59.96035</ele>
        <time>2022-05-14T16:53:35.000Z</time>
      </trkpt>
      <trkpt lat="46.40901" lon="-1.57352">
        <ele>60.04071</ele>
        <time>2022-05-14T16:53:37.000Z</time>
      </trkpt>
      <trkpt lat="46.40901" lon="-1.57349">
        <ele>60.20818</ele>
        <time>2022-05-14T16:53:39.000Z</time>
      </trkpt>
      <trkpt lat="46.40901" lon="-1.57345">
        <ele>60.35888</ele>
        <time>2022-05-14T16:53:41.000Z</time>
      </trkpt>
      <trkpt lat="46.40901" lon="-1.57341">
        <ele>60.42558</ele>
        <time>2022-05-14T16:53:43.000Z</time>
      </trkpt>
      <trkpt lat="46.409" lon="-1.57336">
        <ele>60.43047</ele>
        <time>2022-05-14T16:53:45.000Z</time>
      </trkpt>
      <trkpt lat="46.40899" lon="-1.57332">
        <ele>60.41428</ele>
        <time>2022-05-14T16:53:47.000Z</time>
      </trkpt>
      <trkpt lat="46.40899" lon="-1.57328">
        <ele>60.32978</ele>
        <time>2022-05-14T16:53:49.000Z</time>
      </trkpt>
      <trkpt lat="46.40899" lon="-1.57325">
        <ele>60.21482</ele>
        <time>2022-05-14T16:53:51.000Z</time>
      </trkpt>
      <trkpt lat="46.40898" lon="-1.57319">
        <ele>59.9683</ele>
        <time>2022-05-14T16:53:53.000Z</time>
      </trkpt>
      <trkpt lat="46.40897" lon="-1.57316">
        <ele>59.62661</ele>
        <time>2022-05-14T16:53:54.000Z</time>
      </trkpt>
      <trkpt lat="46.40896" lon="-1.57313">
        <ele>59.31366</ele>
        <time>2022-05-14T16:53:55.000Z</time>
      </trkpt>
      <trkpt lat="46.40897" lon="-1.5731">
        <ele>59.03186</ele>
        <time>2022-05-14T16:53:57.000Z</time>
      </trkpt>
      <trkpt lat="46.40897" lon="-1.57306">
        <ele>58.73617</ele>
        <time>2022-05-14T16:53:59.000Z</time>
      </trkpt>
      <trkpt lat="46.40897" lon="-1.57303">
        <ele>58.55144</ele>
        <time>2022-05-14T16:54:00.000Z</time>
      </trkpt>
      <trkpt lat="46.40897" lon="-1.573">
        <ele>58.3977</ele>
        <time>2022-05-14T16:54:01.000Z</time>
      </trkpt>
      <trkpt lat="46.40896" lon="-1.57296">
        <ele>58.27019</ele>
        <time>2022-05-14T16:54:03.000Z</time>
      </trkpt>
      <trkpt lat="46.40896" lon="-1.57291">
        <ele>58.06681</ele>
        <time>2022-05-14T16:54:05.000Z</time>
      </trkpt>
      <trkpt lat="46.40896" lon="-1.57286">
        <ele>57.8556</ele>
        <time>2022-05-14T16:54:07.000Z</time>
      </trkpt>
      <trkpt lat="46.40896" lon="-1.57282">
        <ele>57.63555</ele>
        <time>2022-05-14T16:54:09.000Z</time>
      </trkpt>
      <trkpt lat="46.40894" lon="-1.57278">
        <ele>57.34862</ele>
        <time>2022-05-14T16:54:11.000Z</time>
      </trkpt>
      <trkpt lat="46.40893" lon="-1.57275">
        <ele>57.14619</ele>
        <time>2022-05-14T16:54:13.000Z</time>
      </trkpt>
      <trkpt lat="46.40892" lon="-1.57271">
        <ele>56.99918</ele>
        <time>2022-05-14T16:54:15.000Z</time>
      </trkpt>
      <trkpt lat="46.40891" lon="-1.57266">
        <ele>56.81466</ele>
        <time>2022-05-14T16:54:17.000Z</time>
      </trkpt>
      <trkpt lat="46.40891" lon="-1.57262">
        <ele>56.56399</ele>
        <time>2022-05-14T16:54:20.000Z</time>
      </trkpt>
      <trkpt lat="46.40889" lon="-1.57258">
        <ele>56.34162</ele>
        <time>2022-05-14T16:54:22.000Z</time>
      </trkpt>
      <trkpt lat="46.40888" lon="-1.57255">
        <ele>56.09148</ele>
        <time>2022-05-14T16:54:24.000Z</time>
      </trkpt>
      <trkpt lat="46.40886" lon="-1.57252">
        <ele>55.77177</ele>
        <time>2022-05-14T16:54:26.000Z</time>
      </trkpt>
      <trkpt lat="46.40884" lon="-1.57249">
        <ele>55.45674</ele>
        <time>2022-05-14T16:54:27.000Z</time>
      </trkpt>
      <trkpt lat="46.40882" lon="-1.57246">
        <ele>55.17528</ele>
        <time>2022-05-14T16:54:29.000Z</time>
      </trkpt>
      <trkpt lat="46.40881" lon="-1.57244">
        <ele>54.91698</ele>
        <time>2022-05-14T16:54:31.000Z</time>
      </trkpt>
      <trkpt lat="46.40879" lon="-1.57241">
        <ele>54.46375</ele>
        <time>2022-05-14T16:54:34.000Z</time>
      </trkpt>
      <trkpt lat="46.40877" lon="-1.57238">
        <ele>54.09306</ele>
        <time>2022-05-14T16:54:36.000Z</time>
      </trkpt>
      <trkpt lat="46.40876" lon="-1.57234">
        <ele>53.68443</ele>
        <time>2022-05-14T16:54:38.000Z</time>
      </trkpt>
      <trkpt lat="46.40875" lon="-1.57232">
        <ele>53.21659</ele>
        <time>2022-05-14T16:54:40.000Z</time>
      </trkpt>
      <trkpt lat="46.40874" lon="-1.57227">
        <ele>52.77394</ele>
        <time>2022-05-14T16:54:42.000Z</time>
      </trkpt>
      <trkpt lat="46.40873" lon="-1.57224">
        <ele>52.45093</ele>
        <time>2022-05-14T16:54:43.000Z</time>
      </trkpt>
      <trkpt lat="46.40872" lon="-1.57222">
        <ele>52.1557</ele>
        <time>2022-05-14T16:54:44.000Z</time>
      </trkpt>
      <trkpt lat="46.4087" lon="-1.57218">
        <ele>51.76924</ele>
        <time>2022-05-14T16:54:46.000Z</time>
      </trkpt>
      <trkpt lat="46.40868" lon="-1.57215">
        <ele>51.35139</ele>
        <time>2022-05-14T16:54:48.000Z</time>
      </trkpt>
      <trkpt lat="46.40867" lon="-1.57212">
        <ele>51.03838</ele>
        <time>2022-05-14T16:54:50.000Z</time>
      </trkpt>
      <trkpt lat="46.40866" lon="-1.57209">
        <ele>50.78489</ele>
        <time>2022-05-14T16:54:52.000Z</time>
      </trkpt>
      <trkpt lat="46.40864" lon="-1.57205">
        <ele>50.51957</ele>
        <time>2022-05-14T16:54:55.000Z</time>
      </trkpt>
      <trkpt lat="46.40863" lon="-1.572">
        <ele>50.30734</ele>
        <time>2022-05-14T16:54:57.000Z</time>
      </trkpt>
      <trkpt lat="46.40861" lon="-1.57196">
        <ele>50.22967</ele>
        <time>2022-05-14T16:54:59.000Z</time>
      </trkpt>
      <trkpt lat="46.4086" lon="-1.57194">
        <ele>50.08306</ele>
        <time>2022-05-14T16:55:01.000Z</time>
      </trkpt>
      <trkpt lat="46.40858" lon="-1.57192">
        <ele>49.98993</ele>
        <time>2022-05-14T16:55:03.000Z</time>
      </trkpt>
      <trkpt lat="46.40857" lon="-1.5719">
        <ele>49.96202</ele>
        <time>2022-05-14T16:55:04.000Z</time>
      </trkpt>
      <trkpt lat="46.40855" lon="-1.57186">
        <ele>49.99408</ele>
        <time>2022-05-14T16:55:06.000Z</time>
      </trkpt>
      <trkpt lat="46.40854" lon="-1.57183">
        <ele>50.08325</ele>
        <time>2022-05-14T16:55:08.000Z</time>
      </trkpt>
      <trkpt lat="46.40853" lon="-1.57179">
        <ele>50.20353</ele>
        <time>2022-05-14T16:55:10.000Z</time>
      </trkpt>
      <trkpt lat="46.40851" lon="-1.57175">
        <ele>50.41822</ele>
        <time>2022-05-14T16:55:12.000Z</time>
      </trkpt>
      <trkpt lat="46.40849" lon="-1.57171">
        <ele>50.62827</ele>
        <time>2022-05-14T16:55:14.000Z</time>
      </trkpt>
      <trkpt lat="46.40848" lon="-1.57166">
        <ele>50.88067</ele>
        <time>2022-05-14T16:55:16.000Z</time>
      </trkpt>
      <trkpt lat="46.40847" lon="-1.57163">
        <ele>51.14494</ele>
        <time>2022-05-14T16:55:17.000Z</time>
      </trkpt>
      <trkpt lat="46.40846" lon="-1.5716">
        <ele>51.34554</ele>
        <time>2022-05-14T16:55:18.000Z</time>
      </trkpt>
      <trkpt lat="46.40844" lon="-1.57156">
        <ele>51.50467</ele>
        <time>2022-05-14T16:55:20.000Z</time>
      </trkpt>
      <trkpt lat="46.40843" lon="-1.57153">
        <ele>51.70372</ele>
        <time>2022-05-14T16:55:21.000Z</time>
      </trkpt>
      <trkpt lat="46.40844" lon="-1.5715">
        <ele>51.96888</ele>
        <time>2022-05-14T16:55:23.000Z</time>
      </trkpt>
      <trkpt lat="46.40844" lon="-1.57145">
        <ele>52.30821</ele>
        <time>2022-05-14T16:55:25.000Z</time>
      </trkpt>
      <trkpt lat="46.40844" lon="-1.57141">
        <ele>52.55053</ele>
        <time>2022-05-14T16:55:27.000Z</time>
      </trkpt>
      <trkpt lat="46.40844" lon="-1.57138">
        <ele>52.68999</ele>
        <time>2022-05-14T16:55:28.000Z</time>
      </trkpt>
      <trkpt lat="46.40844" lon="-1.57134">
        <ele>52.79456</ele>
        <time>2022-05-14T16:55:30.000Z</time>
      </trkpt>
      <trkpt lat="46.40844" lon="-1.5713">
        <ele>52.84587</ele>
        <time>2022-05-14T16:55:32.000Z</time>
      </trkpt>
      <trkpt lat="46.40844" lon="-1.57126">
        <ele>52.8787</ele>
        <time>2022-05-14T16:55:35.000Z</time>
      </trkpt>
      <trkpt lat="46.40844" lon="-1.57122">
        <ele>53.08514</ele>
        <time>2022-05-14T16:55:37.000Z</time>
      </trkpt>
      <trkpt lat="46.40844" lon="-1.57117">
        <ele>53.36967</ele>
        <time>2022-05-14T16:55:39.000Z</time>
      </trkpt>
      <trkpt lat="46.40845" lon="-1.57113">
        <ele>53.58541</ele>
        <time>2022-05-14T16:55:41.000Z</time>
      </trkpt>
      <trkpt lat="46.40846" lon="-1.5711">
        <ele>53.61134</ele>
        <time>2022-05-14T16:55:43.000Z</time>
      </trkpt>
      <trkpt lat="46.40846" lon="-1.57106">
        <ele>53.69347</ele>
        <time>2022-05-14T16:55:45.000Z</time>
      </trkpt>
      <trkpt lat="46.40846" lon="-1.57102">
        <ele>53.79284</ele>
        <time>2022-05-14T16:55:47.000Z</time>
      </trkpt>
      <trkpt lat="46.40846" lon="-1.57098">
        <ele>53.85538</ele>
        <time>2022-05-14T16:55:49.000Z</time>
      </trkpt>
      <trkpt lat="46.40846" lon="-1.57094">
        <ele>53.79025</ele>
        <time>2022-05-14T16:55:51.000Z</time>
      </trkpt>
      <trkpt lat="46.40846" lon="-1.57089">
        <ele>53.75676</ele>
        <time>2022-05-14T16:55:53.000Z</time>
      </trkpt>
      <trkpt lat="46.40846" lon="-1.57086">
        <ele>53.62466</ele>
        <time>2022-05-14T16:55:55.000Z</time>
      </trkpt>
      <trkpt lat="46.40847" lon="-1.57082">
        <ele>53.60025</ele>
        <time>2022-05-14T16:55:57.000Z</time>
      </trkpt>
      <trkpt lat="46.40846" lon="-1.57078">
        <ele>53.45601</ele>
        <time>2022-05-14T16:55:59.000Z</time>
      </trkpt>
      <trkpt lat="46.40846" lon="-1.57073">
        <ele>53.27102</ele>
        <time>2022-05-14T16:56:01.000Z</time>
      </trkpt>
      <trkpt lat="46.40846" lon="-1.57069">
        <ele>53.17407</ele>
        <time>2022-05-14T16:56:03.000Z</time>
      </trkpt>
      <trkpt lat="46.40847" lon="-1.57064">
        <ele>53.12182</ele>
        <time>2022-05-14T16:56:05.000Z</time>
      </trkpt>
      <trkpt lat="46.40847" lon="-1.57061">
        <ele>53.18409</ele>
        <time>2022-05-14T16:56:07.000Z</time>
      </trkpt>
      <trkpt lat="46.40847" lon="-1.57057">
        <ele>53.24308</ele>
        <time>2022-05-14T16:56:09.000Z</time>
      </trkpt>
      <trkpt lat="46.40847" lon="-1.57052">
        <ele>53.26167</ele>
        <time>2022-05-14T16:56:11.000Z</time>
      </trkpt>
      <trkpt lat="46.40846" lon="-1.57048">
        <ele>53.27699</ele>
        <time>2022-05-14T16:56:13.000Z</time>
      </trkpt>
      <trkpt lat="46.40846" lon="-1.57043">
        <ele>53.32166</ele>
        <time>2022-05-14T16:56:15.000Z</time>
      </trkpt>
      <trkpt lat="46.40845" lon="-1.57039">
        <ele>53.29237</ele>
        <time>2022-05-14T16:56:17.000Z</time>
      </trkpt>
      <trkpt lat="46.40845" lon="-1.57034">
        <ele>53.16607</ele>
        <time>2022-05-14T16:56:19.000Z</time>
      </trkpt>
      <trkpt lat="46.40845" lon="-1.57031">
        <ele>53.10838</ele>
        <time>2022-05-14T16:56:21.000Z</time>
      </trkpt>
      <trkpt lat="46.40845" lon="-1.57027">
        <ele>53.16411</ele>
        <time>2022-05-14T16:56:23.000Z</time>
      </trkpt>
      <trkpt lat="46.40845" lon="-1.57024">
        <ele>53.15076</ele>
        <time>2022-05-14T16:56:25.000Z</time>
      </trkpt>
      <trkpt lat="46.40845" lon="-1.5702">
        <ele>53.04289</ele>
        <time>2022-05-14T16:56:27.000Z</time>
      </trkpt>
      <trkpt lat="46.40844" lon="-1.57016">
        <ele>52.94382</ele>
        <time>2022-05-14T16:56:29.000Z</time>
      </trkpt>
      <trkpt lat="46.40844" lon="-1.57012">
        <ele>52.83901</ele>
        <time>2022-05-14T16:56:31.000Z</time>
      </trkpt>
      <trkpt lat="46.40845" lon="-1.57008">
        <ele>52.69398</ele>
        <time>2022-05-14T16:56:33.000Z</time>
      </trkpt>
      <trkpt lat="46.40846" lon="-1.57005">
        <ele>52.63853</ele>
        <time>2022-05-14T16:56:36.000Z</time>
      </trkpt>
      <trkpt lat="46.40846" lon="-1.57">
        <ele>52.46108</ele>
        <time>2022-05-14T16:56:38.000Z</time>
      </trkpt>
      <trkpt lat="46.40846" lon="-1.56997">
        <ele>52.4017</ele>
        <time>2022-05-14T16:56:39.000Z</time>
      </trkpt>
      <trkpt lat="46.40846" lon="-1.56995">
        <ele>52.41125</ele>
        <time>2022-05-14T16:56:40.000Z</time>
      </trkpt>
      <trkpt lat="46.40845" lon="-1.56992">
        <ele>52.41643</ele>
        <time>2022-05-14T16:56:41.000Z</time>
      </trkpt>
      <trkpt lat="46.40845" lon="-1.56989">
        <ele>52.33245</ele>
        <time>2022-05-14T16:56:42.000Z</time>
      </trkpt>
      <trkpt lat="46.40845" lon="-1.56986">
        <ele>52.22429</ele>
        <time>2022-05-14T16:56:43.000Z</time>
      </trkpt>
      <trkpt lat="46.40845" lon="-1.56983">
        <ele>52.12588</ele>
        <time>2022-05-14T16:56:44.000Z</time>
      </trkpt>
      <trkpt lat="46.40845" lon="-1.56979">
        <ele>52.02496</ele>
        <time>2022-05-14T16:56:46.000Z</time>
      </trkpt>
      <trkpt lat="46.40845" lon="-1.56974">
        <ele>51.9548</ele>
        <time>2022-05-14T16:56:48.000Z</time>
      </trkpt>
      <trkpt lat="46.40845" lon="-1.56972">
        <ele>51.83546</ele>
        <time>2022-05-14T16:56:49.000Z</time>
      </trkpt>
      <trkpt lat="46.40845" lon="-1.56967">
        <ele>51.69709</ele>
        <time>2022-05-14T16:56:51.000Z</time>
      </trkpt>
      <trkpt lat="46.40844" lon="-1.56964">
        <ele>51.5986</ele>
        <time>2022-05-14T16:56:53.000Z</time>
      </trkpt>
      <trkpt lat="46.40844" lon="-1.56961">
        <ele>51.52316</ele>
        <time>2022-05-14T16:56:55.000Z</time>
      </trkpt>
      <trkpt lat="46.40844" lon="-1.56958">
        <ele>51.42146</ele>
        <time>2022-05-14T16:56:57.000Z</time>
      </trkpt>
      <trkpt lat="46.40845" lon="-1.56954">
        <ele>51.36818</ele>
        <time>2022-05-14T16:56:59.000Z</time>
      </trkpt>
      <trkpt lat="46.40844" lon="-1.56949">
        <ele>51.37489</ele>
        <time>2022-05-14T16:57:01.000Z</time>
      </trkpt>
      <trkpt lat="46.40844" lon="-1.56946">
        <ele>51.38565</ele>
        <time>2022-05-14T16:57:03.000Z</time>
      </trkpt>
      <trkpt lat="46.40844" lon="-1.56941">
        <ele>51.47674</ele>
        <time>2022-05-14T16:57:05.000Z</time>
      </trkpt>
      <trkpt lat="46.40844" lon="-1.56938">
        <ele>51.54095</ele>
        <time>2022-05-14T16:57:06.000Z</time>
      </trkpt>
      <trkpt lat="46.40844" lon="-1.56935">
        <ele>51.59193</ele>
        <time>2022-05-14T16:57:07.000Z</time>
      </trkpt>
      <trkpt lat="46.40844" lon="-1.56931">
        <ele>51.69631</ele>
        <time>2022-05-14T16:57:09.000Z</time>
      </trkpt>
      <trkpt lat="46.40845" lon="-1.56927">
        <ele>51.87885</ele>
        <time>2022-05-14T16:57:11.000Z</time>
      </trkpt>
      <trkpt lat="46.40845" lon="-1.56923">
        <ele>51.99514</ele>
        <time>2022-05-14T16:57:13.000Z</time>
      </trkpt>
      <trkpt lat="46.40845" lon="-1.56919">
        <ele>52.0405</ele>
        <time>2022-05-14T16:57:15.000Z</time>
      </trkpt>
      <trkpt lat="46.40846" lon="-1.56914">
        <ele>52.1097</ele>
        <time>2022-05-14T16:57:17.000Z</time>
      </trkpt>
      <trkpt lat="46.40847" lon="-1.5691">
        <ele>52.13242</ele>
        <time>2022-05-14T16:57:19.000Z</time>
      </trkpt>
      <trkpt lat="46.40848" lon="-1.56905">
        <ele>52.23849</ele>
        <time>2022-05-14T16:57:21.000Z</time>
      </trkpt>
      <trkpt lat="46.40849" lon="-1.56902">
        <ele>52.24264</ele>
        <time>2022-05-14T16:57:23.000Z</time>
      </trkpt>
      <trkpt lat="46.4085" lon="-1.56899">
        <ele>52.26415</ele>
        <time>2022-05-14T16:57:24.000Z</time>
      </trkpt>
      <trkpt lat="46.40852" lon="-1.56895">
        <ele>52.27623</ele>
        <time>2022-05-14T16:57:26.000Z</time>
      </trkpt>
      <trkpt lat="46.40851" lon="-1.56892">
        <ele>52.21856</ele>
        <time>2022-05-14T16:57:28.000Z</time>
      </trkpt>
      <trkpt lat="46.4085" lon="-1.56889">
        <ele>52.2314</ele>
        <time>2022-05-14T16:57:29.000Z</time>
      </trkpt>
      <trkpt lat="46.40849" lon="-1.56886">
        <ele>52.26248</ele>
        <time>2022-05-14T16:57:30.000Z</time>
      </trkpt>
      <trkpt lat="46.40847" lon="-1.56883">
        <ele>52.23566</ele>
        <time>2022-05-14T16:57:32.000Z</time>
      </trkpt>
      <trkpt lat="46.40845" lon="-1.56879">
        <ele>52.17512</ele>
        <time>2022-05-14T16:57:34.000Z</time>
      </trkpt>
      <trkpt lat="46.40844" lon="-1.56877">
        <ele>52.1006</ele>
        <time>2022-05-14T16:57:35.000Z</time>
      </trkpt>
      <trkpt lat="46.40842" lon="-1.56874">
        <ele>52.05449</ele>
        <time>2022-05-14T16:57:37.000Z</time>
      </trkpt>
      <trkpt lat="46.4084" lon="-1.5687">
        <ele>51.99918</ele>
        <time>2022-05-14T16:57:39.000Z</time>
      </trkpt>
      <trkpt lat="46.40838" lon="-1.56868">
        <ele>51.9511</ele>
        <time>2022-05-14T16:57:40.000Z</time>
      </trkpt>
      <trkpt lat="46.40837" lon="-1.56865">
        <ele>51.86193</ele>
        <time>2022-05-14T16:57:41.000Z</time>
      </trkpt>
      <trkpt lat="46.40835" lon="-1.56863">
        <ele>51.8005</ele>
        <time>2022-05-14T16:57:42.000Z</time>
      </trkpt>
      <trkpt lat="46.40834" lon="-1.5686">
        <ele>51.5491</ele>
        <time>2022-05-14T16:57:43.000Z</time>
      </trkpt>
      <trkpt lat="46.40831" lon="-1.56857">
        <ele>51.34699</ele>
        <time>2022-05-14T16:57:45.000Z</time>
      </trkpt>
      <trkpt lat="46.4083" lon="-1.56855">
        <ele>51.06436</ele>
        <time>2022-05-14T16:57:46.000Z</time>
      </trkpt>
      <trkpt lat="46.40827" lon="-1.56854">
        <ele>50.70173</ele>
        <time>2022-05-14T16:57:48.000Z</time>
      </trkpt>
      <trkpt lat="46.40824" lon="-1.56852">
        <ele>50.37663</ele>
        <time>2022-05-14T16:57:50.000Z</time>
      </trkpt>
      <trkpt lat="46.40822" lon="-1.5685">
        <ele>49.96449</ele>
        <time>2022-05-14T16:57:52.000Z</time>
      </trkpt>
      <trkpt lat="46.40819" lon="-1.56849">
        <ele>49.68992</ele>
        <time>2022-05-14T16:57:54.000Z</time>
      </trkpt>
      <trkpt lat="46.40817" lon="-1.56847">
        <ele>49.40758</ele>
        <time>2022-05-14T16:57:56.000Z</time>
      </trkpt>
      <trkpt lat="46.40815" lon="-1.56846">
        <ele>49.16118</ele>
        <time>2022-05-14T16:57:58.000Z</time>
      </trkpt>
      <trkpt lat="46.40813" lon="-1.56844">
        <ele>48.9962</ele>
        <time>2022-05-14T16:58:00.000Z</time>
      </trkpt>
      <trkpt lat="46.40811" lon="-1.56843">
        <ele>48.68952</ele>
        <time>2022-05-14T16:58:02.000Z</time>
      </trkpt>
      <trkpt lat="46.40809" lon="-1.56844">
        <ele>48.29293</ele>
        <time>2022-05-14T16:58:06.000Z</time>
      </trkpt>
      <trkpt lat="46.40806" lon="-1.56842">
        <ele>48.00385</ele>
        <time>2022-05-14T16:58:08.000Z</time>
      </trkpt>
      <trkpt lat="46.40803" lon="-1.5684">
        <ele>47.735</ele>
        <time>2022-05-14T16:58:10.000Z</time>
      </trkpt>
      <trkpt lat="46.40801" lon="-1.56839">
        <ele>47.51217</ele>
        <time>2022-05-14T16:58:12.000Z</time>
      </trkpt>
      <trkpt lat="46.40798" lon="-1.56838">
        <ele>47.35427</ele>
        <time>2022-05-14T16:58:14.000Z</time>
      </trkpt>
      <trkpt lat="46.40796" lon="-1.56836">
        <ele>47.13182</ele>
        <time>2022-05-14T16:58:16.000Z</time>
      </trkpt>
      <trkpt lat="46.40794" lon="-1.56834">
        <ele>46.94263</ele>
        <time>2022-05-14T16:58:18.000Z</time>
      </trkpt>
      <trkpt lat="46.40793" lon="-1.56831">
        <ele>46.75547</ele>
        <time>2022-05-14T16:58:20.000Z</time>
      </trkpt>
      <trkpt lat="46.40791" lon="-1.56827">
        <ele>46.53791</ele>
        <time>2022-05-14T16:58:22.000Z</time>
      </trkpt>
      <trkpt lat="46.40789" lon="-1.56823">
        <ele>46.41749</ele>
        <time>2022-05-14T16:58:24.000Z</time>
      </trkpt>
      <trkpt lat="46.40787" lon="-1.56819">
        <ele>46.2807</ele>
        <time>2022-05-14T16:58:26.000Z</time>
      </trkpt>
      <trkpt lat="46.40786" lon="-1.56815">
        <ele>46.28948</ele>
        <time>2022-05-14T16:58:28.000Z</time>
      </trkpt>
      <trkpt lat="46.40785" lon="-1.5681">
        <ele>46.32801</ele>
        <time>2022-05-14T16:58:30.000Z</time>
      </trkpt>
      <trkpt lat="46.40783" lon="-1.56807">
        <ele>46.35128</ele>
        <time>2022-05-14T16:58:32.000Z</time>
      </trkpt>
      <trkpt lat="46.40782" lon="-1.56803">
        <ele>46.42773</ele>
        <time>2022-05-14T16:58:34.000Z</time>
      </trkpt>
      <trkpt lat="46.4078" lon="-1.56801">
        <ele>46.4128</ele>
        <time>2022-05-14T16:58:36.000Z</time>
      </trkpt>
      <trkpt lat="46.40779" lon="-1.56797">
        <ele>46.44392</ele>
        <time>2022-05-14T16:58:38.000Z</time>
      </trkpt>
      <trkpt lat="46.40777" lon="-1.56794">
        <ele>46.47011</ele>
        <time>2022-05-14T16:58:40.000Z</time>
      </trkpt>
      <trkpt lat="46.40776" lon="-1.56791">
        <ele>46.53743</ele>
        <time>2022-05-14T16:58:42.000Z</time>
      </trkpt>
      <trkpt lat="46.40774" lon="-1.56788">
        <ele>46.59559</ele>
        <time>2022-05-14T16:58:44.000Z</time>
      </trkpt>
      <trkpt lat="46.40772" lon="-1.56786">
        <ele>46.7786</ele>
        <time>2022-05-14T16:58:45.000Z</time>
      </trkpt>
      <trkpt lat="46.4077" lon="-1.56782">
        <ele>47.01527</ele>
        <time>2022-05-14T16:58:47.000Z</time>
      </trkpt>
      <trkpt lat="46.40769" lon="-1.56779">
        <ele>47.2614</ele>
        <time>2022-05-14T16:58:48.000Z</time>
      </trkpt>
      <trkpt lat="46.40767" lon="-1.56776">
        <ele>47.49543</ele>
        <time>2022-05-14T16:58:50.000Z</time>
      </trkpt>
      <trkpt lat="46.40766" lon="-1.56773">
        <ele>47.60548</ele>
        <time>2022-05-14T16:58:52.000Z</time>
      </trkpt>
      <trkpt lat="46.40765" lon="-1.5677">
        <ele>47.84177</ele>
        <time>2022-05-14T16:58:54.000Z</time>
      </trkpt>
      <trkpt lat="46.40764" lon="-1.56768">
        <ele>48.05875</ele>
        <time>2022-05-14T16:58:55.000Z</time>
      </trkpt>
      <trkpt lat="46.40763" lon="-1.56766">
        <ele>48.2809</ele>
        <time>2022-05-14T16:58:56.000Z</time>
      </trkpt>
      <trkpt lat="46.40762" lon="-1.56761">
        <ele>48.60125</ele>
        <time>2022-05-14T16:58:58.000Z</time>
      </trkpt>
      <trkpt lat="46.40761" lon="-1.56757">
        <ele>48.90394</ele>
        <time>2022-05-14T16:59:00.000Z</time>
      </trkpt>
      <trkpt lat="46.4076" lon="-1.56753">
        <ele>49.2112</ele>
        <time>2022-05-14T16:59:02.000Z</time>
      </trkpt>
      <trkpt lat="46.4076" lon="-1.56749">
        <ele>49.43531</ele>
        <time>2022-05-14T16:59:04.000Z</time>
      </trkpt>
      <trkpt lat="46.40759" lon="-1.56744">
        <ele>49.63622</ele>
        <time>2022-05-14T16:59:06.000Z</time>
      </trkpt>
      <trkpt lat="46.40759" lon="-1.5674">
        <ele>49.83798</ele>
        <time>2022-05-14T16:59:08.000Z</time>
      </trkpt>
      <trkpt lat="46.40759" lon="-1.56736">
        <ele>50.00154</ele>
        <time>2022-05-14T16:59:10.000Z</time>
      </trkpt>
      <trkpt lat="46.40759" lon="-1.56732">
        <ele>50.19551</ele>
        <time>2022-05-14T16:59:12.000Z</time>
      </trkpt>
      <trkpt lat="46.40759" lon="-1.56728">
        <ele>50.33547</ele>
        <time>2022-05-14T16:59:14.000Z</time>
      </trkpt>
      <trkpt lat="46.40759" lon="-1.56724">
        <ele>50.52039</ele>
        <time>2022-05-14T16:59:16.000Z</time>
      </trkpt>
      <trkpt lat="46.40759" lon="-1.5672">
        <ele>50.6594</ele>
        <time>2022-05-14T16:59:18.000Z</time>
      </trkpt>
      <trkpt lat="46.40759" lon="-1.56717">
        <ele>50.80248</ele>
        <time>2022-05-14T16:59:20.000Z</time>
      </trkpt>
      <trkpt lat="46.40759" lon="-1.56712">
        <ele>50.90316</ele>
        <time>2022-05-14T16:59:22.000Z</time>
      </trkpt>
      <trkpt lat="46.40759" lon="-1.56707">
        <ele>50.93588</ele>
        <time>2022-05-14T16:59:24.000Z</time>
      </trkpt>
      <trkpt lat="46.40758" lon="-1.56703">
        <ele>50.90809</ele>
        <time>2022-05-14T16:59:26.000Z</time>
      </trkpt>
      <trkpt lat="46.40758" lon="-1.56699">
        <ele>50.92836</ele>
        <time>2022-05-14T16:59:28.000Z</time>
      </trkpt>
      <trkpt lat="46.40757" lon="-1.56696">
        <ele>51.01828</ele>
        <time>2022-05-14T16:59:29.000Z</time>
      </trkpt>
      <trkpt lat="46.40757" lon="-1.56693">
        <ele>51.034</ele>
        <time>2022-05-14T16:59:30.000Z</time>
      </trkpt>
      <trkpt lat="46.40756" lon="-1.56689">
        <ele>51.04356</ele>
        <time>2022-05-14T16:59:32.000Z</time>
      </trkpt>
      <trkpt lat="46.40755" lon="-1.56686">
        <ele>51.14757</ele>
        <time>2022-05-14T16:59:34.000Z</time>
      </trkpt>
      <trkpt lat="46.40754" lon="-1.56683">
        <ele>51.09344</ele>
        <time>2022-05-14T16:59:36.000Z</time>
      </trkpt>
      <trkpt lat="46.40753" lon="-1.56679">
        <ele>51.11161</ele>
        <time>2022-05-14T16:59:38.000Z</time>
      </trkpt>
      <trkpt lat="46.40752" lon="-1.56676">
        <ele>51.13366</ele>
        <time>2022-05-14T16:59:40.000Z</time>
      </trkpt>
      <trkpt lat="46.4075" lon="-1.56672">
        <ele>51.15706</ele>
        <time>2022-05-14T16:59:42.000Z</time>
      </trkpt>
      <trkpt lat="46.40749" lon="-1.56668">
        <ele>51.2835</ele>
        <time>2022-05-14T16:59:44.000Z</time>
      </trkpt>
      <trkpt lat="46.40748" lon="-1.56665">
        <ele>51.41383</ele>
        <time>2022-05-14T16:59:45.000Z</time>
      </trkpt>
      <trkpt lat="46.40747" lon="-1.56663">
        <ele>51.54636</ele>
        <time>2022-05-14T16:59:46.000Z</time>
      </trkpt>
      <trkpt lat="46.40746" lon="-1.56659">
        <ele>51.68529</ele>
        <time>2022-05-14T16:59:48.000Z</time>
      </trkpt>
      <trkpt lat="46.40745" lon="-1.56656">
        <ele>51.74694</ele>
        <time>2022-05-14T16:59:50.000Z</time>
      </trkpt>
      <trkpt lat="46.40744" lon="-1.56652">
        <ele>51.76905</ele>
        <time>2022-05-14T16:59:52.000Z</time>
      </trkpt>
      <trkpt lat="46.40743" lon="-1.56649">
        <ele>51.78215</ele>
        <time>2022-05-14T16:59:54.000Z</time>
      </trkpt>
      <trkpt lat="46.40742" lon="-1.56645">
        <ele>51.85698</ele>
        <time>2022-05-14T16:59:56.000Z</time>
      </trkpt>
      <trkpt lat="46.40741" lon="-1.56642">
        <ele>51.88851</ele>
        <time>2022-05-14T16:59:58.000Z</time>
      </trkpt>
      <trkpt lat="46.4074" lon="-1.56638">
        <ele>51.99096</ele>
        <time>2022-05-14T17:00:00.000Z</time>
      </trkpt>
      <trkpt lat="46.40739" lon="-1.56634">
        <ele>52.10268</ele>
        <time>2022-05-14T17:00:02.000Z</time>
      </trkpt>
      <trkpt lat="46.40738" lon="-1.56631">
        <ele>52.09928</ele>
        <time>2022-05-14T17:00:04.000Z</time>
      </trkpt>
      <trkpt lat="46.40737" lon="-1.56627">
        <ele>52.13187</ele>
        <time>2022-05-14T17:00:06.000Z</time>
      </trkpt>
      <trkpt lat="46.40737" lon="-1.56623">
        <ele>52.07824</ele>
        <time>2022-05-14T17:00:08.000Z</time>
      </trkpt>
      <trkpt lat="46.40736" lon="-1.56619">
        <ele>52.00584</ele>
        <time>2022-05-14T17:00:10.000Z</time>
      </trkpt>
      <trkpt lat="46.40735" lon="-1.56616">
        <ele>51.8266</ele>
        <time>2022-05-14T17:00:12.000Z</time>
      </trkpt>
      <trkpt lat="46.40733" lon="-1.56612">
        <ele>51.68642</ele>
        <time>2022-05-14T17:00:14.000Z</time>
      </trkpt>
      <trkpt lat="46.40733" lon="-1.56609">
        <ele>51.47761</ele>
        <time>2022-05-14T17:00:16.000Z</time>
      </trkpt>
      <trkpt lat="46.40732" lon="-1.56605">
        <ele>51.28629</ele>
        <time>2022-05-14T17:00:18.000Z</time>
      </trkpt>
      <trkpt lat="46.40731" lon="-1.56601">
        <ele>51.21669</ele>
        <time>2022-05-14T17:00:20.000Z</time>
      </trkpt>
      <trkpt lat="46.4073" lon="-1.56597">
        <ele>51.15223</ele>
        <time>2022-05-14T17:00:22.000Z</time>
      </trkpt>
      <trkpt lat="46.40729" lon="-1.56593">
        <ele>51.03808</ele>
        <time>2022-05-14T17:00:24.000Z</time>
      </trkpt>
      <trkpt lat="46.40729" lon="-1.56588">
        <ele>50.88655</ele>
        <time>2022-05-14T17:00:26.000Z</time>
      </trkpt>
      <trkpt lat="46.40729" lon="-1.56584">
        <ele>50.71059</ele>
        <time>2022-05-14T17:00:28.000Z</time>
      </trkpt>
      <trkpt lat="46.40729" lon="-1.56579">
        <ele>50.63237</ele>
        <time>2022-05-14T17:00:30.000Z</time>
      </trkpt>
      <trkpt lat="46.40729" lon="-1.56576">
        <ele>50.59536</ele>
        <time>2022-05-14T17:00:32.000Z</time>
      </trkpt>
      <trkpt lat="46.40728" lon="-1.56572">
        <ele>50.57867</ele>
        <time>2022-05-14T17:00:34.000Z</time>
      </trkpt>
      <trkpt lat="46.40727" lon="-1.56569">
        <ele>50.59579</ele>
        <time>2022-05-14T17:00:36.000Z</time>
      </trkpt>
      <trkpt lat="46.40725" lon="-1.56565">
        <ele>50.57581</ele>
        <time>2022-05-14T17:00:38.000Z</time>
      </trkpt>
      <trkpt lat="46.40723" lon="-1.56561">
        <ele>50.51867</ele>
        <time>2022-05-14T17:00:40.000Z</time>
      </trkpt>
      <trkpt lat="46.4072" lon="-1.56558">
        <ele>50.49902</ele>
        <time>2022-05-14T17:00:42.000Z</time>
      </trkpt>
      <trkpt lat="46.40719" lon="-1.56555">
        <ele>50.49511</ele>
        <time>2022-05-14T17:00:44.000Z</time>
      </trkpt>
      <trkpt lat="46.40717" lon="-1.56552">
        <ele>50.46509</ele>
        <time>2022-05-14T17:00:46.000Z</time>
      </trkpt>
      <trkpt lat="46.40717" lon="-1.56549">
        <ele>50.54327</ele>
        <time>2022-05-14T17:00:47.000Z</time>
      </trkpt>
      <trkpt lat="46.40716" lon="-1.56546">
        <ele>50.6609</ele>
        <time>2022-05-14T17:00:48.000Z</time>
      </trkpt>
      <trkpt lat="46.40715" lon="-1.56542">
        <ele>50.80087</ele>
        <time>2022-05-14T17:00:50.000Z</time>
      </trkpt>
      <trkpt lat="46.40715" lon="-1.56538">
        <ele>50.91393</ele>
        <time>2022-05-14T17:00:52.000Z</time>
      </trkpt>
      <trkpt lat="46.40714" lon="-1.56535">
        <ele>51.12373</ele>
        <time>2022-05-14T17:00:54.000Z</time>
      </trkpt>
      <trkpt lat="46.40713" lon="-1.56531">
        <ele>51.2853</ele>
        <time>2022-05-14T17:00:56.000Z</time>
      </trkpt>
      <trkpt lat="46.40713" lon="-1.56528">
        <ele>51.36781</ele>
        <time>2022-05-14T17:00:57.000Z</time>
      </trkpt>
      <trkpt lat="46.40712" lon="-1.56524">
        <ele>51.41382</ele>
        <time>2022-05-14T17:00:59.000Z</time>
      </trkpt>
      <trkpt lat="46.40711" lon="-1.56521">
        <ele>51.48335</ele>
        <time>2022-05-14T17:01:01.000Z</time>
      </trkpt>
      <trkpt lat="46.40711" lon="-1.56517">
        <ele>51.54873</ele>
        <time>2022-05-14T17:01:03.000Z</time>
      </trkpt>
      <trkpt lat="46.4071" lon="-1.56513">
        <ele>51.62173</ele>
        <time>2022-05-14T17:01:05.000Z</time>
      </trkpt>
      <trkpt lat="46.40709" lon="-1.5651">
        <ele>51.68114</ele>
        <time>2022-05-14T17:01:07.000Z</time>
      </trkpt>
      <trkpt lat="46.40709" lon="-1.56506">
        <ele>51.68017</ele>
        <time>2022-05-14T17:01:09.000Z</time>
      </trkpt>
      <trkpt lat="46.40708" lon="-1.56503">
        <ele>51.64732</ele>
        <time>2022-05-14T17:01:10.000Z</time>
      </trkpt>
      <trkpt lat="46.40707" lon="-1.565">
        <ele>51.5587</ele>
        <time>2022-05-14T17:01:12.000Z</time>
      </trkpt>
      <trkpt lat="46.40706" lon="-1.56496">
        <ele>51.63947</ele>
        <time>2022-05-14T17:01:14.000Z</time>
      </trkpt>
      <trkpt lat="46.40706" lon="-1.56491">
        <ele>51.7119</ele>
        <time>2022-05-14T17:01:16.000Z</time>
      </trkpt>
      <trkpt lat="46.40706" lon="-1.56487">
        <ele>51.72459</ele>
        <time>2022-05-14T17:01:18.000Z</time>
      </trkpt>
      <trkpt lat="46.40705" lon="-1.56483">
        <ele>51.76921</ele>
        <time>2022-05-14T17:01:20.000Z</time>
      </trkpt>
      <trkpt lat="46.40705" lon="-1.56479">
        <ele>51.81221</ele>
        <time>2022-05-14T17:01:22.000Z</time>
      </trkpt>
      <trkpt lat="46.40704" lon="-1.56476">
        <ele>51.81879</ele>
        <time>2022-05-14T17:01:24.000Z</time>
      </trkpt>
      <trkpt lat="46.40704" lon="-1.56473">
        <ele>51.75939</ele>
        <time>2022-05-14T17:01:26.000Z</time>
      </trkpt>
      <trkpt lat="46.40705" lon="-1.56469">
        <ele>51.62434</ele>
        <time>2022-05-14T17:01:29.000Z</time>
      </trkpt>
      <trkpt lat="46.40705" lon="-1.56465">
        <ele>51.5189</ele>
        <time>2022-05-14T17:01:31.000Z</time>
      </trkpt>
      <trkpt lat="46.40704" lon="-1.56462">
        <ele>51.33013</ele>
        <time>2022-05-14T17:01:33.000Z</time>
      </trkpt>
      <trkpt lat="46.40703" lon="-1.56459">
        <ele>51.15329</ele>
        <time>2022-05-14T17:01:35.000Z</time>
      </trkpt>
      <trkpt lat="46.40703" lon="-1.56455">
        <ele>50.94209</ele>
        <time>2022-05-14T17:01:37.000Z</time>
      </trkpt>
      <trkpt lat="46.40702" lon="-1.5645">
        <ele>50.8281</ele>
        <time>2022-05-14T17:01:39.000Z</time>
      </trkpt>
      <trkpt lat="46.40702" lon="-1.56446">
        <ele>50.74979</ele>
        <time>2022-05-14T17:01:41.000Z</time>
      </trkpt>
      <trkpt lat="46.40701" lon="-1.56442">
        <ele>50.63626</ele>
        <time>2022-05-14T17:01:43.000Z</time>
      </trkpt>
      <trkpt lat="46.407" lon="-1.56439">
        <ele>50.49822</ele>
        <time>2022-05-14T17:01:45.000Z</time>
      </trkpt>
      <trkpt lat="46.407" lon="-1.56435">
        <ele>50.35246</ele>
        <time>2022-05-14T17:01:47.000Z</time>
      </trkpt>
      <trkpt lat="46.40699" lon="-1.56433">
        <ele>50.21619</ele>
        <time>2022-05-14T17:01:49.000Z</time>
      </trkpt>
      <trkpt lat="46.40698" lon="-1.56428">
        <ele>50.07825</ele>
        <time>2022-05-14T17:01:51.000Z</time>
      </trkpt>
      <trkpt lat="46.40697" lon="-1.56425">
        <ele>49.93847</ele>
        <time>2022-05-14T17:01:53.000Z</time>
      </trkpt>
      <trkpt lat="46.40696" lon="-1.56421">
        <ele>49.65676</ele>
        <time>2022-05-14T17:01:55.000Z</time>
      </trkpt>
      <trkpt lat="46.40695" lon="-1.56418">
        <ele>49.35552</ele>
        <time>2022-05-14T17:01:57.000Z</time>
      </trkpt>
      <trkpt lat="46.40694" lon="-1.56415">
        <ele>49.09544</ele>
        <time>2022-05-14T17:01:59.000Z</time>
      </trkpt>
      <trkpt lat="46.40693" lon="-1.56411">
        <ele>48.84699</ele>
        <time>2022-05-14T17:02:01.000Z</time>
      </trkpt>
      <trkpt lat="46.40692" lon="-1.56408">
        <ele>48.59241</ele>
        <time>2022-05-14T17:02:02.000Z</time>
      </trkpt>
      <trkpt lat="46.40691" lon="-1.56405">
        <ele>48.37138</ele>
        <time>2022-05-14T17:02:03.000Z</time>
      </trkpt>
      <trkpt lat="46.40689" lon="-1.56402">
        <ele>48.18954</ele>
        <time>2022-05-14T17:02:05.000Z</time>
      </trkpt>
      <trkpt lat="46.40687" lon="-1.56398">
        <ele>48.09276</ele>
        <time>2022-05-14T17:02:07.000Z</time>
      </trkpt>
      <trkpt lat="46.40686" lon="-1.56394">
        <ele>48.03014</ele>
        <time>2022-05-14T17:02:09.000Z</time>
      </trkpt>
      <trkpt lat="46.40684" lon="-1.56391">
        <ele>48.02511</ele>
        <time>2022-05-14T17:02:11.000Z</time>
      </trkpt>
      <trkpt lat="46.40683" lon="-1.56388">
        <ele>48.02042</ele>
        <time>2022-05-14T17:02:12.000Z</time>
      </trkpt>
      <trkpt lat="46.40682" lon="-1.56385">
        <ele>48.0464</ele>
        <time>2022-05-14T17:02:13.000Z</time>
      </trkpt>
      <trkpt lat="46.40681" lon="-1.56383">
        <ele>47.96656</ele>
        <time>2022-05-14T17:02:14.000Z</time>
      </trkpt>
      <trkpt lat="46.40679" lon="-1.56379">
        <ele>47.89654</ele>
        <time>2022-05-14T17:02:16.000Z</time>
      </trkpt>
      <trkpt lat="46.40678" lon="-1.56375">
        <ele>47.83634</ele>
        <time>2022-05-14T17:02:18.000Z</time>
      </trkpt>
      <trkpt lat="46.40676" lon="-1.56373">
        <ele>47.85141</ele>
        <time>2022-05-14T17:02:20.000Z</time>
      </trkpt>
      <trkpt lat="46.40675" lon="-1.5637">
        <ele>47.8344</ele>
        <time>2022-05-14T17:02:22.000Z</time>
      </trkpt>
      <trkpt lat="46.40674" lon="-1.56366">
        <ele>47.69769</ele>
        <time>2022-05-14T17:02:24.000Z</time>
      </trkpt>
      <trkpt lat="46.40674" lon="-1.56364">
        <ele>47.6429</ele>
        <time>2022-05-14T17:02:25.000Z</time>
      </trkpt>
      <trkpt lat="46.40673" lon="-1.56361">
        <ele>47.60399</ele>
        <time>2022-05-14T17:02:26.000Z</time>
      </trkpt>
      <trkpt lat="46.40673" lon="-1.56359">
        <ele>47.63372</ele>
        <time>2022-05-14T17:02:27.000Z</time>
      </trkpt>
      <trkpt lat="46.40674" lon="-1.56354">
        <ele>47.70538</ele>
        <time>2022-05-14T17:02:29.000Z</time>
      </trkpt>
      <trkpt lat="46.40674" lon="-1.56351">
        <ele>47.76444</ele>
        <time>2022-05-14T17:02:30.000Z</time>
      </trkpt>
      <trkpt lat="46.40675" lon="-1.56347">
        <ele>47.76817</ele>
        <time>2022-05-14T17:02:32.000Z</time>
      </trkpt>
      <trkpt lat="46.40675" lon="-1.56342">
        <ele>47.78469</ele>
        <time>2022-05-14T17:02:34.000Z</time>
      </trkpt>
      <trkpt lat="46.40675" lon="-1.56339">
        <ele>47.78633</ele>
        <time>2022-05-14T17:02:35.000Z</time>
      </trkpt>
      <trkpt lat="46.40676" lon="-1.56335">
        <ele>47.85165</ele>
        <time>2022-05-14T17:02:37.000Z</time>
      </trkpt>
      <trkpt lat="46.40676" lon="-1.56331">
        <ele>47.92632</ele>
        <time>2022-05-14T17:02:39.000Z</time>
      </trkpt>
      <trkpt lat="46.40676" lon="-1.56328">
        <ele>48.00941</ele>
        <time>2022-05-14T17:02:41.000Z</time>
      </trkpt>
      <trkpt lat="46.40675" lon="-1.56325">
        <ele>48.0511</ele>
        <time>2022-05-14T17:02:43.000Z</time>
      </trkpt>
      <trkpt lat="46.40674" lon="-1.56321">
        <ele>48.10083</ele>
        <time>2022-05-14T17:02:45.000Z</time>
      </trkpt>
      <trkpt lat="46.40674" lon="-1.56318">
        <ele>48.0937</ele>
        <time>2022-05-14T17:02:47.000Z</time>
      </trkpt>
      <trkpt lat="46.40674" lon="-1.56314">
        <ele>48.12906</ele>
        <time>2022-05-14T17:02:49.000Z</time>
      </trkpt>
      <trkpt lat="46.40674" lon="-1.5631">
        <ele>48.16598</ele>
        <time>2022-05-14T17:02:51.000Z</time>
      </trkpt>
      <trkpt lat="46.40673" lon="-1.56307">
        <ele>48.28724</ele>
        <time>2022-05-14T17:02:53.000Z</time>
      </trkpt>
      <trkpt lat="46.40673" lon="-1.56302">
        <ele>48.41155</ele>
        <time>2022-05-14T17:02:55.000Z</time>
      </trkpt>
      <trkpt lat="46.40672" lon="-1.56298">
        <ele>48.56673</ele>
        <time>2022-05-14T17:02:57.000Z</time>
      </trkpt>
      <trkpt lat="46.40671" lon="-1.56294">
        <ele>48.85168</ele>
        <time>2022-05-14T17:02:59.000Z</time>
      </trkpt>
      <trkpt lat="46.40671" lon="-1.56289">
        <ele>49.08213</ele>
        <time>2022-05-14T17:03:01.000Z</time>
      </trkpt>
      <trkpt lat="46.4067" lon="-1.56285">
        <ele>49.29087</ele>
        <time>2022-05-14T17:03:03.000Z</time>
      </trkpt>
      <trkpt lat="46.40669" lon="-1.56283">
        <ele>49.47686</ele>
        <time>2022-05-14T17:03:05.000Z</time>
      </trkpt>
      <trkpt lat="46.40668" lon="-1.56278">
        <ele>49.71067</ele>
        <time>2022-05-14T17:03:07.000Z</time>
      </trkpt>
      <trkpt lat="46.40667" lon="-1.56276">
        <ele>49.95956</ele>
        <time>2022-05-14T17:03:08.000Z</time>
      </trkpt>
      <trkpt lat="46.40666" lon="-1.56271">
        <ele>50.26227</ele>
        <time>2022-05-14T17:03:10.000Z</time>
      </trkpt>
      <trkpt lat="46.40666" lon="-1.56267">
        <ele>50.57912</ele>
        <time>2022-05-14T17:03:12.000Z</time>
      </trkpt>
      <trkpt lat="46.40665" lon="-1.56263">
        <ele>50.80245</ele>
        <time>2022-05-14T17:03:14.000Z</time>
      </trkpt>
      <trkpt lat="46.40665" lon="-1.56261">
        <ele>51.01441</ele>
        <time>2022-05-14T17:03:16.000Z</time>
      </trkpt>
      <trkpt lat="46.40665" lon="-1.56257">
        <ele>51.2571</ele>
        <time>2022-05-14T17:03:18.000Z</time>
      </trkpt>
      <trkpt lat="46.40664" lon="-1.56253">
        <ele>51.43503</ele>
        <time>2022-05-14T17:03:20.000Z</time>
      </trkpt>
      <trkpt lat="46.40664" lon="-1.56249">
        <ele>51.56574</ele>
        <time>2022-05-14T17:03:22.000Z</time>
      </trkpt>
      <trkpt lat="46.40664" lon="-1.56244">
        <ele>51.64079</ele>
        <time>2022-05-14T17:03:26.000Z</time>
      </trkpt>
      <trkpt lat="46.40664" lon="-1.56239">
        <ele>51.71566</ele>
        <time>2022-05-14T17:03:28.000Z</time>
      </trkpt>
      <trkpt lat="46.40665" lon="-1.56236">
        <ele>51.71989</ele>
        <time>2022-05-14T17:03:30.000Z</time>
      </trkpt>
      <trkpt lat="46.40664" lon="-1.56232">
        <ele>51.71058</ele>
        <time>2022-05-14T17:03:32.000Z</time>
      </trkpt>
      <trkpt lat="46.40664" lon="-1.56227">
        <ele>51.69409</ele>
        <time>2022-05-14T17:03:34.000Z</time>
      </trkpt>
      <trkpt lat="46.40663" lon="-1.56224">
        <ele>51.63014</ele>
        <time>2022-05-14T17:03:35.000Z</time>
      </trkpt>
      <trkpt lat="46.40663" lon="-1.5622">
        <ele>51.56139</ele>
        <time>2022-05-14T17:03:37.000Z</time>
      </trkpt>
      <trkpt lat="46.40662" lon="-1.56217">
        <ele>51.46525</ele>
        <time>2022-05-14T17:03:39.000Z</time>
      </trkpt>
      <trkpt lat="46.40662" lon="-1.56212">
        <ele>51.38013</ele>
        <time>2022-05-14T17:03:41.000Z</time>
      </trkpt>
      <trkpt lat="46.40662" lon="-1.56209">
        <ele>51.35102</ele>
        <time>2022-05-14T17:03:43.000Z</time>
      </trkpt>
      <trkpt lat="46.40663" lon="-1.56204">
        <ele>51.33814</ele>
        <time>2022-05-14T17:03:45.000Z</time>
      </trkpt>
      <trkpt lat="46.40663" lon="-1.56201">
        <ele>51.31156</ele>
        <time>2022-05-14T17:03:47.000Z</time>
      </trkpt>
      <trkpt lat="46.40663" lon="-1.56196">
        <ele>51.27106</ele>
        <time>2022-05-14T17:03:49.000Z</time>
      </trkpt>
      <trkpt lat="46.40663" lon="-1.56193">
        <ele>51.21858</ele>
        <time>2022-05-14T17:03:50.000Z</time>
      </trkpt>
      <trkpt lat="46.40663" lon="-1.5619">
        <ele>51.11446</ele>
        <time>2022-05-14T17:03:51.000Z</time>
      </trkpt>
      <trkpt lat="46.40663" lon="-1.56187">
        <ele>51.10489</ele>
        <time>2022-05-14T17:03:52.000Z</time>
      </trkpt>
      <trkpt lat="46.40663" lon="-1.56183">
        <ele>51.00877</ele>
        <time>2022-05-14T17:03:54.000Z</time>
      </trkpt>
      <trkpt lat="46.40663" lon="-1.56178">
        <ele>50.84225</ele>
        <time>2022-05-14T17:03:56.000Z</time>
      </trkpt>
      <trkpt lat="46.40663" lon="-1.56174">
        <ele>50.73299</ele>
        <time>2022-05-14T17:03:58.000Z</time>
      </trkpt>
      <trkpt lat="46.40662" lon="-1.56169">
        <ele>50.64347</ele>
        <time>2022-05-14T17:04:00.000Z</time>
      </trkpt>
      <trkpt lat="46.40662" lon="-1.56165">
        <ele>50.59026</ele>
        <time>2022-05-14T17:04:02.000Z</time>
      </trkpt>
      <trkpt lat="46.40662" lon="-1.56162">
        <ele>50.60006</ele>
        <time>2022-05-14T17:04:03.000Z</time>
      </trkpt>
      <trkpt lat="46.40662" lon="-1.56159">
        <ele>50.65654</ele>
        <time>2022-05-14T17:04:04.000Z</time>
      </trkpt>
      <trkpt lat="46.40661" lon="-1.56154">
        <ele>50.67901</ele>
        <time>2022-05-14T17:04:07.000Z</time>
      </trkpt>
      <trkpt lat="46.40661" lon="-1.56151">
        <ele>50.70946</ele>
        <time>2022-05-14T17:04:08.000Z</time>
      </trkpt>
      <trkpt lat="46.4066" lon="-1.56147">
        <ele>50.74368</ele>
        <time>2022-05-14T17:04:10.000Z</time>
      </trkpt>
      <trkpt lat="46.40659" lon="-1.56142">
        <ele>50.81441</ele>
        <time>2022-05-14T17:04:12.000Z</time>
      </trkpt>
      <trkpt lat="46.40659" lon="-1.56138">
        <ele>50.87709</ele>
        <time>2022-05-14T17:04:14.000Z</time>
      </trkpt>
      <trkpt lat="46.40659" lon="-1.56134">
        <ele>50.88368</ele>
        <time>2022-05-14T17:04:16.000Z</time>
      </trkpt>
      <trkpt lat="46.4066" lon="-1.5613">
        <ele>50.70905</ele>
        <time>2022-05-14T17:04:19.000Z</time>
      </trkpt>
      <trkpt lat="46.4066" lon="-1.56126">
        <ele>50.48887</ele>
        <time>2022-05-14T17:04:21.000Z</time>
      </trkpt>
      <trkpt lat="46.4066" lon="-1.56123">
        <ele>50.1854</ele>
        <time>2022-05-14T17:04:23.000Z</time>
      </trkpt>
      <trkpt lat="46.4066" lon="-1.5612">
        <ele>49.86172</ele>
        <time>2022-05-14T17:04:25.000Z</time>
      </trkpt>
      <trkpt lat="46.4066" lon="-1.56115">
        <ele>49.55169</ele>
        <time>2022-05-14T17:04:27.000Z</time>
      </trkpt>
      <trkpt lat="46.4066" lon="-1.56113">
        <ele>49.21847</ele>
        <time>2022-05-14T17:04:29.000Z</time>
      </trkpt>
      <trkpt lat="46.40661" lon="-1.5611">
        <ele>48.89024</ele>
        <time>2022-05-14T17:04:32.000Z</time>
      </trkpt>
      <trkpt lat="46.40661" lon="-1.56107">
        <ele>48.60143</ele>
        <time>2022-05-14T17:04:33.000Z</time>
      </trkpt>
      <trkpt lat="46.40661" lon="-1.56104">
        <ele>48.33968</ele>
        <time>2022-05-14T17:04:34.000Z</time>
      </trkpt>
      <trkpt lat="46.40661" lon="-1.561">
        <ele>48.06382</ele>
        <time>2022-05-14T17:04:36.000Z</time>
      </trkpt>
      <trkpt lat="46.40661" lon="-1.56097">
        <ele>47.81675</ele>
        <time>2022-05-14T17:04:37.000Z</time>
      </trkpt>
      <trkpt lat="46.40661" lon="-1.56094">
        <ele>47.59309</ele>
        <time>2022-05-14T17:04:38.000Z</time>
      </trkpt>
      <trkpt lat="46.40661" lon="-1.56091">
        <ele>47.34906</ele>
        <time>2022-05-14T17:04:39.000Z</time>
      </trkpt>
      <trkpt lat="46.40662" lon="-1.56087">
        <ele>47.08189</ele>
        <time>2022-05-14T17:04:41.000Z</time>
      </trkpt>
      <trkpt lat="46.40662" lon="-1.56083">
        <ele>46.87863</ele>
        <time>2022-05-14T17:04:42.000Z</time>
      </trkpt>
      <trkpt lat="46.40662" lon="-1.5608">
        <ele>46.69403</ele>
        <time>2022-05-14T17:04:43.000Z</time>
      </trkpt>
      <trkpt lat="46.40662" lon="-1.56076">
        <ele>46.49697</ele>
        <time>2022-05-14T17:04:45.000Z</time>
      </trkpt>
      <trkpt lat="46.40663" lon="-1.56071">
        <ele>46.18114</ele>
        <time>2022-05-14T17:04:47.000Z</time>
      </trkpt>
      <trkpt lat="46.40664" lon="-1.56067">
        <ele>45.82881</ele>
        <time>2022-05-14T17:04:49.000Z</time>
      </trkpt>
      <trkpt lat="46.40665" lon="-1.56064">
        <ele>45.47006</ele>
        <time>2022-05-14T17:04:52.000Z</time>
      </trkpt>
      <trkpt lat="46.40665" lon="-1.5606">
        <ele>45.22754</ele>
        <time>2022-05-14T17:04:54.000Z</time>
      </trkpt>
      <trkpt lat="46.40665" lon="-1.56057">
        <ele>45.01654</ele>
        <time>2022-05-14T17:04:56.000Z</time>
      </trkpt>
      <trkpt lat="46.40665" lon="-1.56054">
        <ele>44.8317</ele>
        <time>2022-05-14T17:04:58.000Z</time>
      </trkpt>
      <trkpt lat="46.40665" lon="-1.56049">
        <ele>44.68184</ele>
        <time>2022-05-14T17:05:00.000Z</time>
      </trkpt>
      <trkpt lat="46.40664" lon="-1.56044">
        <ele>44.55836</ele>
        <time>2022-05-14T17:05:02.000Z</time>
      </trkpt>
      <trkpt lat="46.40664" lon="-1.5604">
        <ele>44.55205</ele>
        <time>2022-05-14T17:05:06.000Z</time>
      </trkpt>
      <trkpt lat="46.40664" lon="-1.56036">
        <ele>44.58932</ele>
        <time>2022-05-14T17:05:07.000Z</time>
      </trkpt>
      <trkpt lat="46.40664" lon="-1.56033">
        <ele>44.68137</ele>
        <time>2022-05-14T17:05:08.000Z</time>
      </trkpt>
      <trkpt lat="46.40664" lon="-1.56028">
        <ele>44.75076</ele>
        <time>2022-05-14T17:05:10.000Z</time>
      </trkpt>
      <trkpt lat="46.40665" lon="-1.56024">
        <ele>44.85792</ele>
        <time>2022-05-14T17:05:12.000Z</time>
      </trkpt>
      <trkpt lat="46.40665" lon="-1.56019">
        <ele>45.00168</ele>
        <time>2022-05-14T17:05:14.000Z</time>
      </trkpt>
      <trkpt lat="46.40666" lon="-1.56016">
        <ele>45.24659</ele>
        <time>2022-05-14T17:05:15.000Z</time>
      </trkpt>
      <trkpt lat="46.40668" lon="-1.56012">
        <ele>45.58518</ele>
        <time>2022-05-14T17:05:16.000Z</time>
      </trkpt>
      <trkpt lat="46.40669" lon="-1.56008">
        <ele>46.01271</ele>
        <time>2022-05-14T17:05:17.000Z</time>
      </trkpt>
      <trkpt lat="46.4067" lon="-1.56006">
        <ele>46.30579</ele>
        <time>2022-05-14T17:05:18.000Z</time>
      </trkpt>
      <trkpt lat="46.40671" lon="-1.56002">
        <ele>46.51028</ele>
        <time>2022-05-14T17:05:20.000Z</time>
      </trkpt>
      <trkpt lat="46.40671" lon="-1.55998">
        <ele>46.72611</ele>
        <time>2022-05-14T17:05:22.000Z</time>
      </trkpt>
      <trkpt lat="46.40672" lon="-1.55994">
        <ele>47.07632</ele>
        <time>2022-05-14T17:05:24.000Z</time>
      </trkpt>
      <trkpt lat="46.40673" lon="-1.55991">
        <ele>47.4712</ele>
        <time>2022-05-14T17:05:26.000Z</time>
      </trkpt>
      <trkpt lat="46.40674" lon="-1.55986">
        <ele>47.92258</ele>
        <time>2022-05-14T17:05:28.000Z</time>
      </trkpt>
      <trkpt lat="46.40676" lon="-1.55983">
        <ele>48.40041</ele>
        <time>2022-05-14T17:05:30.000Z</time>
      </trkpt>
      <trkpt lat="46.40677" lon="-1.55979">
        <ele>48.90363</ele>
        <time>2022-05-14T17:05:32.000Z</time>
      </trkpt>
      <trkpt lat="46.40678" lon="-1.55975">
        <ele>49.40981</ele>
        <time>2022-05-14T17:05:34.000Z</time>
      </trkpt>
      <trkpt lat="46.40678" lon="-1.5597">
        <ele>49.97283</ele>
        <time>2022-05-14T17:05:36.000Z</time>
      </trkpt>
      <trkpt lat="46.40679" lon="-1.55967">
        <ele>50.51408</ele>
        <time>2022-05-14T17:05:38.000Z</time>
      </trkpt>
      <trkpt lat="46.40679" lon="-1.55963">
        <ele>50.96926</ele>
        <time>2022-05-14T17:05:40.000Z</time>
      </trkpt>
      <trkpt lat="46.40678" lon="-1.55961">
        <ele>51.38224</ele>
        <time>2022-05-14T17:05:42.000Z</time>
      </trkpt>
      <trkpt lat="46.4068" lon="-1.55957">
        <ele>51.73218</ele>
        <time>2022-05-14T17:05:45.000Z</time>
      </trkpt>
      <trkpt lat="46.40681" lon="-1.55954">
        <ele>52.11057</ele>
        <time>2022-05-14T17:05:46.000Z</time>
      </trkpt>
      <trkpt lat="46.40683" lon="-1.55952">
        <ele>52.45343</ele>
        <time>2022-05-14T17:05:47.000Z</time>
      </trkpt>
      <trkpt lat="46.40684" lon="-1.55951">
        <ele>52.786</ele>
        <time>2022-05-14T17:05:48.000Z</time>
      </trkpt>
      <trkpt lat="46.40686" lon="-1.55949">
        <ele>53.0427</ele>
        <time>2022-05-14T17:05:50.000Z</time>
      </trkpt>
      <trkpt lat="46.40688" lon="-1.55947">
        <ele>53.19067</ele>
        <time>2022-05-14T17:05:52.000Z</time>
      </trkpt>
      <trkpt lat="46.40689" lon="-1.55945">
        <ele>53.21478</ele>
        <time>2022-05-14T17:05:54.000Z</time>
      </trkpt>
      <trkpt lat="46.40691" lon="-1.55944">
        <ele>53.30671</ele>
        <time>2022-05-14T17:05:56.000Z</time>
      </trkpt>
      <trkpt lat="46.40695" lon="-1.55942">
        <ele>53.37832</ele>
        <time>2022-05-14T17:05:58.000Z</time>
      </trkpt>
      <trkpt lat="46.40696" lon="-1.55941">
        <ele>53.47528</ele>
        <time>2022-05-14T17:05:59.000Z</time>
      </trkpt>
      <trkpt lat="46.40698" lon="-1.55939">
        <ele>53.52909</ele>
        <time>2022-05-14T17:06:00.000Z</time>
      </trkpt>
      <trkpt lat="46.407" lon="-1.55937">
        <ele>53.53779</ele>
        <time>2022-05-14T17:06:01.000Z</time>
      </trkpt>
      <trkpt lat="46.40701" lon="-1.55935">
        <ele>53.59859</ele>
        <time>2022-05-14T17:06:02.000Z</time>
      </trkpt>
      <trkpt lat="46.40702" lon="-1.55933">
        <ele>53.70624</ele>
        <time>2022-05-14T17:06:03.000Z</time>
      </trkpt>
      <trkpt lat="46.40703" lon="-1.55931">
        <ele>53.76995</ele>
        <time>2022-05-14T17:06:04.000Z</time>
      </trkpt>
      <trkpt lat="46.40704" lon="-1.55927">
        <ele>53.85199</ele>
        <time>2022-05-14T17:06:06.000Z</time>
      </trkpt>
      <trkpt lat="46.40705" lon="-1.55924">
        <ele>53.87489</ele>
        <time>2022-05-14T17:06:08.000Z</time>
      </trkpt>
      <trkpt lat="46.40705" lon="-1.55919">
        <ele>53.85774</ele>
        <time>2022-05-14T17:06:10.000Z</time>
      </trkpt>
      <trkpt lat="46.40706" lon="-1.55914">
        <ele>53.83281</ele>
        <time>2022-05-14T17:06:12.000Z</time>
      </trkpt>
      <trkpt lat="46.40706" lon="-1.5591">
        <ele>53.6352</ele>
        <time>2022-05-14T17:06:14.000Z</time>
      </trkpt>
      <trkpt lat="46.40706" lon="-1.55907">
        <ele>53.43584</ele>
        <time>2022-05-14T17:06:15.000Z</time>
      </trkpt>
      <trkpt lat="46.40706" lon="-1.55903">
        <ele>53.23428</ele>
        <time>2022-05-14T17:06:17.000Z</time>
      </trkpt>
      <trkpt lat="46.40706" lon="-1.55899">
        <ele>53.01143</ele>
        <time>2022-05-14T17:06:19.000Z</time>
      </trkpt>
      <trkpt lat="46.40706" lon="-1.55895">
        <ele>52.73323</ele>
        <time>2022-05-14T17:06:21.000Z</time>
      </trkpt>
      <trkpt lat="46.40706" lon="-1.55892">
        <ele>52.55643</ele>
        <time>2022-05-14T17:06:23.000Z</time>
      </trkpt>
      <trkpt lat="46.40706" lon="-1.55888">
        <ele>52.43107</ele>
        <time>2022-05-14T17:06:25.000Z</time>
      </trkpt>
      <trkpt lat="46.40705" lon="-1.55885">
        <ele>52.33634</ele>
        <time>2022-05-14T17:06:26.000Z</time>
      </trkpt>
      <trkpt lat="46.40705" lon="-1.55882">
        <ele>52.27158</ele>
        <time>2022-05-14T17:06:27.000Z</time>
      </trkpt>
      <trkpt lat="46.40704" lon="-1.55878">
        <ele>52.276</ele>
        <time>2022-05-14T17:06:29.000Z</time>
      </trkpt>
      <trkpt lat="46.40704" lon="-1.55875">
        <ele>52.27711</ele>
        <time>2022-05-14T17:06:30.000Z</time>
      </trkpt>
      <trkpt lat="46.40704" lon="-1.55872">
        <ele>52.27631</ele>
        <time>2022-05-14T17:06:31.000Z</time>
      </trkpt>
      <trkpt lat="46.40704" lon="-1.55869">
        <ele>52.28049</ele>
        <time>2022-05-14T17:06:33.000Z</time>
      </trkpt>
      <trkpt lat="46.40704" lon="-1.55866">
        <ele>52.22637</ele>
        <time>2022-05-14T17:06:35.000Z</time>
      </trkpt>
      <trkpt lat="46.40703" lon="-1.55861">
        <ele>52.10384</ele>
        <time>2022-05-14T17:06:37.000Z</time>
      </trkpt>
      <trkpt lat="46.40703" lon="-1.55856">
        <ele>51.977</ele>
        <time>2022-05-14T17:06:39.000Z</time>
      </trkpt>
      <trkpt lat="46.40702" lon="-1.55853">
        <ele>51.78606</ele>
        <time>2022-05-14T17:06:40.000Z</time>
      </trkpt>
      <trkpt lat="46.40701" lon="-1.5585">
        <ele>51.60209</ele>
        <time>2022-05-14T17:06:41.000Z</time>
      </trkpt>
      <trkpt lat="46.407" lon="-1.55846">
        <ele>51.51034</ele>
        <time>2022-05-14T17:06:43.000Z</time>
      </trkpt>
      <trkpt lat="46.407" lon="-1.55843">
        <ele>51.43406</ele>
        <time>2022-05-14T17:06:45.000Z</time>
      </trkpt>
      <trkpt lat="46.40699" lon="-1.55838">
        <ele>51.60986</ele>
        <time>2022-05-14T17:06:48.000Z</time>
      </trkpt>
      <trkpt lat="46.40698" lon="-1.55834">
        <ele>51.82275</ele>
        <time>2022-05-14T17:06:50.000Z</time>
      </trkpt>
      <trkpt lat="46.40697" lon="-1.5583">
        <ele>52.02473</ele>
        <time>2022-05-14T17:06:52.000Z</time>
      </trkpt>
      <trkpt lat="46.40695" lon="-1.55828">
        <ele>52.21297</ele>
        <time>2022-05-14T17:06:55.000Z</time>
      </trkpt>
      <trkpt lat="46.40693" lon="-1.55824">
        <ele>52.46548</ele>
        <time>2022-05-14T17:06:57.000Z</time>
      </trkpt>
      <trkpt lat="46.40692" lon="-1.5582">
        <ele>52.60519</ele>
        <time>2022-05-14T17:06:59.000Z</time>
      </trkpt>
      <trkpt lat="46.40691" lon="-1.55817">
        <ele>52.70896</ele>
        <time>2022-05-14T17:07:01.000Z</time>
      </trkpt>
      <trkpt lat="46.4069" lon="-1.55814">
        <ele>52.78735</ele>
        <time>2022-05-14T17:07:03.000Z</time>
      </trkpt>
      <trkpt lat="46.40689" lon="-1.55811">
        <ele>52.83868</ele>
        <time>2022-05-14T17:07:05.000Z</time>
      </trkpt>
      <trkpt lat="46.40688" lon="-1.55808">
        <ele>52.84681</ele>
        <time>2022-05-14T17:07:07.000Z</time>
      </trkpt>
      <trkpt lat="46.40688" lon="-1.55804">
        <ele>52.84771</ele>
        <time>2022-05-14T17:07:09.000Z</time>
      </trkpt>
      <trkpt lat="46.40688" lon="-1.55799">
        <ele>52.88599</ele>
        <time>2022-05-14T17:07:11.000Z</time>
      </trkpt>
      <trkpt lat="46.40688" lon="-1.55796">
        <ele>52.95651</ele>
        <time>2022-05-14T17:07:12.000Z</time>
      </trkpt>
      <trkpt lat="46.40688" lon="-1.55793">
        <ele>53.02634</ele>
        <time>2022-05-14T17:07:13.000Z</time>
      </trkpt>
      <trkpt lat="46.40687" lon="-1.55791">
        <ele>53.11981</ele>
        <time>2022-05-14T17:07:14.000Z</time>
      </trkpt>
      <trkpt lat="46.40686" lon="-1.55786">
        <ele>53.30927</ele>
        <time>2022-05-14T17:07:16.000Z</time>
      </trkpt>
      <trkpt lat="46.40685" lon="-1.55783">
        <ele>53.56623</ele>
        <time>2022-05-14T17:07:17.000Z</time>
      </trkpt>
      <trkpt lat="46.40684" lon="-1.55779">
        <ele>53.85931</ele>
        <time>2022-05-14T17:07:19.000Z</time>
      </trkpt>
      <trkpt lat="46.40683" lon="-1.55777">
        <ele>54.08123</ele>
        <time>2022-05-14T17:07:20.000Z</time>
      </trkpt>
      <trkpt lat="46.40682" lon="-1.55772">
        <ele>54.36921</ele>
        <time>2022-05-14T17:07:22.000Z</time>
      </trkpt>
      <trkpt lat="46.40682" lon="-1.5577">
        <ele>54.5817</ele>
        <time>2022-05-14T17:07:23.000Z</time>
      </trkpt>
      <trkpt lat="46.40681" lon="-1.55765">
        <ele>54.77779</ele>
        <time>2022-05-14T17:07:25.000Z</time>
      </trkpt>
      <trkpt lat="46.4068" lon="-1.55761">
        <ele>54.94141</ele>
        <time>2022-05-14T17:07:27.000Z</time>
      </trkpt>
      <trkpt lat="46.40679" lon="-1.55758">
        <ele>55.1613</ele>
        <time>2022-05-14T17:07:29.000Z</time>
      </trkpt>
      <trkpt lat="46.40678" lon="-1.55754">
        <ele>55.36571</ele>
        <time>2022-05-14T17:07:31.000Z</time>
      </trkpt>
      <trkpt lat="46.40677" lon="-1.55751">
        <ele>55.54902</ele>
        <time>2022-05-14T17:07:33.000Z</time>
      </trkpt>
      <trkpt lat="46.40676" lon="-1.55747">
        <ele>55.76467</ele>
        <time>2022-05-14T17:07:35.000Z</time>
      </trkpt>
      <trkpt lat="46.40674" lon="-1.55744">
        <ele>55.98165</ele>
        <time>2022-05-14T17:07:37.000Z</time>
      </trkpt>
      <trkpt lat="46.40673" lon="-1.55739">
        <ele>56.22478</ele>
        <time>2022-05-14T17:07:39.000Z</time>
      </trkpt>
      <trkpt lat="46.40673" lon="-1.55736">
        <ele>56.5368</ele>
        <time>2022-05-14T17:07:41.000Z</time>
      </trkpt>
      <trkpt lat="46.40672" lon="-1.55733">
        <ele>56.89037</ele>
        <time>2022-05-14T17:07:43.000Z</time>
      </trkpt>
      <trkpt lat="46.40672" lon="-1.55729">
        <ele>57.21504</ele>
        <time>2022-05-14T17:07:45.000Z</time>
      </trkpt>
      <trkpt lat="46.40672" lon="-1.55726">
        <ele>57.51091</ele>
        <time>2022-05-14T17:07:47.000Z</time>
      </trkpt>
      <trkpt lat="46.40671" lon="-1.55722">
        <ele>57.83945</ele>
        <time>2022-05-14T17:07:49.000Z</time>
      </trkpt>
      <trkpt lat="46.4067" lon="-1.5572">
        <ele>58.15652</ele>
        <time>2022-05-14T17:07:50.000Z</time>
      </trkpt>
      <trkpt lat="46.4067" lon="-1.55715">
        <ele>58.44032</ele>
        <time>2022-05-14T17:07:52.000Z</time>
      </trkpt>
      <trkpt lat="46.40669" lon="-1.55711">
        <ele>58.71867</ele>
        <time>2022-05-14T17:07:54.000Z</time>
      </trkpt>
      <trkpt lat="46.40669" lon="-1.55707">
        <ele>58.98021</ele>
        <time>2022-05-14T17:07:56.000Z</time>
      </trkpt>
      <trkpt lat="46.40669" lon="-1.55703">
        <ele>59.23097</ele>
        <time>2022-05-14T17:07:58.000Z</time>
      </trkpt>
      <trkpt lat="46.40668" lon="-1.55699">
        <ele>59.37343</ele>
        <time>2022-05-14T17:08:00.000Z</time>
      </trkpt>
      <trkpt lat="46.40668" lon="-1.55695">
        <ele>59.48634</ele>
        <time>2022-05-14T17:08:02.000Z</time>
      </trkpt>
      <trkpt lat="46.40667" lon="-1.5569">
        <ele>59.57198</ele>
        <time>2022-05-14T17:08:04.000Z</time>
      </trkpt>
      <trkpt lat="46.40666" lon="-1.55687">
        <ele>59.75137</ele>
        <time>2022-05-14T17:08:06.000Z</time>
      </trkpt>
      <trkpt lat="46.40665" lon="-1.55683">
        <ele>59.81346</ele>
        <time>2022-05-14T17:08:09.000Z</time>
      </trkpt>
      <trkpt lat="46.40665" lon="-1.5568">
        <ele>59.78157</ele>
        <time>2022-05-14T17:08:11.000Z</time>
      </trkpt>
      <trkpt lat="46.40665" lon="-1.55676">
        <ele>59.72996</ele>
        <time>2022-05-14T17:08:13.000Z</time>
      </trkpt>
      <trkpt lat="46.40665" lon="-1.55671">
        <ele>59.6291</ele>
        <time>2022-05-14T17:08:15.000Z</time>
      </trkpt>
      <trkpt lat="46.40665" lon="-1.55669">
        <ele>59.51566</ele>
        <time>2022-05-14T17:08:16.000Z</time>
      </trkpt>
      <trkpt lat="46.40664" lon="-1.55665">
        <ele>59.37579</ele>
        <time>2022-05-14T17:08:18.000Z</time>
      </trkpt>
      <trkpt lat="46.40663" lon="-1.5566">
        <ele>59.32905</ele>
        <time>2022-05-14T17:08:20.000Z</time>
      </trkpt>
      <trkpt lat="46.40663" lon="-1.55657">
        <ele>59.20867</ele>
        <time>2022-05-14T17:08:21.000Z</time>
      </trkpt>
      <trkpt lat="46.40662" lon="-1.55654">
        <ele>58.93299</ele>
        <time>2022-05-14T17:08:23.000Z</time>
      </trkpt>
      <trkpt lat="46.40662" lon="-1.5565">
        <ele>58.73011</ele>
        <time>2022-05-14T17:08:25.000Z</time>
      </trkpt>
      <trkpt lat="46.40661" lon="-1.55646">
        <ele>58.46365</ele>
        <time>2022-05-14T17:08:27.000Z</time>
      </trkpt>
      <trkpt lat="46.4066" lon="-1.55642">
        <ele>58.26315</ele>
        <time>2022-05-14T17:08:29.000Z</time>
      </trkpt>
      <trkpt lat="46.40659" lon="-1.55638">
        <ele>58.11063</ele>
        <time>2022-05-14T17:08:50.000Z</time>
      </trkpt>
      <trkpt lat="46.40659" lon="-1.55633">
        <ele>57.8462</ele>
        <time>2022-05-14T17:08:52.000Z</time>
      </trkpt>
      <trkpt lat="46.40658" lon="-1.55631">
        <ele>57.53831</ele>
        <time>2022-05-14T17:08:53.000Z</time>
      </trkpt>
      <trkpt lat="46.40658" lon="-1.55628">
        <ele>57.30915</ele>
        <time>2022-05-14T17:08:54.000Z</time>
      </trkpt>
      <trkpt lat="46.40658" lon="-1.55625">
        <ele>57.16964</ele>
        <time>2022-05-14T17:08:55.000Z</time>
      </trkpt>
      <trkpt lat="46.40658" lon="-1.55623">
        <ele>57.04534</ele>
        <time>2022-05-14T17:08:56.000Z</time>
      </trkpt>
      <trkpt lat="46.40657" lon="-1.55618">
        <ele>56.88087</ele>
        <time>2022-05-14T17:08:58.000Z</time>
      </trkpt>
      <trkpt lat="46.40656" lon="-1.55614">
        <ele>56.71816</ele>
        <time>2022-05-14T17:09:00.000Z</time>
      </trkpt>
      <trkpt lat="46.40655" lon="-1.5561">
        <ele>56.51494</ele>
        <time>2022-05-14T17:09:02.000Z</time>
      </trkpt>
      <trkpt lat="46.40655" lon="-1.55607">
        <ele>56.36458</ele>
        <time>2022-05-14T17:09:04.000Z</time>
      </trkpt>
      <trkpt lat="46.40655" lon="-1.55603">
        <ele>56.18365</ele>
        <time>2022-05-14T17:09:06.000Z</time>
      </trkpt>
      <trkpt lat="46.40654" lon="-1.55598">
        <ele>56.01488</ele>
        <time>2022-05-14T17:09:08.000Z</time>
      </trkpt>
      <trkpt lat="46.40654" lon="-1.55595">
        <ele>55.87936</ele>
        <time>2022-05-14T17:09:09.000Z</time>
      </trkpt>
      <trkpt lat="46.40653" lon="-1.5559">
        <ele>55.7681</ele>
        <time>2022-05-14T17:09:11.000Z</time>
      </trkpt>
      <trkpt lat="46.40653" lon="-1.55588">
        <ele>55.57548</ele>
        <time>2022-05-14T17:09:12.000Z</time>
      </trkpt>
      <trkpt lat="46.40653" lon="-1.55585">
        <ele>55.43328</ele>
        <time>2022-05-14T17:09:13.000Z</time>
      </trkpt>
      <trkpt lat="46.40653" lon="-1.55581">
        <ele>55.46243</ele>
        <time>2022-05-14T17:09:15.000Z</time>
      </trkpt>
      <trkpt lat="46.40652" lon="-1.55577">
        <ele>55.46548</ele>
        <time>2022-05-14T17:09:17.000Z</time>
      </trkpt>
      <trkpt lat="46.40652" lon="-1.55572">
        <ele>55.53346</ele>
        <time>2022-05-14T17:09:19.000Z</time>
      </trkpt>
      <trkpt lat="46.40652" lon="-1.55569">
        <ele>55.51051</ele>
        <time>2022-05-14T17:09:20.000Z</time>
      </trkpt>
      <trkpt lat="46.40652" lon="-1.55566">
        <ele>55.39985</ele>
        <time>2022-05-14T17:09:21.000Z</time>
      </trkpt>
      <trkpt lat="46.40651" lon="-1.55562">
        <ele>55.35634</ele>
        <time>2022-05-14T17:09:23.000Z</time>
      </trkpt>
      <trkpt lat="46.40652" lon="-1.55558">
        <ele>55.37998</ele>
        <time>2022-05-14T17:09:25.000Z</time>
      </trkpt>
      <trkpt lat="46.40651" lon="-1.55555">
        <ele>55.38768</ele>
        <time>2022-05-14T17:09:27.000Z</time>
      </trkpt>
      <trkpt lat="46.4065" lon="-1.55551">
        <ele>55.39298</ele>
        <time>2022-05-14T17:09:29.000Z</time>
      </trkpt>
      <trkpt lat="46.40649" lon="-1.55546">
        <ele>55.3924</ele>
        <time>2022-05-14T17:09:31.000Z</time>
      </trkpt>
      <trkpt lat="46.40649" lon="-1.55544">
        <ele>55.45317</ele>
        <time>2022-05-14T17:09:32.000Z</time>
      </trkpt>
      <trkpt lat="46.40649" lon="-1.55541">
        <ele>55.43764</ele>
        <time>2022-05-14T17:09:33.000Z</time>
      </trkpt>
      <trkpt lat="46.40649" lon="-1.55538">
        <ele>55.57718</ele>
        <time>2022-05-14T17:09:34.000Z</time>
      </trkpt>
      <trkpt lat="46.40649" lon="-1.55533">
        <ele>55.70779</ele>
        <time>2022-05-14T17:09:36.000Z</time>
      </trkpt>
      <trkpt lat="46.40649" lon="-1.55529">
        <ele>55.90944</ele>
        <time>2022-05-14T17:09:38.000Z</time>
      </trkpt>
      <trkpt lat="46.40649" lon="-1.55526">
        <ele>56.12152</ele>
        <time>2022-05-14T17:09:40.000Z</time>
      </trkpt>
      <trkpt lat="46.40649" lon="-1.55521">
        <ele>56.35099</ele>
        <time>2022-05-14T17:09:42.000Z</time>
      </trkpt>
      <trkpt lat="46.40648" lon="-1.55517">
        <ele>56.60658</ele>
        <time>2022-05-14T17:09:44.000Z</time>
      </trkpt>
      <trkpt lat="46.40646" lon="-1.55514">
        <ele>56.87092</ele>
        <time>2022-05-14T17:09:46.000Z</time>
      </trkpt>
      <trkpt lat="46.40645" lon="-1.55511">
        <ele>57.10508</ele>
        <time>2022-05-14T17:09:47.000Z</time>
      </trkpt>
      <trkpt lat="46.40644" lon="-1.55509">
        <ele>57.30424</ele>
        <time>2022-05-14T17:09:48.000Z</time>
      </trkpt>
      <trkpt lat="46.40643" lon="-1.55505">
        <ele>57.52527</ele>
        <time>2022-05-14T17:09:50.000Z</time>
      </trkpt>
      <trkpt lat="46.40641" lon="-1.55502">
        <ele>57.78632</ele>
        <time>2022-05-14T17:09:52.000Z</time>
      </trkpt>
      <trkpt lat="46.4064" lon="-1.55498">
        <ele>58.02117</ele>
        <time>2022-05-14T17:09:55.000Z</time>
      </trkpt>
      <trkpt lat="46.4064" lon="-1.55494">
        <ele>58.16294</ele>
        <time>2022-05-14T17:09:57.000Z</time>
      </trkpt>
      <trkpt lat="46.4064" lon="-1.5549">
        <ele>58.38478</ele>
        <time>2022-05-14T17:09:59.000Z</time>
      </trkpt>
      <trkpt lat="46.40639" lon="-1.55487">
        <ele>58.56374</ele>
        <time>2022-05-14T17:10:01.000Z</time>
      </trkpt>
      <trkpt lat="46.4064" lon="-1.55483">
        <ele>58.5739</ele>
        <time>2022-05-14T17:10:03.000Z</time>
      </trkpt>
      <trkpt lat="46.40639" lon="-1.55478">
        <ele>58.55656</ele>
        <time>2022-05-14T17:10:05.000Z</time>
      </trkpt>
      <trkpt lat="46.40639" lon="-1.55475">
        <ele>58.51796</ele>
        <time>2022-05-14T17:10:06.000Z</time>
      </trkpt>
      <trkpt lat="46.40639" lon="-1.55472">
        <ele>58.48386</ele>
        <time>2022-05-14T17:10:07.000Z</time>
      </trkpt>
      <trkpt lat="46.40639" lon="-1.55469">
        <ele>58.46882</ele>
        <time>2022-05-14T17:10:08.000Z</time>
      </trkpt>
      <trkpt lat="46.40639" lon="-1.55466">
        <ele>58.39161</ele>
        <time>2022-05-14T17:10:10.000Z</time>
      </trkpt>
      <trkpt lat="46.40637" lon="-1.55462">
        <ele>58.348</ele>
        <time>2022-05-14T17:10:12.000Z</time>
      </trkpt>
      <trkpt lat="46.40636" lon="-1.55457">
        <ele>58.29055</ele>
        <time>2022-05-14T17:10:14.000Z</time>
      </trkpt>
      <trkpt lat="46.40635" lon="-1.55453">
        <ele>58.23577</ele>
        <time>2022-05-14T17:10:16.000Z</time>
      </trkpt>
      <trkpt lat="46.40634" lon="-1.55448">
        <ele>58.2202</ele>
        <time>2022-05-14T17:10:18.000Z</time>
      </trkpt>
      <trkpt lat="46.40633" lon="-1.55444">
        <ele>58.21348</ele>
        <time>2022-05-14T17:10:20.000Z</time>
      </trkpt>
      <trkpt lat="46.40632" lon="-1.5544">
        <ele>58.12466</ele>
        <time>2022-05-14T17:10:22.000Z</time>
      </trkpt>
      <trkpt lat="46.40631" lon="-1.55436">
        <ele>58.04789</ele>
        <time>2022-05-14T17:10:24.000Z</time>
      </trkpt>
      <trkpt lat="46.4063" lon="-1.55431">
        <ele>57.98178</ele>
        <time>2022-05-14T17:10:26.000Z</time>
      </trkpt>
      <trkpt lat="46.40628" lon="-1.55427">
        <ele>57.90975</ele>
        <time>2022-05-14T17:10:28.000Z</time>
      </trkpt>
      <trkpt lat="46.40627" lon="-1.55423">
        <ele>57.7921</ele>
        <time>2022-05-14T17:10:30.000Z</time>
      </trkpt>
      <trkpt lat="46.40626" lon="-1.5542">
        <ele>57.74797</ele>
        <time>2022-05-14T17:10:32.000Z</time>
      </trkpt>
      <trkpt lat="46.40624" lon="-1.55417">
        <ele>57.75299</ele>
        <time>2022-05-14T17:10:34.000Z</time>
      </trkpt>
      <trkpt lat="46.40623" lon="-1.55414">
        <ele>57.66908</ele>
        <time>2022-05-14T17:10:36.000Z</time>
      </trkpt>
      <trkpt lat="46.40622" lon="-1.55411">
        <ele>57.54559</ele>
        <time>2022-05-14T17:10:38.000Z</time>
      </trkpt>
      <trkpt lat="46.40621" lon="-1.55407">
        <ele>57.54847</ele>
        <time>2022-05-14T17:10:40.000Z</time>
      </trkpt>
      <trkpt lat="46.40621" lon="-1.55403">
        <ele>57.53823</ele>
        <time>2022-05-14T17:10:42.000Z</time>
      </trkpt>
      <trkpt lat="46.4062" lon="-1.55398">
        <ele>57.59093</ele>
        <time>2022-05-14T17:10:44.000Z</time>
      </trkpt>
      <trkpt lat="46.4062" lon="-1.55395">
        <ele>57.56146</ele>
        <time>2022-05-14T17:10:46.000Z</time>
      </trkpt>
      <trkpt lat="46.4062" lon="-1.55393">
        <ele>57.5658</ele>
        <time>2022-05-14T17:10:48.000Z</time>
      </trkpt>
      <trkpt lat="46.4062" lon="-1.55389">
        <ele>57.57481</ele>
        <time>2022-05-14T17:10:50.000Z</time>
      </trkpt>
      <trkpt lat="46.4062" lon="-1.55386">
        <ele>57.54489</ele>
        <time>2022-05-14T17:10:52.000Z</time>
      </trkpt>
      <trkpt lat="46.4062" lon="-1.55382">
        <ele>57.49911</ele>
        <time>2022-05-14T17:10:54.000Z</time>
      </trkpt>
      <trkpt lat="46.4062" lon="-1.55378">
        <ele>57.4562</ele>
        <time>2022-05-14T17:10:56.000Z</time>
      </trkpt>
      <trkpt lat="46.40621" lon="-1.55375">
        <ele>57.38721</ele>
        <time>2022-05-14T17:10:57.000Z</time>
      </trkpt>
      <trkpt lat="46.40622" lon="-1.5537">
        <ele>57.29844</ele>
        <time>2022-05-14T17:10:59.000Z</time>
      </trkpt>
      <trkpt lat="46.40623" lon="-1.55366">
        <ele>57.19897</ele>
        <time>2022-05-14T17:11:01.000Z</time>
      </trkpt>
      <trkpt lat="46.40624" lon="-1.55362">
        <ele>57.11511</ele>
        <time>2022-05-14T17:11:03.000Z</time>
      </trkpt>
      <trkpt lat="46.40626" lon="-1.55357">
        <ele>57.07587</ele>
        <time>2022-05-14T17:11:05.000Z</time>
      </trkpt>
      <trkpt lat="46.40627" lon="-1.55353">
        <ele>56.98922</ele>
        <time>2022-05-14T17:11:07.000Z</time>
      </trkpt>
      <trkpt lat="46.40628" lon="-1.55349">
        <ele>56.90404</ele>
        <time>2022-05-14T17:11:09.000Z</time>
      </trkpt>
      <trkpt lat="46.40628" lon="-1.55345">
        <ele>56.70679</ele>
        <time>2022-05-14T17:11:11.000Z</time>
      </trkpt>
      <trkpt lat="46.40628" lon="-1.55342">
        <ele>56.51176</ele>
        <time>2022-05-14T17:11:13.000Z</time>
      </trkpt>
      <trkpt lat="46.40627" lon="-1.55338">
        <ele>56.31559</ele>
        <time>2022-05-14T17:11:15.000Z</time>
      </trkpt>
      <trkpt lat="46.40625" lon="-1.55335">
        <ele>56.16264</ele>
        <time>2022-05-14T17:11:17.000Z</time>
      </trkpt>
      <trkpt lat="46.40624" lon="-1.55331">
        <ele>56.05352</ele>
        <time>2022-05-14T17:11:19.000Z</time>
      </trkpt>
      <trkpt lat="46.40624" lon="-1.55326">
        <ele>55.91448</ele>
        <time>2022-05-14T17:11:21.000Z</time>
      </trkpt>
      <trkpt lat="46.40623" lon="-1.55322">
        <ele>55.75637</ele>
        <time>2022-05-14T17:11:23.000Z</time>
      </trkpt>
      <trkpt lat="46.40623" lon="-1.55318">
        <ele>55.68982</ele>
        <time>2022-05-14T17:11:25.000Z</time>
      </trkpt>
      <trkpt lat="46.40622" lon="-1.55314">
        <ele>55.57399</ele>
        <time>2022-05-14T17:11:27.000Z</time>
      </trkpt>
      <trkpt lat="46.40622" lon="-1.55309">
        <ele>55.43666</ele>
        <time>2022-05-14T17:11:29.000Z</time>
      </trkpt>
      <trkpt lat="46.40622" lon="-1.55305">
        <ele>55.30382</ele>
        <time>2022-05-14T17:11:31.000Z</time>
      </trkpt>
      <trkpt lat="46.40622" lon="-1.55302">
        <ele>55.23193</ele>
        <time>2022-05-14T17:11:33.000Z</time>
      </trkpt>
      <trkpt lat="46.40621" lon="-1.55298">
        <ele>55.20532</ele>
        <time>2022-05-14T17:11:35.000Z</time>
      </trkpt>
      <trkpt lat="46.40619" lon="-1.55295">
        <ele>55.09019</ele>
        <time>2022-05-14T17:11:37.000Z</time>
      </trkpt>
      <trkpt lat="46.40618" lon="-1.55292">
        <ele>54.92275</ele>
        <time>2022-05-14T17:11:38.000Z</time>
      </trkpt>
      <trkpt lat="46.40617" lon="-1.5529">
        <ele>54.81734</ele>
        <time>2022-05-14T17:11:39.000Z</time>
      </trkpt>
      <trkpt lat="46.40615" lon="-1.55286">
        <ele>54.68231</ele>
        <time>2022-05-14T17:11:41.000Z</time>
      </trkpt>
      <trkpt lat="46.40614" lon="-1.55282">
        <ele>54.49502</ele>
        <time>2022-05-14T17:11:43.000Z</time>
      </trkpt>
      <trkpt lat="46.40613" lon="-1.55278">
        <ele>54.33656</ele>
        <time>2022-05-14T17:11:45.000Z</time>
      </trkpt>
      <trkpt lat="46.40612" lon="-1.55275">
        <ele>54.17412</ele>
        <time>2022-05-14T17:11:46.000Z</time>
      </trkpt>
      <trkpt lat="46.40611" lon="-1.55272">
        <ele>54.09078</ele>
        <time>2022-05-14T17:11:47.000Z</time>
      </trkpt>
      <trkpt lat="46.4061" lon="-1.55269">
        <ele>54.02419</ele>
        <time>2022-05-14T17:11:49.000Z</time>
      </trkpt>
      <trkpt lat="46.40608" lon="-1.55266">
        <ele>54.04869</ele>
        <time>2022-05-14T17:11:51.000Z</time>
      </trkpt>
      <trkpt lat="46.40607" lon="-1.55262">
        <ele>54.07697</ele>
        <time>2022-05-14T17:11:53.000Z</time>
      </trkpt>
      <trkpt lat="46.40606" lon="-1.55257">
        <ele>54.08008</ele>
        <time>2022-05-14T17:11:55.000Z</time>
      </trkpt>
      <trkpt lat="46.40605" lon="-1.55255">
        <ele>54.11953</ele>
        <time>2022-05-14T17:11:56.000Z</time>
      </trkpt>
      <trkpt lat="46.40604" lon="-1.5525">
        <ele>54.19125</ele>
        <time>2022-05-14T17:11:58.000Z</time>
      </trkpt>
      <trkpt lat="46.40604" lon="-1.55248">
        <ele>54.28379</ele>
        <time>2022-05-14T17:11:59.000Z</time>
      </trkpt>
      <trkpt lat="46.40603" lon="-1.55244">
        <ele>54.44054</ele>
        <time>2022-05-14T17:12:01.000Z</time>
      </trkpt>
      <trkpt lat="46.40602" lon="-1.55241">
        <ele>54.66999</ele>
        <time>2022-05-14T17:12:03.000Z</time>
      </trkpt>
      <trkpt lat="46.40601" lon="-1.55236">
        <ele>54.86658</ele>
        <time>2022-05-14T17:12:05.000Z</time>
      </trkpt>
      <trkpt lat="46.40601" lon="-1.55234">
        <ele>55.01377</ele>
        <time>2022-05-14T17:12:06.000Z</time>
      </trkpt>
      <trkpt lat="46.40601" lon="-1.55231">
        <ele>55.09344</ele>
        <time>2022-05-14T17:12:07.000Z</time>
      </trkpt>
      <trkpt lat="46.406" lon="-1.55227">
        <ele>55.25683</ele>
        <time>2022-05-14T17:12:08.000Z</time>
      </trkpt>
      <trkpt lat="46.40599" lon="-1.55224">
        <ele>55.52509</ele>
        <time>2022-05-14T17:12:09.000Z</time>
      </trkpt>
      <trkpt lat="46.40599" lon="-1.5522">
        <ele>55.68486</ele>
        <time>2022-05-14T17:12:11.000Z</time>
      </trkpt>
      <trkpt lat="46.40598" lon="-1.55216">
        <ele>55.8637</ele>
        <time>2022-05-14T17:12:14.000Z</time>
      </trkpt>
      <trkpt lat="46.40598" lon="-1.55212">
        <ele>56.01576</ele>
        <time>2022-05-14T17:12:16.000Z</time>
      </trkpt>
      <trkpt lat="46.40597" lon="-1.55208">
        <ele>56.16956</ele>
        <time>2022-05-14T17:12:18.000Z</time>
      </trkpt>
      <trkpt lat="46.40596" lon="-1.55205">
        <ele>56.33686</ele>
        <time>2022-05-14T17:12:20.000Z</time>
      </trkpt>
      <trkpt lat="46.40596" lon="-1.55201">
        <ele>56.56371</ele>
        <time>2022-05-14T17:12:22.000Z</time>
      </trkpt>
      <trkpt lat="46.40595" lon="-1.55196">
        <ele>56.76798</ele>
        <time>2022-05-14T17:12:24.000Z</time>
      </trkpt>
      <trkpt lat="46.40594" lon="-1.55192">
        <ele>56.94769</ele>
        <time>2022-05-14T17:12:26.000Z</time>
      </trkpt>
      <trkpt lat="46.40593" lon="-1.55188">
        <ele>57.17854</ele>
        <time>2022-05-14T17:12:28.000Z</time>
      </trkpt>
      <trkpt lat="46.40593" lon="-1.55185">
        <ele>57.38977</ele>
        <time>2022-05-14T17:12:29.000Z</time>
      </trkpt>
      <trkpt lat="46.40592" lon="-1.55182">
        <ele>57.53774</ele>
        <time>2022-05-14T17:12:31.000Z</time>
      </trkpt>
      <trkpt lat="46.4059" lon="-1.55179">
        <ele>57.59902</ele>
        <time>2022-05-14T17:12:33.000Z</time>
      </trkpt>
      <trkpt lat="46.4059" lon="-1.55176">
        <ele>57.64297</ele>
        <time>2022-05-14T17:12:35.000Z</time>
      </trkpt>
      <trkpt lat="46.40589" lon="-1.55173">
        <ele>57.66256</ele>
        <time>2022-05-14T17:12:37.000Z</time>
      </trkpt>
      <trkpt lat="46.40588" lon="-1.55171">
        <ele>57.66334</ele>
        <time>2022-05-14T17:12:38.000Z</time>
      </trkpt>
      <trkpt lat="46.40587" lon="-1.55168">
        <ele>57.68285</ele>
        <time>2022-05-14T17:12:39.000Z</time>
      </trkpt>
      <trkpt lat="46.40587" lon="-1.55165">
        <ele>57.70931</ele>
        <time>2022-05-14T17:12:40.000Z</time>
      </trkpt>
      <trkpt lat="46.40586" lon="-1.55161">
        <ele>57.70642</ele>
        <time>2022-05-14T17:12:42.000Z</time>
      </trkpt>
      <trkpt lat="46.40585" lon="-1.55157">
        <ele>57.67607</ele>
        <time>2022-05-14T17:12:44.000Z</time>
      </trkpt>
      <trkpt lat="46.40586" lon="-1.55153">
        <ele>57.53358</ele>
        <time>2022-05-14T17:12:46.000Z</time>
      </trkpt>
      <trkpt lat="46.40587" lon="-1.55149">
        <ele>57.44798</ele>
        <time>2022-05-14T17:12:48.000Z</time>
      </trkpt>
      <trkpt lat="46.40588" lon="-1.55145">
        <ele>57.35159</ele>
        <time>2022-05-14T17:12:50.000Z</time>
      </trkpt>
      <trkpt lat="46.40588" lon="-1.5514">
        <ele>57.32356</ele>
        <time>2022-05-14T17:12:52.000Z</time>
      </trkpt>
      <trkpt lat="46.40588" lon="-1.55136">
        <ele>57.29097</ele>
        <time>2022-05-14T17:12:54.000Z</time>
      </trkpt>
      <trkpt lat="46.40588" lon="-1.55132">
        <ele>57.30605</ele>
        <time>2022-05-14T17:12:56.000Z</time>
      </trkpt>
      <trkpt lat="46.40587" lon="-1.55127">
        <ele>57.26056</ele>
        <time>2022-05-14T17:12:58.000Z</time>
      </trkpt>
      <trkpt lat="46.40587" lon="-1.55123">
        <ele>57.18497</ele>
        <time>2022-05-14T17:13:00.000Z</time>
      </trkpt>
      <trkpt lat="46.40586" lon="-1.55118">
        <ele>57.09747</ele>
        <time>2022-05-14T17:13:02.000Z</time>
      </trkpt>
      <trkpt lat="46.40586" lon="-1.55115">
        <ele>56.98123</ele>
        <time>2022-05-14T17:13:03.000Z</time>
      </trkpt>
      <trkpt lat="46.40586" lon="-1.55112">
        <ele>56.84563</ele>
        <time>2022-05-14T17:13:04.000Z</time>
      </trkpt>
      <trkpt lat="46.40585" lon="-1.55109">
        <ele>56.75663</ele>
        <time>2022-05-14T17:13:05.000Z</time>
      </trkpt>
      <trkpt lat="46.40585" lon="-1.55107">
        <ele>56.69285</ele>
        <time>2022-05-14T17:13:06.000Z</time>
      </trkpt>
      <trkpt lat="46.40584" lon="-1.55102">
        <ele>56.62791</ele>
        <time>2022-05-14T17:13:08.000Z</time>
      </trkpt>
      <trkpt lat="46.40583" lon="-1.55099">
        <ele>56.47981</ele>
        <time>2022-05-14T17:13:10.000Z</time>
      </trkpt>
      <trkpt lat="46.40581" lon="-1.55096">
        <ele>56.31271</ele>
        <time>2022-05-14T17:13:12.000Z</time>
      </trkpt>
      <trkpt lat="46.4058" lon="-1.55092">
        <ele>56.18746</ele>
        <time>2022-05-14T17:13:14.000Z</time>
      </trkpt>
      <trkpt lat="46.40579" lon="-1.55089">
        <ele>56.0918</ele>
        <time>2022-05-14T17:13:16.000Z</time>
      </trkpt>
      <trkpt lat="46.40579" lon="-1.55086">
        <ele>56.0428</ele>
        <time>2022-05-14T17:13:18.000Z</time>
      </trkpt>
      <trkpt lat="46.40578" lon="-1.55081">
        <ele>56.0246</ele>
        <time>2022-05-14T17:13:20.000Z</time>
      </trkpt>
      <trkpt lat="46.40578" lon="-1.55078">
        <ele>56.0219</ele>
        <time>2022-05-14T17:13:22.000Z</time>
      </trkpt>
      <trkpt lat="46.40577" lon="-1.55073">
        <ele>56.05851</ele>
        <time>2022-05-14T17:13:24.000Z</time>
      </trkpt>
      <trkpt lat="46.40576" lon="-1.5507">
        <ele>56.07574</ele>
        <time>2022-05-14T17:13:25.000Z</time>
      </trkpt>
      <trkpt lat="46.40575" lon="-1.55065">
        <ele>56.08372</ele>
        <time>2022-05-14T17:13:27.000Z</time>
      </trkpt>
      <trkpt lat="46.40575" lon="-1.55062">
        <ele>56.08803</ele>
        <time>2022-05-14T17:13:28.000Z</time>
      </trkpt>
      <trkpt lat="46.40574" lon="-1.55058">
        <ele>55.99469</ele>
        <time>2022-05-14T17:13:30.000Z</time>
      </trkpt>
      <trkpt lat="46.40574" lon="-1.55053">
        <ele>55.95807</ele>
        <time>2022-05-14T17:13:32.000Z</time>
      </trkpt>
      <trkpt lat="46.40573" lon="-1.5505">
        <ele>55.94658</ele>
        <time>2022-05-14T17:13:33.000Z</time>
      </trkpt>
      <trkpt lat="46.40573" lon="-1.55047">
        <ele>55.9475</ele>
        <time>2022-05-14T17:13:35.000Z</time>
      </trkpt>
      <trkpt lat="46.40572" lon="-1.55044">
        <ele>55.95986</ele>
        <time>2022-05-14T17:13:37.000Z</time>
      </trkpt>
      <trkpt lat="46.40572" lon="-1.55039">
        <ele>55.98512</ele>
        <time>2022-05-14T17:13:39.000Z</time>
      </trkpt>
      <trkpt lat="46.40571" lon="-1.55036">
        <ele>55.99675</ele>
        <time>2022-05-14T17:13:41.000Z</time>
      </trkpt>
      <trkpt lat="46.40571" lon="-1.55032">
        <ele>56.04236</ele>
        <time>2022-05-14T17:13:43.000Z</time>
      </trkpt>
      <trkpt lat="46.40571" lon="-1.55027">
        <ele>56.06101</ele>
        <time>2022-05-14T17:13:45.000Z</time>
      </trkpt>
      <trkpt lat="46.4057" lon="-1.55023">
        <ele>56.09758</ele>
        <time>2022-05-14T17:13:47.000Z</time>
      </trkpt>
      <trkpt lat="46.4057" lon="-1.55019">
        <ele>56.11396</ele>
        <time>2022-05-14T17:13:49.000Z</time>
      </trkpt>
      <trkpt lat="46.40571" lon="-1.55015">
        <ele>56.07661</ele>
        <time>2022-05-14T17:13:51.000Z</time>
      </trkpt>
      <trkpt lat="46.40571" lon="-1.5501">
        <ele>56.02863</ele>
        <time>2022-05-14T17:13:53.000Z</time>
      </trkpt>
      <trkpt lat="46.4057" lon="-1.55006">
        <ele>55.93408</ele>
        <time>2022-05-14T17:13:55.000Z</time>
      </trkpt>
      <trkpt lat="46.4057" lon="-1.55001">
        <ele>55.81585</ele>
        <time>2022-05-14T17:13:57.000Z</time>
      </trkpt>
      <trkpt lat="46.4057" lon="-1.54997">
        <ele>55.70436</ele>
        <time>2022-05-14T17:13:59.000Z</time>
      </trkpt>
      <trkpt lat="46.4057" lon="-1.54993">
        <ele>55.58555</ele>
        <time>2022-05-14T17:14:01.000Z</time>
      </trkpt>
      <trkpt lat="46.40571" lon="-1.54989">
        <ele>55.50951</ele>
        <time>2022-05-14T17:14:03.000Z</time>
      </trkpt>
      <trkpt lat="46.40572" lon="-1.54984">
        <ele>55.40564</ele>
        <time>2022-05-14T17:14:05.000Z</time>
      </trkpt>
      <trkpt lat="46.40572" lon="-1.5498">
        <ele>55.33624</ele>
        <time>2022-05-14T17:14:07.000Z</time>
      </trkpt>
      <trkpt lat="46.40573" lon="-1.54977">
        <ele>55.26455</ele>
        <time>2022-05-14T17:14:09.000Z</time>
      </trkpt>
      <trkpt lat="46.40573" lon="-1.54973">
        <ele>55.13369</ele>
        <time>2022-05-14T17:14:11.000Z</time>
      </trkpt>
      <trkpt lat="46.40574" lon="-1.54969">
        <ele>55.02379</ele>
        <time>2022-05-14T17:14:13.000Z</time>
      </trkpt>
      <trkpt lat="46.40575" lon="-1.54965">
        <ele>54.87635</ele>
        <time>2022-05-14T17:14:15.000Z</time>
      </trkpt>
      <trkpt lat="46.40575" lon="-1.54961">
        <ele>54.70165</ele>
        <time>2022-05-14T17:14:17.000Z</time>
      </trkpt>
      <trkpt lat="46.40576" lon="-1.54957">
        <ele>54.55834</ele>
        <time>2022-05-14T17:14:19.000Z</time>
      </trkpt>
      <trkpt lat="46.40576" lon="-1.54952">
        <ele>54.44643</ele>
        <time>2022-05-14T17:14:21.000Z</time>
      </trkpt>
      <trkpt lat="46.40576" lon="-1.54947">
        <ele>54.2455</ele>
        <time>2022-05-14T17:14:23.000Z</time>
      </trkpt>
      <trkpt lat="46.40576" lon="-1.54942">
        <ele>54.07973</ele>
        <time>2022-05-14T17:14:25.000Z</time>
      </trkpt>
      <trkpt lat="46.40576" lon="-1.54937">
        <ele>53.93221</ele>
        <time>2022-05-14T17:14:27.000Z</time>
      </trkpt>
      <trkpt lat="46.40577" lon="-1.54934">
        <ele>53.82228</ele>
        <time>2022-05-14T17:14:28.000Z</time>
      </trkpt>
      <trkpt lat="46.40577" lon="-1.54932">
        <ele>53.74332</ele>
        <time>2022-05-14T17:14:29.000Z</time>
      </trkpt>
      <trkpt lat="46.40578" lon="-1.54927">
        <ele>53.61942</ele>
        <time>2022-05-14T17:14:31.000Z</time>
      </trkpt>
      <trkpt lat="46.40578" lon="-1.54922">
        <ele>53.53761</ele>
        <time>2022-05-14T17:14:33.000Z</time>
      </trkpt>
      <trkpt lat="46.40579" lon="-1.54918">
        <ele>53.45781</ele>
        <time>2022-05-14T17:14:35.000Z</time>
      </trkpt>
      <trkpt lat="46.40579" lon="-1.54913">
        <ele>53.33412</ele>
        <time>2022-05-14T17:14:37.000Z</time>
      </trkpt>
      <trkpt lat="46.40579" lon="-1.54909">
        <ele>53.21926</ele>
        <time>2022-05-14T17:14:39.000Z</time>
      </trkpt>
      <trkpt lat="46.40579" lon="-1.54905">
        <ele>53.06176</ele>
        <time>2022-05-14T17:14:41.000Z</time>
      </trkpt>
      <trkpt lat="46.4058" lon="-1.54901">
        <ele>52.92783</ele>
        <time>2022-05-14T17:14:43.000Z</time>
      </trkpt>
      <trkpt lat="46.40579" lon="-1.54898">
        <ele>52.69431</ele>
        <time>2022-05-14T17:14:45.000Z</time>
      </trkpt>
      <trkpt lat="46.40579" lon="-1.54893">
        <ele>52.55519</ele>
        <time>2022-05-14T17:14:47.000Z</time>
      </trkpt>
      <trkpt lat="46.40579" lon="-1.5489">
        <ele>52.47352</ele>
        <time>2022-05-14T17:14:49.000Z</time>
      </trkpt>
      <trkpt lat="46.40579" lon="-1.54886">
        <ele>52.42709</ele>
        <time>2022-05-14T17:14:51.000Z</time>
      </trkpt>
      <trkpt lat="46.4058" lon="-1.54882">
        <ele>52.39491</ele>
        <time>2022-05-14T17:14:53.000Z</time>
      </trkpt>
      <trkpt lat="46.40581" lon="-1.54878">
        <ele>52.43306</ele>
        <time>2022-05-14T17:14:55.000Z</time>
      </trkpt>
      <trkpt lat="46.40581" lon="-1.54873">
        <ele>52.41793</ele>
        <time>2022-05-14T17:14:57.000Z</time>
      </trkpt>
      <trkpt lat="46.40581" lon="-1.54868">
        <ele>52.40371</ele>
        <time>2022-05-14T17:14:59.000Z</time>
      </trkpt>
      <trkpt lat="46.40581" lon="-1.54864">
        <ele>52.42903</ele>
        <time>2022-05-14T17:15:01.000Z</time>
      </trkpt>
      <trkpt lat="46.40581" lon="-1.5486">
        <ele>52.46775</ele>
        <time>2022-05-14T17:15:03.000Z</time>
      </trkpt>
      <trkpt lat="46.4058" lon="-1.54855">
        <ele>52.50294</ele>
        <time>2022-05-14T17:15:05.000Z</time>
      </trkpt>
      <trkpt lat="46.4058" lon="-1.5485">
        <ele>52.50292</ele>
        <time>2022-05-14T17:15:07.000Z</time>
      </trkpt>
      <trkpt lat="46.4058" lon="-1.54846">
        <ele>52.58036</ele>
        <time>2022-05-14T17:15:09.000Z</time>
      </trkpt>
      <trkpt lat="46.40582" lon="-1.54842">
        <ele>52.63269</ele>
        <time>2022-05-14T17:15:11.000Z</time>
      </trkpt>
      <trkpt lat="46.40584" lon="-1.54839">
        <ele>52.7063</ele>
        <time>2022-05-14T17:15:13.000Z</time>
      </trkpt>
      <trkpt lat="46.40586" lon="-1.54838">
        <ele>52.77833</ele>
        <time>2022-05-14T17:15:14.000Z</time>
      </trkpt>
      <trkpt lat="46.40588" lon="-1.54837">
        <ele>52.91897</ele>
        <time>2022-05-14T17:15:15.000Z</time>
      </trkpt>
      <trkpt lat="46.4059" lon="-1.54836">
        <ele>53.04202</ele>
        <time>2022-05-14T17:15:16.000Z</time>
      </trkpt>
      <trkpt lat="46.40593" lon="-1.54835">
        <ele>53.17615</ele>
        <time>2022-05-14T17:15:18.000Z</time>
      </trkpt>
      <trkpt lat="46.40597" lon="-1.54834">
        <ele>53.29894</ele>
        <time>2022-05-14T17:15:20.000Z</time>
      </trkpt>
      <trkpt lat="46.40599" lon="-1.54834">
        <ele>53.50133</ele>
        <time>2022-05-14T17:15:22.000Z</time>
      </trkpt>
      <trkpt lat="46.40602" lon="-1.54833">
        <ele>53.62616</ele>
        <time>2022-05-14T17:15:24.000Z</time>
      </trkpt>
      <trkpt lat="46.40605" lon="-1.54833">
        <ele>53.71782</ele>
        <time>2022-05-14T17:15:26.000Z</time>
      </trkpt>
      <trkpt lat="46.40609" lon="-1.54833">
        <ele>53.7486</ele>
        <time>2022-05-14T17:15:28.000Z</time>
      </trkpt>
      <trkpt lat="46.4061" lon="-1.54833">
        <ele>53.71744</ele>
        <time>2022-05-14T17:15:29.000Z</time>
      </trkpt>
      <trkpt lat="46.40614" lon="-1.54833">
        <ele>53.51218</ele>
        <time>2022-05-14T17:15:31.000Z</time>
      </trkpt>
      <trkpt lat="46.40616" lon="-1.54833">
        <ele>53.39152</ele>
        <time>2022-05-14T17:15:32.000Z</time>
      </trkpt>
      <trkpt lat="46.40618" lon="-1.54832">
        <ele>53.28069</ele>
        <time>2022-05-14T17:15:34.000Z</time>
      </trkpt>
      <trkpt lat="46.40621" lon="-1.54832">
        <ele>53.17947</ele>
        <time>2022-05-14T17:15:36.000Z</time>
      </trkpt>
      <trkpt lat="46.40624" lon="-1.54832">
        <ele>53.0919</ele>
        <time>2022-05-14T17:15:38.000Z</time>
      </trkpt>
      <trkpt lat="46.40626" lon="-1.54831">
        <ele>53.04063</ele>
        <time>2022-05-14T17:15:40.000Z</time>
      </trkpt>
      <trkpt lat="46.40629" lon="-1.54829">
        <ele>53.02702</ele>
        <time>2022-05-14T17:15:42.000Z</time>
      </trkpt>
      <trkpt lat="46.4063" lon="-1.54827">
        <ele>52.92115</ele>
        <time>2022-05-14T17:15:43.000Z</time>
      </trkpt>
      <trkpt lat="46.40632" lon="-1.54826">
        <ele>52.74235</ele>
        <time>2022-05-14T17:15:45.000Z</time>
      </trkpt>
      <trkpt lat="46.40634" lon="-1.54823">
        <ele>52.49697</ele>
        <time>2022-05-14T17:15:48.000Z</time>
      </trkpt>
      <trkpt lat="46.40636" lon="-1.5482">
        <ele>52.29084</ele>
        <time>2022-05-14T17:15:50.000Z</time>
      </trkpt>
      <trkpt lat="46.40637" lon="-1.54817">
        <ele>52.00814</ele>
        <time>2022-05-14T17:15:52.000Z</time>
      </trkpt>
      <trkpt lat="46.40638" lon="-1.54814">
        <ele>51.73859</ele>
        <time>2022-05-14T17:15:54.000Z</time>
      </trkpt>
      <trkpt lat="46.4064" lon="-1.5481">
        <ele>51.51302</ele>
        <time>2022-05-14T17:15:56.000Z</time>
      </trkpt>
      <trkpt lat="46.40642" lon="-1.54809">
        <ele>51.25045</ele>
        <time>2022-05-14T17:15:57.000Z</time>
      </trkpt>
      <trkpt lat="46.40644" lon="-1.54807">
        <ele>50.96315</ele>
        <time>2022-05-14T17:15:58.000Z</time>
      </trkpt>
      <trkpt lat="46.40646" lon="-1.54805">
        <ele>50.61091</ele>
        <time>2022-05-14T17:16:00.000Z</time>
      </trkpt>
      <trkpt lat="46.40648" lon="-1.54802">
        <ele>50.22049</ele>
        <time>2022-05-14T17:16:02.000Z</time>
      </trkpt>
      <trkpt lat="46.4065" lon="-1.54799">
        <ele>49.84063</ele>
        <time>2022-05-14T17:16:04.000Z</time>
      </trkpt>
      <trkpt lat="46.40651" lon="-1.54797">
        <ele>49.41852</ele>
        <time>2022-05-14T17:16:06.000Z</time>
      </trkpt>
      <trkpt lat="46.40654" lon="-1.54796">
        <ele>49.16463</ele>
        <time>2022-05-14T17:16:08.000Z</time>
      </trkpt>
      <trkpt lat="46.40655" lon="-1.54793">
        <ele>48.81194</ele>
        <time>2022-05-14T17:16:10.000Z</time>
      </trkpt>
      <trkpt lat="46.40657" lon="-1.5479">
        <ele>48.38341</ele>
        <time>2022-05-14T17:16:12.000Z</time>
      </trkpt>
      <trkpt lat="46.40658" lon="-1.54787">
        <ele>47.88454</ele>
        <time>2022-05-14T17:16:14.000Z</time>
      </trkpt>
      <trkpt lat="46.40659" lon="-1.54783">
        <ele>47.34493</ele>
        <time>2022-05-14T17:16:16.000Z</time>
      </trkpt>
      <trkpt lat="46.4066" lon="-1.54779">
        <ele>46.74091</ele>
        <time>2022-05-14T17:16:18.000Z</time>
      </trkpt>
      <trkpt lat="46.40661" lon="-1.54776">
        <ele>46.12517</ele>
        <time>2022-05-14T17:16:20.000Z</time>
      </trkpt>
      <trkpt lat="46.40663" lon="-1.54773">
        <ele>45.45949</ele>
        <time>2022-05-14T17:16:22.000Z</time>
      </trkpt>
      <trkpt lat="46.40664" lon="-1.5477">
        <ele>44.85214</ele>
        <time>2022-05-14T17:16:24.000Z</time>
      </trkpt>
      <trkpt lat="46.40665" lon="-1.54767">
        <ele>44.27361</ele>
        <time>2022-05-14T17:16:26.000Z</time>
      </trkpt>
      <trkpt lat="46.40667" lon="-1.54763">
        <ele>43.72977</ele>
        <time>2022-05-14T17:16:28.000Z</time>
      </trkpt>
      <trkpt lat="46.40671" lon="-1.5476">
        <ele>43.31608</ele>
        <time>2022-05-14T17:16:30.000Z</time>
      </trkpt>
      <trkpt lat="46.40673" lon="-1.54757">
        <ele>42.9994</ele>
        <time>2022-05-14T17:16:32.000Z</time>
      </trkpt>
      <trkpt lat="46.40675" lon="-1.54754">
        <ele>42.66595</ele>
        <time>2022-05-14T17:16:34.000Z</time>
      </trkpt>
      <trkpt lat="46.40678" lon="-1.54751">
        <ele>42.32666</ele>
        <time>2022-05-14T17:16:36.000Z</time>
      </trkpt>
      <trkpt lat="46.40679" lon="-1.5475">
        <ele>42.00101</ele>
        <time>2022-05-14T17:16:37.000Z</time>
      </trkpt>
      <trkpt lat="46.40681" lon="-1.54748">
        <ele>41.73733</ele>
        <time>2022-05-14T17:16:38.000Z</time>
      </trkpt>
      <trkpt lat="46.40683" lon="-1.54746">
        <ele>41.57558</ele>
        <time>2022-05-14T17:16:39.000Z</time>
      </trkpt>
      <trkpt lat="46.40684" lon="-1.54744">
        <ele>41.45404</ele>
        <time>2022-05-14T17:16:40.000Z</time>
      </trkpt>
      <trkpt lat="46.40685" lon="-1.54742">
        <ele>41.46363</ele>
        <time>2022-05-14T17:16:41.000Z</time>
      </trkpt>
      <trkpt lat="46.40686" lon="-1.54739">
        <ele>41.43226</ele>
        <time>2022-05-14T17:16:42.000Z</time>
      </trkpt>
      <trkpt lat="46.40688" lon="-1.54735">
        <ele>41.49171</ele>
        <time>2022-05-14T17:16:44.000Z</time>
      </trkpt>
      <trkpt lat="46.40689" lon="-1.54732">
        <ele>41.60964</ele>
        <time>2022-05-14T17:16:45.000Z</time>
      </trkpt>
      <trkpt lat="46.4069" lon="-1.5473">
        <ele>41.86227</ele>
        <time>2022-05-14T17:16:46.000Z</time>
      </trkpt>
      <trkpt lat="46.40691" lon="-1.54728">
        <ele>42.09866</ele>
        <time>2022-05-14T17:16:47.000Z</time>
      </trkpt>
      <trkpt lat="46.40693" lon="-1.54726">
        <ele>42.29756</ele>
        <time>2022-05-14T17:16:49.000Z</time>
      </trkpt>
      <trkpt lat="46.40696" lon="-1.54724">
        <ele>42.50315</ele>
        <time>2022-05-14T17:16:51.000Z</time>
      </trkpt>
      <trkpt lat="46.40698" lon="-1.54721">
        <ele>42.8091</ele>
        <time>2022-05-14T17:16:53.000Z</time>
      </trkpt>
      <trkpt lat="46.407" lon="-1.54718">
        <ele>43.16107</ele>
        <time>2022-05-14T17:16:55.000Z</time>
      </trkpt>
      <trkpt lat="46.40702" lon="-1.54717">
        <ele>43.54315</ele>
        <time>2022-05-14T17:16:56.000Z</time>
      </trkpt>
      <trkpt lat="46.40704" lon="-1.54714">
        <ele>44.02306</ele>
        <time>2022-05-14T17:16:58.000Z</time>
      </trkpt>
      <trkpt lat="46.40706" lon="-1.54712">
        <ele>44.34759</ele>
        <time>2022-05-14T17:17:00.000Z</time>
      </trkpt>
      <trkpt lat="46.40707" lon="-1.54708">
        <ele>44.52562</ele>
        <time>2022-05-14T17:17:02.000Z</time>
      </trkpt>
      <trkpt lat="46.40708" lon="-1.54704">
        <ele>44.63828</ele>
        <time>2022-05-14T17:17:04.000Z</time>
      </trkpt>
      <trkpt lat="46.40708" lon="-1.547">
        <ele>44.83126</ele>
        <time>2022-05-14T17:17:06.000Z</time>
      </trkpt>
      <trkpt lat="46.40709" lon="-1.54695">
        <ele>45.07903</ele>
        <time>2022-05-14T17:17:08.000Z</time>
      </trkpt>
      <trkpt lat="46.4071" lon="-1.5469">
        <ele>45.35549</ele>
        <time>2022-05-14T17:17:10.000Z</time>
      </trkpt>
      <trkpt lat="46.40711" lon="-1.54688">
        <ele>45.5827</ele>
        <time>2022-05-14T17:17:11.000Z</time>
      </trkpt>
      <trkpt lat="46.40713" lon="-1.54687">
        <ele>45.82237</ele>
        <time>2022-05-14T17:17:12.000Z</time>
      </trkpt>
      <trkpt lat="46.40716" lon="-1.54684">
        <ele>46.08404</ele>
        <time>2022-05-14T17:17:14.000Z</time>
      </trkpt>
      <trkpt lat="46.40717" lon="-1.54682">
        <ele>46.35287</ele>
        <time>2022-05-14T17:17:15.000Z</time>
      </trkpt>
      <trkpt lat="46.4072" lon="-1.54679">
        <ele>46.56994</ele>
        <time>2022-05-14T17:17:17.000Z</time>
      </trkpt>
      <trkpt lat="46.40723" lon="-1.54677">
        <ele>46.83767</ele>
        <time>2022-05-14T17:17:19.000Z</time>
      </trkpt>
      <trkpt lat="46.40726" lon="-1.54674">
        <ele>47.14995</ele>
        <time>2022-05-14T17:17:21.000Z</time>
      </trkpt>
      <trkpt lat="46.40729" lon="-1.54673">
        <ele>47.51221</ele>
        <time>2022-05-14T17:17:22.000Z</time>
      </trkpt>
      <trkpt lat="46.40732" lon="-1.54672">
        <ele>47.95397</ele>
        <time>2022-05-14T17:17:24.000Z</time>
      </trkpt>
      <trkpt lat="46.40734" lon="-1.54671">
        <ele>48.44265</ele>
        <time>2022-05-14T17:17:25.000Z</time>
      </trkpt>
      <trkpt lat="46.40736" lon="-1.54671">
        <ele>48.89544</ele>
        <time>2022-05-14T17:17:26.000Z</time>
      </trkpt>
      <trkpt lat="46.40739" lon="-1.5467">
        <ele>49.34777</ele>
        <time>2022-05-14T17:17:28.000Z</time>
      </trkpt>
      <trkpt lat="46.40742" lon="-1.5467">
        <ele>49.76278</ele>
        <time>2022-05-14T17:17:30.000Z</time>
      </trkpt>
      <trkpt lat="46.40744" lon="-1.54671">
        <ele>50.01486</ele>
        <time>2022-05-14T17:17:32.000Z</time>
      </trkpt>
    </trkseg>
  </trk>
</gpx>